[[{"header":{"parameterUnit":"m.s-1","parameterCategory":1,"la1":31.0,"la2":29.5877,"lo1":-88.7671,"lo2":-86.6584,"dy":0.0162,"dx":0.0185,"nx":115,"ny":88,"refTime":"2023-06-16T00:00:00:Z","depth":0,"parameterNumber":2,"parameterNumberName":"U-component_of_WINDS"},"data":[0.0,0.0,0.0,0.0,0.0,0.0,0.0,0.0,0.0,0.0,0.0,0.0,0.0,0.0,0.0,0.0,0.0,0.0,0.0,0.0,0.0,0.0,0.0,0.0,0.0,0.0,0.0,0.0,0.0,0.0,0.0,0.0,0.0,0.0,0.0,0.0,0.0,0.0,0.0,0.0,0.0,0.0,0.0,0.0,0.0,0.0,0.0,0.0,0.0,0.0,0.0,0.0,0.0,0.0,0.0,0.0,0.0,0.0,0.0,0.0,0.0,0.0,0.0,0.0,0.0,0.0,0.0,0.0,0.0,0.0,0.0,0.0,0.0,0.0,0.0,0.0,0.0,0.0,0.0,0.0,0.0,0.0,0.0,0.0,0.0,0.0,0.0,0.0,0.0,0.0,0.0,0.0,0.0,0.0,0.0,0.0,0.0,0.0,0.0,0.0,0.0,0.0,0.0,0.0,0.0,0.0,0.0,0.0,0.0,0.0,0.0,0.0,0.0,0.0,0.0,0.0,0.0,0.0,0.0,0.0,0.0,0.0,0.0,0.0,0.0,0.0,0.0,0.0,0.0,0.0,0.0,0.0,0.0,0.0,0.0,0.0,0.0,0.0,0.0,0.0,0.0,0.0,0.0,0.0,0.0,0.0,0.0,0.0,0.0,0.0,0.0,0.0,0.0,0.0,0.0,0.0,0.0,0.0,0.0,0.0,0.0,0.0,0.0,0.0,0.0,0.0,0.0,0.0,0.0,0.0,0.0,0.0,0.0,0.0,0.0,0.0,0.0,0.0,0.0,0.0,0.0,0.0,0.0,0.0,0.0,0.0,0.0,0.0,0.0,0.0,0.0,0.0,0.0,0.0,0.0,0.0,0.0,0.0,0.0,0.0,0.0,0.0,0.0,0.0,0.0,0.0,0.0,0.0,0.0,0.0,0.0,0.0,0.0,0.0,0.0,0.0,0.0,0.0,0.0,0.0,0.0,0.0,0.0,0.0,0.0,0.0,0.0,0.0,0.0,0.0,0.0,0.0,0.0,0.0,0.0,0.0,0.0,0.0,0.0,0.0,0.0,0.0,0.0,0.0,0.0,0.0,0.0,0.0,0.0,0.0,0.0,0.0,0.0,0.0,0.0,0.0,0.0,0.0,0.0,0.0,0.0,0.0,0.0,0.0,0.0,0.0,0.0,0.0,0.0,0.0,0.0,0.0,0.0,0.0,0.0,0.0,0.0,0.0,0.0,0.0,0.0,0.0,0.0,0.0,0.0,0.0,0.0,0.0,0.0,0.0,0.0,0.0,0.0,0.0,0.0,0.0,0.0,0.0,0.0,0.0,0.0,0.0,0.0,0.0,0.0,0.0,0.0,0.0,0.0,0.0,0.0,0.0,0.0,0.0,0.0,0.0,0.0,0.0,0.0,0.0,0.0,0.0,0.0,0.0,0.0,0.0,0.0,0.0,0.0,0.0,0.0,0.0,0.0,0.0,0.0,0.0,0.0,0.0,0.0,0.0,0.0,0.0,0.0,0.0,0.0,0.0,0.0,0.0,0.0,0.0,0.0,0.0,0.0,0.0,0.0,0.0,0.0,0.0,0.0,0.0,0.0,0.0,0.0,0.0,0.0,0.0,0.0,0.0,0.0,0.0,0.0,0.0,0.0,0.0,0.0,0.0,0.0,0.0,0.0,0.0,0.0,0.0,0.0,0.0,0.0,0.0,0.0,0.0,0.0,0.0,0.0,0.0,0.0,0.0,0.0,0.0,0.0,0.0,0.0,0.0,0.0,0.0,0.0,0.0,0.0,0.0,0.0,0.0,0.0,0.0,0.0,0.0,0.0,0.0,0.0,0.0,0.0,0.0,0.0,0.0,0.0,0.0,0.0,0.0,0.0,0.0,0.0,0.0,0.0,0.0,0.0,0.0,0.0,0.0,0.0,0.0,0.0,0.0,0.0,0.0,0.0,0.0,0.0,0.0,0.0,0.0,0.0,0.0,0.0,0.0,0.0,0.0,0.0,0.0,0.0,0.0,0.0,0.0,0.0,0.0,0.0,0.0,0.0,0.0,0.0,0.0,0.0,0.0,0.0,0.0,0.0,0.0,0.0,0.0,0.0,0.0,0.0,0.0,0.0,0.0,0.0,0.0,0.0,0.0,0.0,0.0,0.0,0.0,0.0,0.0,0.0,0.0,0.0,0.0,0.0,0.0,0.0,0.0,0.0,0.0,0.0,0.0,0.0,0.0,0.0,0.0,0.0,0.0,0.0,0.0,0.0,0.0,0.0,0.0,0.0,0.0,0.0,0.0,0.0,0.0,0.0,0.0,0.0,0.0,0.0,0.0,0.0,0.0,0.0,0.0,0.0,0.0,0.0,0.0,0.0,0.0,0.0,0.0,0.0,0.0,0.0,0.0,0.0,0.0,0.0,0.0,0.0,0.0,0.0,0.0,0.0,0.0,0.0,0.0,0.0,0.0,0.0,0.0,0.0,0.0,0.0,0.0,0.0,0.0,0.0,0.0,0.0,0.0,0.0,0.0,0.0,0.0,0.0,0.0,0.0,0.0,0.0,0.0,0.0,0.0,0.0,0.0,0.0,0.0,0.0,0.0,0.0,0.0,0.0,0.0,0.0,0.0,0.0,0.0,0.0,0.0,0.0,0.0,0.0,0.0,0.0,0.0,0.0,0.0,0.0,0.0,0.0,0.0,0.0,0.0,0.0,0.0,0.0,0.0,0.0,0.0,0.0,0.0,0.0,0.0,0.0,0.0,0.0,0.0,0.0,0.0,0.0,0.0,0.0,0.0,0.0,0.0,0.0,0.0,0.0,0.0,0.0,0.0,0.0,0.0,0.0,0.0,0.0,0.0,0.0,0.0,0.0,0.0,0.0,0.0,0.0,0.0,0.0,0.0,0.0,0.0,0.0,0.0,0.0,0.0,0.0,0.0,0.0,0.0,0.0,0.0,0.0,0.0,0.0,0.0,0.0,0.0,0.0,0.0,0.0,0.0,0.0,0.0,0.0,0.0,0.0,0.0,0.0,0.0,0.0,0.0,0.0,0.0,0.0,0.0,0.0,0.0,0.0,0.0,0.0,0.0,0.0,0.0,0.0,0.0,0.0,0.0,0.0,0.0,0.0,0.0,0.0,0.0,0.0,0.0,0.0,0.0,0.0,0.0,0.0,0.0,0.0,0.0,0.0,0.0,0.0,0.0,0.0,0.0,0.0,0.0,0.0,0.0,0.0,0.0,0.0,0.0,0.0,0.0,0.0,0.0,0.0,0.0,0.0,0.0,0.0,0.0,0.0,0.0,0.0,0.0,0.0,0.0,0.0,0.0,0.0,0.0,0.0,0.0,0.0,0.0,0.0,0.0,0.0,0.0,0.0,0.0,0.0,0.0,0.0,0.0,0.0,0.0,0.0,0.0,0.0,0.0,0.0,0.0,0.0,0.0,0.0,0.0,0.0,0.0,0.0,0.0,0.0,0.0,0.0,0.0,0.0,0.0,0.0,0.0,0.0,0.0,0.0,0.0,0.0,0.0,0.0,0.0,0.0,0.0,0.0,0.0,0.0,0.0,0.0,0.0,0.0,0.0,0.0,0.0,0.0,0.0,0.0,0.0,0.0,0.0,0.0,0.0,0.0,0.0,0.0,0.0,0.0,0.0,0.0,0.0,0.0,0.0,0.0,0.0,0.0,0.0,0.0,0.0,0.0,0.0,0.0,0.0,0.0,0.0,0.0,0.0,0.0,0.0,0.0,0.0,0.0,0.0,0.0,0.0,0.0,0.0,0.0,0.0,0.0,0.0,0.0,0.0,0.0,0.0,0.0,0.0,0.0,0.0,0.0,0.0,0.0,0.0,0.0,0.0,0.0,0.0,0.0,0.0,0.0,0.0,0.0,0.0,0.0,0.0,0.0,0.0,0.0,0.0,0.0,0.0,0.0,0.0,0.0,0.0,0.0,0.0,0.0,0.0,0.0,0.0,0.0,0.0,0.0,0.0,0.0,0.0,0.0,0.0,0.0,0.0,0.0,0.0,0.0,0.0,0.0,0.0,0.0,0.0,0.0,0.0,0.0,0.0,0.0,0.0,0.0,0.0,0.0,0.0,0.0,0.0,0.0,0.0,0.0,0.0,0.0,0.0,0.0,0.0,0.0,0.0,0.0,0.0,0.0,0.0,0.0,0.0,0.0,0.0,0.0,0.0,0.0,0.0,0.0,0.0,0.0,0.0,0.0,0.0,0.0,0.0,0.0,0.0,0.0,0.0,0.0,0.0,0.0,0.0,0.0,0.0,-1.6513,0.0,0.0,0.0,0.0,0.0,0.0,0.0,0.0,0.0,0.0,0.0,0.0,0.0,0.0,0.0,0.0,0.0,0.0,0.0,0.0,0.0,0.0,0.0,0.0,0.0,0.0,0.0,0.0,0.0,0.0,0.0,0.0,0.0,0.0,0.0,0.0,0.0,0.0,0.0,0.0,0.0,0.0,0.0,0.0,0.0,0.0,0.0,0.0,0.0,0.0,0.0,0.0,0.0,0.0,0.0,0.0,0.0,0.0,0.0,0.0,0.0,0.0,0.0,0.0,0.0,0.0,0.0,0.0,0.0,0.0,0.0,0.0,0.0,0.0,0.0,0.0,0.0,0.0,0.0,0.0,0.0,0.0,0.0,0.0,0.0,0.0,0.0,0.0,0.0,0.0,0.0,0.0,0.0,0.0,0.0,0.0,0.0,0.0,0.0,0.0,0.0,0.0,0.0,0.0,0.0,0.0,0.0,0.0,0.0,0.0,-1.6513,-1.6513,-1.6513,-1.6513,-1.6513,0.0,0.0,0.0,0.0,0.0,0.0,0.0,0.0,0.0,0.0,0.0,0.0,0.0,0.0,0.0,0.0,0.0,0.0,0.0,0.0,0.0,0.0,0.0,0.0,0.0,0.0,0.0,0.0,0.0,0.0,0.0,0.0,0.0,0.0,0.0,0.0,0.0,0.0,0.0,0.0,0.0,0.0,0.0,0.0,0.0,0.0,0.0,0.0,0.0,0.0,0.0,0.0,0.0,0.0,0.0,0.0,0.0,0.0,0.0,0.0,0.0,0.0,0.0,0.0,0.0,0.0,0.0,0.0,0.0,0.0,0.0,0.0,0.0,0.0,0.0,0.0,0.0,0.0,0.0,0.0,0.0,0.0,0.0,0.0,0.0,0.0,0.0,0.0,0.0,0.0,0.0,0.0,0.0,0.0,0.0,0.0,0.0,0.0,0.0,0.0,0.0,0.0,0.0,0.0,0.0,0.0,0.0,0.0,0.0,0.0,0.0,0.0,-1.6763,-1.6688,-1.6688,0.0,0.0,0.0,0.0,0.0,0.0,0.0,0.0,0.0,0.0,0.0,0.0,0.0,0.0,0.0,0.0,0.0,0.0,0.0,0.0,0.0,0.0,0.0,0.0,0.0,0.0,0.0,0.0,0.0,0.0,0.0,0.0,0.0,0.0,0.0,0.0,0.0,0.0,0.0,0.0,0.0,0.0,0.0,0.0,0.0,0.0,0.0,0.0,0.0,0.0,0.0,0.0,0.0,0.0,0.0,0.0,0.0,0.0,0.0,0.0,0.0,0.0,0.0,0.0,0.0,0.0,0.0,0.0,0.0,0.0,0.0,0.0,0.0,0.0,0.0,0.0,0.0,0.0,0.0,0.0,0.0,0.0,0.0,0.0,0.0,0.0,0.0,0.0,0.0,0.0,0.0,0.0,0.0,0.0,0.0,0.0,0.0,0.0,0.0,0.0,0.0,0.0,0.0,0.0,0.0,0.0,0.0,0.0,0.0,0.0,-1.6989,-1.8003,-1.7586,0.0,-1.7297,0.0,0.0,0.0,0.0,0.0,0.0,0.0,0.0,0.0,0.0,0.0,0.0,0.0,0.0,0.0,0.0,0.0,0.0,0.0,0.0,0.0,0.0,0.0,0.0,0.0,0.0,0.0,0.0,0.0,0.0,0.0,0.0,0.0,0.0,0.0,0.0,0.0,0.0,0.0,0.0,0.0,0.0,0.0,0.0,0.0,0.0,0.0,0.0,0.0,0.0,0.0,0.0,0.0,0.0,0.0,0.0,0.0,0.0,0.0,0.0,0.0,0.0,0.0,0.0,0.0,0.0,0.0,0.0,0.0,0.0,0.0,0.0,0.0,0.0,0.0,0.0,0.0,0.0,0.0,0.0,0.0,0.0,0.0,0.0,0.0,0.0,0.0,0.0,0.0,0.0,0.0,0.0,0.0,0.0,0.0,0.0,0.0,0.0,0.0,0.0,0.0,0.0,0.0,0.0,0.0,0.0,0.0,0.0,0.0,0.0,-1.6876,-1.7702,-1.7524,-1.7234,0.0,0.0,0.0,0.0,0.0,0.0,0.0,0.0,0.0,0.0,0.0,0.0,0.0,0.0,0.0,0.0,0.0,0.0,0.0,0.0,0.0,0.0,0.0,0.0,0.0,0.0,0.0,0.0,0.0,0.0,0.0,0.0,0.0,0.0,0.0,0.0,0.0,0.0,0.0,0.0,0.0,0.0,0.0,0.0,0.0,0.0,0.0,0.0,0.0,0.0,0.0,0.0,0.0,0.0,0.0,0.0,0.0,0.0,0.0,0.0,0.0,0.0,0.0,0.0,0.0,0.0,0.0,0.0,0.0,0.0,0.0,0.0,0.0,0.0,0.0,0.0,0.0,0.0,0.0,0.0,0.0,0.0,0.0,0.0,0.0,0.0,0.0,0.0,0.0,0.0,0.0,0.0,0.0,0.0,0.0,0.0,0.0,0.0,0.0,0.0,0.0,0.0,0.0,0.0,0.0,0.0,0.0,0.0,0.0,0.0,-1.6889,-1.7024,-1.7551,-1.7335,-1.7024,-1.6738,0.0,0.0,0.0,0.0,0.0,0.0,0.0,0.0,0.0,0.0,0.0,0.0,0.0,0.0,0.0,0.0,0.0,0.0,0.0,0.0,0.0,0.0,0.0,0.0,0.0,0.0,0.0,0.0,0.0,0.0,0.0,0.0,0.0,0.0,0.0,0.0,0.0,0.0,0.0,0.0,0.0,0.0,0.0,0.0,0.0,0.0,0.0,0.0,0.0,0.0,0.0,0.0,0.0,0.0,0.0,0.0,0.0,0.0,0.0,0.0,0.0,0.0,0.0,0.0,0.0,0.0,0.0,0.0,0.0,0.0,0.0,0.0,0.0,0.0,0.0,0.0,0.0,0.0,0.0,0.0,0.0,0.0,0.0,0.0,0.0,0.0,0.0,0.0,0.0,0.0,0.0,0.0,0.0,0.0,0.0,0.0,0.0,0.0,0.0,0.0,0.0,0.0,0.0,0.0,0.0,0.0,0.0,0.0,-1.8732,-1.7852,-1.7624,-1.8116,-1.7124,-1.681,0.0,0.0,0.0,0.0,0.0,0.0,0.0,0.0,0.0,0.0,0.0,0.0,0.0,0.0,0.0,0.0,0.0,0.0,0.0,0.0,0.0,0.0,0.0,0.0,0.0,0.0,0.0,0.0,0.0,0.0,0.0,0.0,0.0,0.0,0.0,0.0,0.0,0.0,0.0,0.0,0.0,0.0,0.0,0.0,0.0,0.0,0.0,0.0,0.0,0.0,0.0,0.0,0.0,0.0,0.0,0.0,0.0,0.0,0.0,0.0,0.0,0.0,0.0,0.0,0.0,0.0,0.0,0.0,0.0,0.0,0.0,0.0,0.0,0.0,0.0,0.0,0.0,0.0,0.0,0.0,0.0,0.0,0.0,0.0,0.0,0.0,0.0,0.0,0.0,0.0,0.0,0.0,0.0,0.0,0.0,0.0,0.0,0.0,0.0,0.0,0.0,0.0,0.0,0.0,0.0,0.0,0.0,0.0,0.0,-1.7353,-1.7375,-1.7498,-1.7652,-1.7275,-1.7197,0.0,0.0,0.0,0.0,0.0,0.0,0.0,0.0,0.0,0.0,0.0,0.0,0.0,0.0,0.0,0.0,0.0,0.0,0.0,0.0,0.0,0.0,0.0,0.0,0.0,0.0,0.0,0.0,0.0,0.0,0.0,0.0,0.0,0.0,0.0,0.0,0.0,0.0,0.0,0.0,0.0,0.0,0.0,0.0,0.0,0.0,0.0,0.0,0.0,0.0,0.0,0.0,0.0,0.0,0.0,0.0,0.0,0.0,0.0,0.0,0.0,0.0,0.0,0.0,0.0,0.0,0.0,0.0,0.0,0.0,0.0,0.0,0.0,0.0,0.0,0.0,0.0,0.0,0.0,0.0,0.0,0.0,0.0,0.0,0.0,0.0,0.0,0.0,0.0,0.0,0.0,0.0,0.0,0.0,0.0,0.0,0.0,0.0,0.0,0.0,0.0,0.0,0.0,0.0,0.0,0.0,0.0,0.0,0.0,-1.6798,0.0,-1.7398,-1.7398,-1.7222,-1.7099,0.0,0.0,0.0,0.0,0.0,0.0,0.0,0.0,0.0,0.0,0.0,0.0,0.0,0.0,0.0,0.0,0.0,0.0,0.0,0.0,0.0,0.0,0.0,0.0,0.0,0.0,0.0,0.0,0.0,0.0,0.0,0.0,0.0,0.0,0.0,0.0,0.0,0.0,0.0,0.0,0.0,0.0,0.0,0.0,0.0,0.0,0.0,0.0,0.0,0.0,0.0,0.0,0.0,0.0,0.0,0.0,0.0,0.0,0.0,0.0,0.0,0.0,0.0,0.0,0.0,0.0,0.0,0.0,0.0,0.0,0.0,0.0,0.0,0.0,0.0,0.0,0.0,0.0,0.0,0.0,0.0,0.0,0.0,0.0,0.0,0.0,0.0,0.0,0.0,0.0,0.0,0.0,0.0,0.0,0.0,0.0,0.0,0.0,0.0,0.0,0.0,0.0,0.0,0.0,0.0,0.0,0.0,0.0,-1.6785,-1.736,-1.7373,-1.7398,-1.7423,-1.6839,-1.6538,0.0,0.0,0.0,0.0,0.0,0.0,0.0,0.0,0.0,0.0,0.0,0.0,0.0,0.0,0.0,0.0,0.0,0.0,0.0,0.0,0.0,0.0,0.0,0.0,0.0,0.0,0.0,0.0,0.0,0.0,0.0,0.0,0.0,0.0,0.0,0.0,0.0,0.0,0.0,0.0,0.0,0.0,0.0,0.0,0.0,0.0,0.0,0.0,0.0,0.0,0.0,0.0,0.0,0.0,0.0,0.0,0.0,0.0,0.0,0.0,0.0,0.0,0.0,0.0,0.0,0.0,0.0,0.0,0.0,0.0,0.0,0.0,0.0,0.0,0.0,0.0,0.0,0.0,0.0,0.0,0.0,0.0,0.0,0.0,0.0,0.0,0.0,0.0,0.0,0.0,0.0,0.0,0.0,0.0,0.0,0.0,0.0,0.0,0.0,0.0,0.0,0.0,0.0,0.0,0.0,0.0,0.0,0.0,0.0,-1.6751,-1.6785,-1.735,-1.8405,-1.719,-1.7061,0.0,0.0,0.0,0.0,0.0,0.0,0.0,0.0,0.0,0.0,0.0,0.0,0.0,0.0,0.0,0.0,0.0,0.0,0.0,0.0,0.0,0.0,0.0,0.0,0.0,0.0,0.0,0.0,0.0,0.0,0.0,0.0,0.0,0.0,0.0,0.0,0.0,0.0,0.0,0.0,0.0,0.0,0.0,0.0,0.0,0.0,0.0,0.0,0.0,0.0,0.0,0.0,0.0,0.0,0.0,0.0,0.0,0.0,0.0,0.0,0.0,0.0,0.0,0.0,0.0,0.0,0.0,0.0,0.0,0.0,0.0,0.0,0.0,0.0,0.0,0.0,0.0,0.0,0.0,0.0,0.0,0.0,0.0,0.0,0.0,0.0,0.0,0.0,0.0,0.0,0.0,0.0,0.0,0.0,0.0,0.0,0.0,0.0,0.0,0.0,0.0,0.0,0.0,0.0,0.0,0.0,0.0,0.0,0.0,-1.7114,-1.6926,-1.7415,-1.8694,-1.7478,-1.7338,-1.8306,0.0,0.0,0.0,0.0,0.0,0.0,0.0,0.0,0.0,0.0,0.0,0.0,0.0,0.0,0.0,0.0,0.0,0.0,0.0,0.0,0.0,0.0,0.0,0.0,0.0,0.0,0.0,0.0,0.0,0.0,0.0,0.0,0.0,0.0,0.0,0.0,0.0,0.0,0.0,0.0,0.0,0.0,0.0,0.0,0.0,0.0,0.0,0.0,0.0,0.0,0.0,0.0,0.0,0.0,0.0,0.0,0.0,0.0,0.0,0.0,0.0,0.0,0.0,0.0,0.0,0.0,0.0,0.0,0.0,0.0,0.0,0.0,0.0,0.0,0.0,0.0,0.0,0.0,0.0,0.0,0.0,0.0,0.0,0.0,0.0,0.0,0.0,0.0,0.0,0.0,0.0,0.0,0.0,0.0,0.0,0.0,0.0,0.0,0.0,0.0,0.0,0.0,0.0,0.0,0.0,0.0,0.0,0.0,-1.8329,-1.7865,-1.7913,-1.8405,-1.779,-1.7498,0.0,0.0,0.0,0.0,0.0,0.0,0.0,0.0,0.0,0.0,0.0,0.0,0.0,0.0,0.0,0.0,0.0,0.0,0.0,0.0,0.0,0.0,0.0,0.0,0.0,0.0,0.0,0.0,0.0,0.0,0.0,0.0,0.0,0.0,0.0,0.0,0.0,0.0,0.0,0.0,0.0,0.0,0.0,0.0,0.0,0.0,0.0,0.0,0.0,0.0,0.0,0.0,0.0,0.0,0.0,0.0,0.0,0.0,0.0,0.0,0.0,0.0,0.0,0.0,0.0,0.0,0.0,0.0,0.0,0.0,0.0,0.0,0.0,0.0,0.0,0.0,0.0,0.0,0.0,0.0,0.0,0.0,0.0,0.0,0.0,0.0,0.0,0.0,0.0,0.0,0.0,0.0,0.0,0.0,0.0,0.0,0.0,0.0,0.0,0.0,0.0,0.0,0.0,0.0,0.0,0.0,0.0,0.0,0.0,-2.0025,-2.0302,-2.0489,-2.0589,-1.892,-1.8568,0.0,0.0,0.0,0.0,0.0,0.0,0.0,0.0,0.0,0.0,0.0,0.0,0.0,0.0,0.0,0.0,0.0,0.0,0.0,0.0,0.0,0.0,0.0,0.0,0.0,0.0,0.0,0.0,0.0,0.0,0.0,0.0,0.0,0.0,0.0,0.0,0.0,0.0,0.0,0.0,0.0,0.0,0.0,0.0,0.0,0.0,0.0,0.0,0.0,0.0,0.0,0.0,0.0,0.0,0.0,0.0,0.0,0.0,0.0,0.0,0.0,0.0,0.0,0.0,0.0,0.0,0.0,0.0,0.0,0.0,0.0,0.0,0.0,0.0,0.0,0.0,0.0,0.0,0.0,0.0,0.0,0.0,0.0,0.0,0.0,0.0,0.0,0.0,0.0,0.0,0.0,0.0,0.0,0.0,0.0,0.0,0.0,0.0,0.0,0.0,0.0,0.0,0.0,0.0,0.0,0.0,0.0,0.0,-2.025,-2.1343,-2.2359,-2.2786,-2.2577,-2.0627,-1.9657,0.0,0.0,0.0,0.0,0.0,0.0,0.0,0.0,0.0,0.0,0.0,0.0,0.0,0.0,0.0,0.0,0.0,0.0,0.0,0.0,0.0,0.0,0.0,0.0,0.0,0.0,0.0,0.0,0.0,0.0,0.0,0.0,0.0,0.0,0.0,0.0,0.0,0.0,0.0,0.0,0.0,0.0,0.0,0.0,0.0,0.0,0.0,0.0,0.0,0.0,0.0,0.0,0.0,0.0,0.0,0.0,0.0,0.0,0.0,0.0,0.0,0.0,0.0,0.0,0.0,0.0,0.0,0.0,0.0,0.0,0.0,0.0,0.0,0.0,0.0,0.0,0.0,0.0,0.0,0.0,0.0,0.0,0.0,0.0,0.0,0.0,0.0,0.0,0.0,0.0,0.0,0.0,0.0,0.0,0.0,0.0,0.0,0.0,0.0,0.0,0.0,0.0,0.0,0.0,0.0,0.0,0.0,0.0,-2.1393,-2.256,-2.4092,-2.4644,-2.4067,-2.2447,-2.0779,0.0,0.0,0.0,0.0,0.0,0.0,0.0,0.0,0.0,0.0,0.0,0.0,0.0,0.0,0.0,0.0,0.0,0.0,0.0,0.0,0.0,0.0,0.0,0.0,0.0,0.0,0.0,0.0,0.0,0.0,0.0,0.0,0.0,0.0,0.0,0.0,0.0,0.0,0.0,0.0,0.0,0.0,0.0,0.0,0.0,0.0,0.0,0.0,0.0,0.0,0.0,0.0,0.0,0.0,0.0,0.0,0.0,0.0,0.0,0.0,0.0,0.0,0.0,0.0,0.0,0.0,0.0,0.0,0.0,0.0,0.0,0.0,0.0,0.0,0.0,0.0,0.0,0.0,0.0,0.0,0.0,0.0,0.0,0.0,0.0,0.0,0.0,0.0,0.0,0.0,0.0,0.0,0.0,0.0,0.0,0.0,0.0,0.0,0.0,0.0,0.0,0.0,0.0,0.0,0.0,0.0,0.0,0.0,-2.2711,-2.4255,-2.5046,-2.5172,-2.4657,-2.2982,-2.1734,0.0,0.0,0.0,0.0,0.0,0.0,0.0,0.0,0.0,0.0,0.0,0.0,0.0,0.0,0.0,0.0,0.0,0.0,0.0,0.0,0.0,0.0,0.0,0.0,0.0,0.0,0.0,0.0,0.0,0.0,0.0,0.0,0.0,0.0,0.0,0.0,0.0,0.0,0.0,0.0,0.0,0.0,0.0,0.0,0.0,0.0,0.0,0.0,-1.542,0.0,0.0,0.0,0.0,0.0,0.0,0.0,0.0,0.0,0.0,0.0,0.0,0.0,0.0,0.0,0.0,0.0,0.0,0.0,0.0,0.0,0.0,0.0,0.0,0.0,0.0,0.0,0.0,0.0,0.0,0.0,0.0,0.0,0.0,0.0,0.0,0.0,0.0,0.0,0.0,0.0,0.0,0.0,0.0,0.0,0.0,0.0,0.0,0.0,0.0,0.0,0.0,0.0,0.0,0.0,0.0,0.0,0.0,0.0,-2.3471,-2.5134,-2.5711,-2.5749,-2.5172,-2.4092,-2.2521,0.0,0.0,0.0,0.0,0.0,0.0,0.0,0.0,0.0,0.0,0.0,0.0,0.0,0.0,0.0,0.0,0.0,0.0,0.0,0.0,0.0,0.0,0.0,0.0,0.0,0.0,0.0,0.0,0.0,0.0,0.0,0.0,0.0,0.0,0.0,0.0,0.0,0.0,0.0,0.0,0.0,0.0,0.0,0.0,0.0,0.0,0.0,0.0,0.0,0.0,0.0,0.0,0.0,0.0,0.0,0.0,0.0,0.0,0.0,0.0,0.0,0.0,0.0,0.0,0.0,0.0,0.0,0.0,0.0,0.0,0.0,0.0,0.0,0.0,0.0,0.0,0.0,0.0,0.0,0.0,0.0,0.0,0.0,0.0,0.0,0.0,0.0,0.0,0.0,0.0,0.0,0.0,0.0,0.0,0.0,0.0,0.0,0.0,0.0,0.0,0.0,0.0,0.0,0.0,0.0,0.0,0.0,-2.2443,-2.3948,-2.5661,-2.6248,-2.6223,-2.5611,-2.5096,-2.3123,-1.9595,0.0,0.0,0.0,0.0,0.0,0.0,0.0,0.0,0.0,0.0,0.0,0.0,0.0,0.0,0.0,0.0,0.0,0.0,0.0,0.0,0.0,0.0,0.0,0.0,0.0,0.0,0.0,0.0,0.0,0.0,0.0,0.0,0.0,0.0,0.0,0.0,0.0,0.0,-1.4202,-1.4561,0.0,0.0,0.0,0.0,0.0,0.0,0.0,0.0,-1.542,0.0,0.0,0.0,0.0,0.0,0.0,0.0,0.0,0.0,0.0,0.0,0.0,0.0,0.0,0.0,0.0,0.0,0.0,0.0,0.0,0.0,0.0,0.0,0.0,0.0,0.0,0.0,0.0,0.0,0.0,0.0,0.0,0.0,0.0,0.0,0.0,0.0,0.0,0.0,0.0,0.0,0.0,0.0,0.0,0.0,0.0,0.0,0.0,0.0,0.0,0.0,0.0,0.0,0.0,0.0,0.0,-2.3389,-2.3208,-2.4167,-2.6285,-2.6449,-2.6223,-2.5611,-2.5096,-2.3294,-2.0205,0.0,0.0,0.0,0.0,0.0,0.0,0.0,0.0,0.0,0.0,0.0,0.0,0.0,0.0,0.0,0.0,0.0,0.0,0.0,0.0,0.0,0.0,0.0,0.0,0.0,0.0,0.0,0.0,0.0,0.0,0.0,0.0,0.0,0.0,0.0,0.0,0.0,0.0,0.0,-1.4736,-1.4941,0.0,0.0,0.0,0.0,0.0,0.0,0.0,0.0,-1.542,0.0,0.0,0.0,0.0,0.0,0.0,0.0,0.0,0.0,0.0,0.0,0.0,0.0,0.0,0.0,0.0,0.0,0.0,0.0,0.0,0.0,0.0,0.0,0.0,0.0,0.0,0.0,0.0,0.0,0.0,0.0,0.0,0.0,0.0,0.0,0.0,0.0,0.0,0.0,0.0,0.0,0.0,0.0,0.0,0.0,0.0,0.0,0.0,0.0,0.0,0.0,0.0,0.0,0.0,0.0,-2.2987,-2.3672,-2.4808,-2.6424,-2.6487,-2.5993,-2.4958,-2.4218,-2.2432,0.0,0.0,0.0,0.0,0.0,0.0,0.0,0.0,0.0,0.0,0.0,0.0,0.0,0.0,0.0,0.0,0.0,0.0,0.0,0.0,0.0,0.0,0.0,0.0,0.0,0.0,0.0,0.0,0.0,0.0,0.0,0.0,0.0,0.0,0.0,0.0,0.0,0.0,0.0,0.0,-1.4932,-1.4941,-1.5352,0.0,0.0,0.0,0.0,0.0,0.0,-1.542,-1.542,0.0,0.0,0.0,0.0,0.0,0.0,0.0,0.0,0.0,0.0,0.0,0.0,0.0,0.0,0.0,0.0,0.0,0.0,0.0,0.0,0.0,0.0,0.0,0.0,0.0,0.0,0.0,0.0,0.0,0.0,0.0,0.0,0.0,0.0,0.0,0.0,0.0,0.0,0.0,0.0,0.0,0.0,0.0,0.0,0.0,0.0,0.0,0.0,0.0,0.0,0.0,0.0,0.0,0.0,0.0,-2.2636,-2.4148,-2.5511,-2.66,-2.6663,-2.6052,-2.4764,-2.3637,-2.1836,0.0,0.0,0.0,0.0,0.0,0.0,0.0,0.0,0.0,0.0,0.0,0.0,0.0,0.0,0.0,0.0,0.0,0.0,0.0,0.0,0.0,0.0,0.0,0.0,0.0,0.0,0.0,0.0,0.0,0.0,0.0,0.0,0.0,0.0,0.0,0.0,0.0,0.0,0.0,0.0,0.0,-1.5127,-1.5371,-1.5488,0.0,0.0,0.0,0.0,-1.542,-1.5488,0.0,0.0,0.0,0.0,0.0,0.0,0.0,0.0,0.0,0.0,0.0,0.0,0.0,0.0,0.0,0.0,0.0,0.0,0.0,0.0,0.0,0.0,0.0,0.0,0.0,0.0,0.0,0.0,0.0,0.0,0.0,0.0,0.0,0.0,0.0,0.0,0.0,0.0,0.0,0.0,0.0,0.0,0.0,0.0,0.0,0.0,0.0,0.0,0.0,0.0,0.0,0.0,0.0,0.0,0.0,0.0,-2.3753,-2.4921,-2.605,-2.7153,-2.7216,-2.6882,-2.6261,-2.4417,-2.2568,0.0,0.0,0.0,0.0,0.0,0.0,0.0,0.0,0.0,0.0,0.0,0.0,0.0,0.0,0.0,0.0,0.0,0.0,0.0,0.0,0.0,0.0,0.0,0.0,0.0,0.0,0.0,0.0,0.0,0.0,0.0,0.0,0.0,0.0,0.0,0.0,0.0,0.0,0.0,0.0,0.0,-1.5831,-1.5459,-1.5772,-1.588,0.0,0.0,-1.542,-1.542,-1.5732,0.0,0.0,0.0,0.0,0.0,0.0,0.0,0.0,0.0,0.0,0.0,0.0,0.0,0.0,0.0,0.0,0.0,0.0,0.0,0.0,0.0,0.0,0.0,0.0,0.0,0.0,0.0,0.0,0.0,0.0,0.0,0.0,0.0,0.0,0.0,0.0,0.0,0.0,0.0,0.0,0.0,0.0,0.0,0.0,0.0,0.0,0.0,0.0,0.0,0.0,0.0,0.0,0.0,0.0,0.0,-2.2099,-2.3966,-2.5046,-2.6138,-2.7231,-2.6461,-2.538,-2.409,-2.2216,-2.038,0.0,0.0,0.0,0.0,0.0,0.0,0.0,0.0,0.0,0.0,0.0,0.0,0.0,0.0,0.0,0.0,0.0,0.0,0.0,0.0,0.0,0.0,0.0,0.0,0.0,0.0,0.0,0.0,0.0,0.0,0.0,0.0,0.0,0.0,0.0,0.0,0.0,0.0,0.0,0.0,0.0,0.0,-1.5771,-1.5968,0.0,0.0,0.0,-1.6777,-1.7509,0.0,0.0,0.0,0.0,0.0,0.0,0.0,0.0,0.0,0.0,0.0,0.0,0.0,0.0,0.0,0.0,0.0,0.0,0.0,0.0,0.0,0.0,0.0,0.0,0.0,0.0,0.0,0.0,0.0,0.0,0.0,0.0,0.0,0.0,0.0,0.0,0.0,0.0,0.0,0.0,0.0,0.0,0.0,0.0,0.0,0.0,0.0,0.0,0.0,0.0,0.0,0.0,0.0,0.0,0.0,0.0,0.0,-2.4368,-2.5473,-2.6386,-2.7036,-2.5864,-2.4296,-2.2444,-2.0594,0.0,0.0,0.0,0.0,0.0,0.0,0.0,0.0,0.0,0.0,0.0,0.0,0.0,0.0,0.0,0.0,0.0,0.0,0.0,0.0,0.0,0.0,0.0,0.0,0.0,0.0,0.0,-1.4941,0.0,0.0,0.0,0.0,0.0,0.0,0.0,0.0,0.0,0.0,0.0,0.0,0.0,0.0,-1.6103,-1.6211,-1.6447,-1.6713,0.0,0.0,-1.7513,-1.8365,-1.7786,-1.7147,0.0,0.0,0.0,0.0,0.0,0.0,0.0,0.0,0.0,0.0,0.0,0.0,0.0,0.0,0.0,0.0,0.0,0.0,0.0,0.0,0.0,0.0,0.0,0.0,0.0,0.0,0.0,0.0,0.0,0.0,0.0,0.0,0.0,0.0,0.0,0.0,0.0,0.0,0.0,0.0,0.0,0.0,0.0,0.0,0.0,0.0,0.0,0.0,0.0,0.0,0.0,0.0,0.0,0.0,-2.3797,-2.546,-2.6603,-2.7012,-2.6656,-2.6041,-2.4835,-2.2881,-2.1036,-1.9588,0.0,0.0,0.0,0.0,0.0,0.0,0.0,0.0,0.0,0.0,0.0,0.0,0.0,0.0,0.0,0.0,0.0,0.0,0.0,0.0,0.0,0.0,0.0,0.0,0.0,0.0,0.0,0.0,0.0,0.0,0.0,0.0,0.0,0.0,0.0,0.0,0.0,0.0,0.0,0.0,0.0,-1.7549,-1.6755,-1.734,-1.7588,0.0,-1.6752,-1.6646,-1.6375,-1.6591,-1.6468,-1.5684,0.0,0.0,0.0,0.0,0.0,0.0,0.0,0.0,0.0,0.0,0.0,0.0,0.0,0.0,0.0,0.0,0.0,0.0,0.0,0.0,0.0,0.0,0.0,0.0,0.0,0.0,0.0,0.0,0.0,0.0,0.0,0.0,0.0,0.0,0.0,0.0,0.0,0.0,0.0,0.0,0.0,0.0,0.0,0.0,0.0,0.0,0.0,0.0,0.0,0.0,0.0,0.0,0.0,-2.391,-2.5573,-2.6364,-2.7016,-2.7434,-2.5486,-2.3758,-2.25,-2.0078,-1.8402,0.0,0.0,0.0,0.0,0.0,0.0,0.0,0.0,0.0,0.0,0.0,0.0,0.0,0.0,0.0,0.0,0.0,0.0,0.0,0.0,0.0,0.0,0.0,0.0,0.0,0.0,0.0,0.0,-1.542,-1.542,-1.542,0.0,0.0,0.0,0.0,0.0,0.0,0.0,0.0,0.0,0.0,-1.7686,-1.7837,-1.7935,0.0,0.0,-1.8032,-1.8101,-1.8775,-1.8093,-1.74,-1.7031,-1.6517,0.0,0.0,0.0,0.0,0.0,0.0,0.0,0.0,0.0,0.0,0.0,0.0,0.0,0.0,0.0,0.0,0.0,0.0,0.0,0.0,0.0,0.0,0.0,0.0,0.0,0.0,-2.3095,-2.3095,0.0,0.0,0.0,0.0,0.0,0.0,0.0,0.0,0.0,0.0,0.0,0.0,0.0,0.0,0.0,0.0,0.0,0.0,0.0,0.0,0.0,0.0,0.0,0.0,-2.4205,-2.5871,-2.6449,-2.6934,-2.7381,-2.5004,-2.308,-2.1728,-1.9418,-1.7818,0.0,0.0,0.0,0.0,0.0,0.0,0.0,0.0,0.0,0.0,0.0,0.0,0.0,0.0,0.0,0.0,0.0,0.0,0.0,0.0,0.0,0.0,0.0,0.0,0.0,0.0,0.0,0.0,-1.5693,-1.5557,-1.542,0.0,0.0,0.0,0.0,0.0,0.0,0.0,0.0,0.0,0.0,-1.8252,-1.8559,-1.8461,-1.8532,-1.8862,-1.8644,-1.8695,-1.9512,-1.8743,-1.7915,-1.7647,0.0,0.0,0.0,0.0,0.0,0.0,0.0,0.0,0.0,0.0,0.0,0.0,0.0,0.0,0.0,0.0,0.0,0.0,0.0,0.0,0.0,0.0,0.0,0.0,0.0,0.0,0.0,-2.3108,0.0,0.0,-2.3095,0.0,0.0,0.0,0.0,0.0,0.0,0.0,0.0,0.0,0.0,0.0,0.0,0.0,0.0,0.0,0.0,0.0,0.0,0.0,0.0,0.0,0.0,-2.4795,-2.6449,-2.7027,-2.6833,-2.5922,-2.4824,-2.3156,-2.0807,-1.9323,-1.8383,-1.7949,0.0,0.0,0.0,0.0,0.0,0.0,0.0,0.0,0.0,0.0,0.0,0.0,0.0,0.0,0.0,0.0,0.0,0.0,0.0,0.0,0.0,0.0,0.0,0.0,0.0,0.0,-1.6648,-1.6318,-1.5919,0.0,0.0,0.0,0.0,0.0,0.0,0.0,0.0,0.0,-1.8027,-1.9082,-1.9561,-1.8744,-1.9004,-1.8965,-1.8198,-1.8052,-1.7895,-1.7599,-1.7792,-1.7695,0.0,0.0,0.0,0.0,0.0,0.0,0.0,0.0,0.0,0.0,0.0,0.0,0.0,0.0,0.0,0.0,0.0,0.0,0.0,0.0,0.0,0.0,0.0,0.0,0.0,0.0,0.0,-2.4023,-2.3715,0.0,0.0,0.0,0.0,0.0,0.0,0.0,0.0,0.0,0.0,0.0,-2.4795,-2.5159,0.0,0.0,0.0,0.0,0.0,0.0,0.0,0.0,0.0,0.0,0.0,0.0,-2.536,-2.6954,-2.7544,-2.7841,-2.7801,-2.6176,-2.4454,-2.2686,-2.068,-1.8826,-1.7187,0.0,0.0,0.0,0.0,0.0,0.0,0.0,0.0,0.0,0.0,0.0,0.0,0.0,0.0,0.0,0.0,0.0,0.0,0.0,0.0,0.0,0.0,0.0,0.0,0.0,-1.7051,0.0,0.0,0.0,0.0,0.0,0.0,0.0,0.0,0.0,0.0,-1.7734,-1.832,-1.916,-1.9648,-1.9912,-1.9912,-1.9795,-1.96,0.0,0.0,0.0,0.0,0.0,0.0,0.0,0.0,0.0,0.0,0.0,0.0,0.0,0.0,-1.8364,-1.697,-1.6697,-1.6785,-1.7109,0.0,0.0,0.0,0.0,0.0,0.0,0.0,0.0,0.0,0.0,0.0,0.0,0.0,0.0,-2.472,-2.4544,-2.4356,0.0,0.0,0.0,0.0,0.0,0.0,0.0,0.0,-2.5473,-2.5887,-2.5946,-2.6323,-2.6298,-2.5933,-2.5749,-2.4908,0.0,0.0,0.0,0.0,0.0,0.0,0.0,0.0,-2.5724,-2.7002,-2.7921,-2.8263,-2.8016,-2.6448,-2.4782,-2.3096,-2.0969,-1.8964,-1.7217,-1.7009,-1.6885,0.0,0.0,0.0,0.0,0.0,0.0,0.0,0.0,0.0,0.0,0.0,0.0,0.0,0.0,0.0,0.0,0.0,0.0,0.0,0.0,0.0,0.0,0.0,-1.7432,0.0,0.0,0.0,0.0,0.0,0.0,0.0,0.0,0.0,-1.7993,-1.8398,-1.9033,-2.001,-2.0137,-2.0244,-2.0566,0.0,0.0,0.0,0.0,0.0,0.0,0.0,-1.9082,-1.8916,-1.9023,-1.917,-1.9287,-1.9531,-1.9862,-2.0098,0.0,0.0,-1.8286,-1.7939,-1.7935,-1.8408,-1.8286,-1.8174,-1.8584,-1.8555,-1.833,0.0,0.0,0.0,0.0,-2.4888,0.0,0.0,0.0,-2.4938,-2.5222,0.0,-2.5109,0.0,0.0,0.0,0.0,-2.413,-2.5159,0.0,0.0,-2.6311,-2.6575,-2.6587,-2.6637,-2.66,-2.66,-2.7077,-2.6703,-2.5561,-2.3514,-2.2656,0.0,0.0,0.0,0.0,0.0,-2.5984,-2.665,-2.8147,-2.8167,-2.6662,-2.5729,-2.418,-2.2014,-2.0262,-1.8932,-1.8066,-1.7637,-1.7227,-1.6765,-1.6755,0.0,0.0,0.0,0.0,0.0,0.0,0.0,0.0,0.0,0.0,0.0,0.0,0.0,0.0,0.0,0.0,0.0,0.0,0.0,0.0,-1.8008,0.0,0.0,0.0,0.0,0.0,0.0,0.0,0.0,0.0,-1.852,-1.8213,-1.9189,-2.0107,-2.0566,0.0,0.0,0.0,0.0,-1.998,-1.999,-1.998,-2.0127,-2.0546,-2.0918,-2.1045,-2.0674,0.0,0.0,-2.0713,-2.0644,-2.0654,-2.0674,-2.0713,-2.0664,-2.0674,-2.0166,-2.0,-2.0449,-1.9901,-1.9531,-1.9844,-1.9668,-1.9258,-2.7582,0.0,0.0,0.0,0.0,-2.6578,-2.6804,-2.7168,-2.7168,-2.6804,-2.6235,-2.6084,0.0,0.0,0.0,0.0,0.0,0.0,-2.6804,-2.6854,-2.7783,-2.8222,-2.8235,-2.8649,-2.8624,-2.8222,-2.7984,-2.7507,-2.6813,-2.5808,-2.4757,-2.3766,0.0,0.0,0.0,0.0,-2.7268,-2.821,-2.9089,-2.8919,-2.7671,-2.7038,-2.5199,-2.2053,-2.0526,-1.9336,-1.8451,-1.8305,-1.8042,-1.7666,-1.7613,0.0,0.0,0.0,0.0,0.0,0.0,0.0,0.0,0.0,0.0,0.0,0.0,0.0,0.0,0.0,0.0,0.0,0.0,0.0,-1.7998,-1.8008,-1.7935,0.0,0.0,0.0,0.0,0.0,0.0,0.0,0.0,0.0,-1.9853,-2.042,-2.0859,0.0,0.0,-2.1396,-2.1084,-2.1201,-2.1318,-2.1318,-2.1328,0.0,-2.1064,-2.1112,-2.1161,-2.1064,-2.1406,-2.165,-2.1564,-2.1514,-2.1602,-2.1885,-2.1953,-2.2051,-2.2266,-2.1279,-2.0615,-2.0898,-2.083,-2.082,-2.1191,-2.0986,-2.0498,-2.9679,-2.8335,-2.7517,-2.7293,-2.7607,-2.762,-2.7795,-2.8109,-2.8109,-2.7858,-2.7454,-2.7241,-2.6753,-2.6113,-2.5887,0.0,0.0,0.0,-2.772,-2.7959,-2.8574,-2.9001,-2.9251,-2.9616,-2.9616,-2.9264,-2.8925,-2.8486,-2.7934,-2.7607,-2.6716,-2.5335,0.0,-2.5737,-2.6311,-2.7168,-2.7934,-2.8562,-2.8969,-2.8569,-2.7481,-2.6089,-2.4295,-2.2062,-2.0797,-1.9932,-1.9424,-1.9072,-1.8666,-1.8247,-1.8262,-1.8149,0.0,0.0,0.0,0.0,0.0,0.0,0.0,0.0,0.0,0.0,0.0,-1.7321,-1.7607,0.0,0.0,0.0,-1.8008,-1.8086,-1.8198,-1.8217,0.0,0.0,0.0,0.0,0.0,0.0,0.0,-1.9813,-2.0595,-2.1124,-2.1103,-2.1611,-2.1882,-2.1717,-2.1826,-2.1846,-2.1707,0.0,-2.1943,-2.2109,-2.2139,-2.21,-2.196,-2.1951,-2.1941,-2.1951,-2.2197,-2.2373,-2.2383,-2.2393,-2.2471,-2.2685,-2.2721,-2.2799,-2.3052,-2.2139,-2.1475,-2.1843,-2.1678,-2.165,-2.2051,-2.1797,-2.1367,-3.1486,-3.1273,-2.9227,-2.8348,-2.831,-2.8348,-2.8348,-2.831,-2.831,-2.8524,-2.8913,-2.8386,-2.8147,-2.8084,-2.7656,0.0,-2.7507,-2.8047,-2.8612,-2.9088,-2.9076,-2.939,-2.9842,-2.9867,-2.9829,-2.9779,-2.9779,-2.9515,-2.8963,-2.895,-2.8473,-2.7494,-2.7014,-2.6977,-2.7356,-2.7896,-2.8185,-2.826,-2.8268,-2.7695,-2.6513,-2.3875,-2.2314,-2.1885,-2.1104,-2.0625,-2.0527,-1.9764,-1.9092,-1.8627,-1.8578,-1.8373,-1.8037,0.0,0.0,0.0,0.0,0.0,0.0,0.0,0.0,0.0,0.0,0.0,0.0,0.0,0.0,-1.8057,-1.8061,0.0,-1.8617,-1.8656,0.0,0.0,0.0,-1.9541,-1.9922,-2.0029,-2.0225,-2.0664,0.0,0.0,-2.1934,-2.2637,-2.2945,-2.2574,-2.2227,-2.2109,-2.2471,-2.2217,-2.2129,-2.251,-2.2526,-2.2695,-2.2906,-2.2984,-2.2974,-2.2974,-2.3101,-2.3052,-2.3042,-2.3052,-2.3081,-2.3071,-2.3091,-2.3091,-2.3091,-2.2773,-2.2685,-2.2964,-2.2432,-2.1992,-2.2295,-2.206,-2.1641,-3.2416,-3.1938,-3.0997,-3.0382,-3.0068,-3.0444,-3.0382,-3.003,-2.9979,-2.9854,-2.9553,-2.8988,-2.8499,-2.8122,-2.8411,-2.8775,-2.9214,-2.9767,-3.0306,-3.0796,-3.0809,-3.067,-3.0419,-3.0419,-3.0193,-2.9804,-2.9779,-2.9729,-2.9591,-2.9591,-2.9453,-2.9202,-2.9063,-2.8637,-2.7959,-2.8448,-2.8913,-2.9402,-2.9397,-2.845,-2.6513,-2.3875,-2.2314,-2.1894,-2.1367,-2.0762,-2.0098,-1.957,-1.9082,-1.8617,-1.8295,-1.8105,-1.8018,-1.8008,0.0,0.0,0.0,0.0,0.0,0.0,0.0,0.0,0.0,-1.8315,-1.8027,0.0,-1.8451,0.0,-1.8789,-1.9023,-1.9121,-1.9141,0.0,0.0,-1.9911,-2.0341,-2.0439,-2.1016,-2.1455,-2.1562,-2.2041,-2.2363,-2.2363,-2.2769,-2.3062,-2.2955,-2.2867,-2.2764,-2.2559,-2.2682,-2.2828,-2.2906,-2.2925,-2.2984,-2.3071,-2.3101,-2.3101,-2.3101,-2.3101,-2.3101,-2.3101,-2.3101,-2.3101,-2.3101,-2.3101,-2.3101,-2.3101,-2.3013,-2.2974,-2.3023,-2.2471,-2.1904,-2.2002,-2.1709,-2.1377,-3.2893,-3.2566,-3.2265,-3.1825,-3.1336,-3.1373,-3.1235,-3.0972,-3.0959,-3.0783,-3.0482,-3.0168,-2.9854,-2.9603,-2.9892,-3.0193,-3.052,-3.0821,-3.1122,-3.1373,-3.1386,-3.1235,-3.0959,-3.0959,-3.0796,-3.0507,-3.0507,-3.0507,-3.0507,-3.0507,-3.0507,-3.0507,-3.0495,-3.0068,-2.9264,-2.9277,-2.9591,-3.0143,-2.8965,-2.7261,-2.5052,-2.3536,-2.2685,-2.2432,-2.1619,-2.0966,-2.0479,-1.9717,-1.917,-1.8945,-1.8701,-1.8496,-1.8301,-1.8256,-1.8256,0.0,0.0,0.0,0.0,0.0,0.0,0.0,0.0,0.0,0.0,0.0,-1.8926,-1.889,-1.915,-1.948,-1.9862,-1.9891,-2.001,-2.041,-2.0909,-2.123,-2.1406,-2.1865,-2.2236,-2.2422,-2.2656,-2.275,-2.275,-2.2945,-2.3101,-2.3101,-2.3101,-2.3013,-2.2818,-2.2955,-2.3101,-2.3101,-2.3101,-2.3101,-2.3101,-2.3101,-2.3101,-2.3101,-2.3101,-2.3101,-2.3101,-2.3101,-2.3101,-2.3101,-2.3101,-2.3101,-2.3091,-2.2935,-2.2769,-2.2539,-2.2051,-2.1787,-2.208,-2.1931,-2.1728,-3.3319,-3.3181,-3.33,-3.3006,-3.2491,-3.2014,-3.17,-3.1486,-3.1486,-3.1461,-3.1386,-3.1386,-3.1386,-3.1386,-3.1386,-3.1436,-3.1499,-3.1486,-3.1537,-3.1599,-3.1612,-3.1562,-3.1499,-3.1499,-3.1461,-3.1399,-3.1386,-3.1386,-3.1386,-3.1386,-3.1386,-3.1386,-3.1386,-3.1198,-3.0821,-3.0111,-2.9945,-3.0343,-2.769,-2.5316,-2.3377,-2.3129,-2.2984,-2.2896,-2.1804,-2.1171,-2.1133,-2.0,-1.9365,-1.9365,-1.9307,-1.9111,-1.8715,-1.8685,-1.8685,0.0,-1.8685,0.0,0.0,0.0,0.0,0.0,0.0,0.0,0.0,-1.9336,-1.9365,-1.9375,-1.9451,-1.9822,-2.0615,-2.0683,-2.1016,-2.1777,-2.1934,-2.2109,-2.2461,-2.2559,-2.2691,-2.3052,-2.3101,-2.3101,-2.3081,-2.3101,-2.3101,-2.3101,-2.3101,-2.3081,-2.3081,-2.3081,-2.3101,-2.3101,-2.3101,-2.3101,-2.3101,-2.3101,-2.3101,-2.3101,-2.3101,-2.3101,-2.3101,-2.3101,-2.3101,-2.3101,-2.3101,-2.3101,-2.3101,-2.2803,-2.2451,-2.2217,-2.1826,-2.1641,-2.2002,-2.21,-2.2012,-3.4562,-3.3784,-3.4223,-3.4336,-3.4191,-3.4091,-3.3319,-3.2064,-3.2051,-3.18,-3.1386,-3.1386,-3.1386,-3.1386,-3.1386,-3.1637,-3.2051,-3.2051,-3.2315,-3.2767,-3.2797,-3.2503,-3.2064,-3.2051,-3.1825,-3.1411,-3.1386,-3.1386,-3.1386,-3.1386,-3.1386,-3.1386,-3.1386,-3.1562,-3.1768,0.0,0.0,0.0,-2.6529,-2.4914,-2.4447,-2.3245,-2.2461,-2.2119,-2.1502,0.0,-2.0732,-2.0107,-1.9795,-1.9785,-1.9473,0.0,0.0,0.0,0.0,0.0,0.0,0.0,0.0,0.0,0.0,0.0,-2.0361,-2.0067,-1.9375,-1.96,-1.9795,-1.9805,-2.0117,-2.0537,-2.1045,-2.1113,-2.1309,-2.1826,-2.2197,-2.2432,-2.2519,-2.2769,-2.3013,-2.3081,-2.3101,-2.3101,-2.3101,-2.3101,-2.3101,-2.3101,-2.3101,-2.3101,-2.3101,-2.3101,-2.3101,-2.3101,-2.3101,-2.3101,-2.3101,-2.3101,-2.3101,-2.3101,-2.3101,-2.3101,-2.3101,-2.3101,-2.3091,-2.3081,-2.3101,-2.3081,-2.3081,-2.276,-2.2578,-2.2852,-2.2539,-2.2002,-2.1133,-2.0987,-2.0928,-3.4605,-3.3972,-3.4442,-3.468,0.0,-3.468,-3.4085,-3.3043,-3.3043,-3.2742,-3.2227,-3.2227,-3.2227,-3.2215,-3.2227,-3.2365,-3.2641,-3.2641,-3.2792,-3.3124,-3.3124,-3.2918,-3.2641,-3.2641,-3.2503,-3.2227,-3.2227,-3.2227,-3.2269,-3.2227,-3.2077,-3.1813,-3.1788,-3.1498,-3.0875,-2.8676,-2.7393,-2.7189,-2.5615,-2.4542,-2.3963,-2.3179,-2.2617,-2.2207,-2.1572,0.0,0.0,0.0,0.0,0.0,0.0,0.0,0.0,-1.96,-1.959,-1.96,-1.96,-1.9785,-2.0195,-2.0234,-2.0322,-2.0595,-2.0771,-2.0615,-1.9999,-2.0322,-2.0527,-2.0537,-2.0967,-2.1309,-2.1533,-2.1738,-2.1963,-2.2187,-2.2568,-2.2779,-2.2799,-2.2955,-2.3091,-2.3101,-2.3101,-2.3101,-2.3101,-2.3101,-2.3101,-2.3101,-2.3101,-2.3101,-2.3101,-2.3101,-2.3101,-2.3101,-2.3101,-2.3101,-2.3101,-2.3101,-2.3101,-2.3101,-2.3101,-2.3101,-2.3101,-2.3101,-2.3033,-2.2847,-2.2779,-2.2832,-2.2812,-2.2646,-2.2578,-2.2725,-2.249,-2.1953,-2.1094,-2.1064,-2.1182,-3.4688,-3.4236,-3.4688,-3.4818,-3.4818,-3.4718,-3.4412,-3.3897,-3.3796,0.0,0.0,-3.3124,-3.3124,-3.3124,-3.3124,-3.3124,-3.3124,-3.3124,-3.3124,-3.3124,-3.3124,-3.3124,-3.3124,-3.3124,-3.3124,-3.3124,-3.3124,-3.3061,-3.293,-3.296,-3.2641,-3.2114,-3.2064,-3.1134,-2.9261,-2.6758,-2.5326,-2.5096,-2.4695,-2.4049,-2.3135,-2.3023,-2.2818,-2.2519,-2.1639,-2.1064,-2.0732,-1.9932,-1.9668,-2.0,-2.0029,-2.0029,-2.0029,-2.0029,-2.0039,-2.0029,-2.0029,-2.0225,-2.0644,-2.0644,-2.0644,-2.0713,-2.1025,-2.1044,-2.0713,-2.1094,-2.1307,-2.1307,-2.167,-2.1904,-2.1992,-2.2305,-2.2539,-2.2607,-2.2886,-2.3091,-2.3091,-2.3101,-2.3101,-2.3101,-2.3101,-2.3101,-2.3101,-2.3101,-2.3101,-2.3101,-2.3101,-2.3101,-2.3101,-2.3101,-2.3101,-2.3101,-2.3101,-2.3101,-2.3101,-2.3101,-2.3101,-2.3101,-2.3033,-2.2984,-2.2974,-2.2925,-2.2769,-2.2555,-2.2461,-2.2451,-2.249,-2.2353,-2.2363,-2.248,-2.2178,-2.1836,-2.1629,-2.1797,-2.1768,-3.5793,-3.527,-3.5357,-3.5382,-3.5357,-3.4868,-3.4424,-3.3872,-3.3438,-3.3199,-3.3124,-3.3124,-3.3124,-3.3124,-3.3124,-3.3124,-3.3124,-3.3124,-3.3124,-3.3124,-3.3124,-3.3124,-3.3124,-3.3124,-3.3124,-3.3124,-3.3124,-3.283,-3.2378,-3.234,-3.2051,-3.1574,-3.1512,-3.0379,-2.8187,-2.6444,-2.5063,-2.4038,-2.357,-2.3256,-2.3091,-2.2783,-2.2535,-2.248,-2.1648,-2.1171,-2.1093,-2.0644,-2.0449,-2.0507,-2.0517,-2.0517,-2.0517,-2.0507,-2.0517,-2.0517,-2.0469,-2.0674,-2.1094,-2.0791,-2.0732,-2.1064,-2.1151,-2.1171,-2.1122,-2.1543,-2.1787,-2.1797,-2.1885,-2.2041,-2.2373,-2.248,-2.2623,-2.2925,-2.3052,-2.3101,-2.3101,-2.3101,-2.3101,-2.3101,-2.3101,-2.3101,-2.3101,-2.3101,-2.3101,-2.3101,-2.3101,-2.3101,-2.3101,-2.3101,-2.3101,-2.3101,-2.3101,-2.3101,-2.3091,-2.3101,-2.3071,-2.3101,-2.2799,-2.2623,-2.2662,-2.2402,-2.2256,-2.2451,-2.2197,-2.2129,-2.2363,-2.1843,-2.1885,-2.2314,-2.2197,-2.207,-2.2496,-2.2529,-2.2031,-3.5868,-3.5132,-3.5382,-3.5332,-3.5019,-3.4512,-3.4148,-3.3859,-3.3319,-3.3124,-3.3124,-3.3124,-3.3124,-3.3124,-3.3124,-3.3124,-3.3124,-3.3124,-3.3124,-3.3124,-3.3124,-3.3124,-3.3124,-3.3124,-3.3124,-3.3124,-3.3124,-3.278,-3.2252,-3.2202,-3.1788,-3.0941,-2.9716,-2.8417,-2.7113,-2.5469,-2.4221,-2.3447,-2.3198,-2.3101,-2.3101,-2.2949,-2.2701,-2.2519,-2.2119,-2.1775,-2.1592,-2.1162,-2.0928,-2.0928,-2.0693,-2.0615,-2.0615,-2.0615,-2.0615,-2.0615,-2.0615,-2.0762,-2.1171,-2.1269,-2.1269,-2.121,-2.1629,-2.1934,-2.1892,-2.2109,-2.2217,-2.2236,-2.2422,-2.2539,-2.2539,-2.2672,-2.2789,-2.276,-2.2945,-2.3091,-2.3101,-2.3101,-2.3101,-2.3101,-2.3101,-2.3101,-2.3101,-2.3101,-2.3101,-2.3101,-2.3101,-2.3091,-2.3081,-2.3081,-2.3091,-2.3081,-2.2916,-2.2886,-2.3023,-2.2886,-2.2867,-2.3052,-2.2793,-2.2604,-2.2734,-2.2353,-2.2021,-2.21,-2.1826,-2.1641,-2.1785,-2.1697,-2.1894,-2.2275,-2.2393,-2.2451,-2.2676,-2.2471,-2.1894,-3.5755,-3.514,-3.5232,-3.4994,-3.4455,-3.3947,-3.3709,-3.3671,-3.3244,-3.3124,-3.3124,-3.3124,-3.3124,-3.3124,-3.3124,-3.3124,-3.3124,-3.3124,-3.3124,-3.3124,-3.3124,-3.3018,-3.2948,-3.3006,-3.3061,-3.2918,-3.3006,-3.2717,-3.2102,-3.2039,-3.1351,-2.9936,-2.7743,-2.6422,-2.6069,-2.4492,-2.3477,-2.311,-2.3101,-2.3101,-2.3101,-2.3101,-2.2945,-2.2685,-2.2559,-2.2363,-2.2031,-2.1611,-2.1337,-2.1317,-2.0957,-2.0801,-2.0889,-2.0771,-2.0801,-2.0889,-2.0899,-2.1016,-2.1357,-2.1787,-2.1885,-2.1522,-2.2129,-2.2549,-2.2604,-2.2646,-2.2656,-2.2652,-2.2886,-2.2945,-2.273,-2.2877,-2.2974,-2.2715,-2.2896,-2.3091,-2.3101,-2.3101,-2.3101,-2.3101,-2.3101,-2.3101,-2.3101,-2.3101,-2.3052,-2.2964,-2.2955,-2.2935,-2.2847,-2.2818,-2.2808,-2.2822,-2.2604,-2.2646,-2.2877,-2.2711,-2.2637,-2.2861,-2.2578,-2.249,-2.2559,-2.2119,-2.1797,-2.1758,-2.1435,-2.1221,-2.12,-2.1367,-2.1728,-2.2158,-2.2285,-2.2363,-2.249,-2.209,-2.1797,-3.5843,-3.6078,-3.5215,-3.4487,-3.396,-3.342,-3.3194,-3.3169,-3.3093,-3.3124,-3.3124,-3.3124,-3.3124,-3.3124,-3.3124,-3.3124,-3.3124,-3.3124,-3.3124,-3.3124,-3.3124,-3.2792,-3.2428,-3.2842,-3.2792,-3.2453,-3.2842,-3.2528,-3.148,-3.1367,-3.0346,-2.8314,-2.6091,-2.5062,-2.4851,-2.3764,-2.314,-2.3101,-2.3101,-2.3101,-2.3101,-2.3101,-2.3071,-2.3042,-2.2662,-2.25,-2.2451,-2.2041,-2.1826,-2.1797,-2.1406,-2.1357,-2.165,-2.1387,-2.1338,-2.1709,-2.1748,-2.1797,-2.1846,-2.2217,-2.2432,-2.236,-2.2451,-2.2685,-2.2974,-2.3023,-2.3033,-2.3033,-2.3062,-2.3071,-2.3042,-2.3071,-2.3071,-2.3003,-2.3052,-2.3101,-2.3101,-2.3101,-2.3101,-2.3101,-2.3101,-2.3101,-2.3101,-2.3101,-2.2955,-2.2701,-2.2666,-2.2549,-2.2266,-2.2158,-2.2129,-2.2129,-2.2246,-2.2461,-2.2549,-2.2549,-2.2344,-2.2119,-2.2002,-2.2021,-2.1934,-2.1465,-2.0908,-2.1572,-2.1231,-2.085,-2.0977,-2.1006,-2.1055,-2.1738,-2.1992,-2.206,-2.2295,-2.1924,-2.1631,-3.5956,-3.583,-3.5345,-3.4655,-3.3922,-3.3658,-3.3382,-3.3136,-3.3124,-3.3124,-3.3124,-3.3124,-3.3124,-3.3124,-3.3124,-3.3124,-3.3124,-3.3124,-3.3124,-3.3124,-3.3124,-3.2943,-3.2767,-3.2943,-3.2943,-3.2754,-3.3011,-3.2182,-3.0504,-2.9141,-2.8023,-2.7121,-2.5535,-2.4798,-2.4702,-2.3671,-2.3101,-2.3101,-2.3101,-2.3101,-2.3101,-2.3101,-2.3101,-2.3081,-2.2935,-2.2838,-2.2799,-2.248,-2.2256,-2.2227,-2.1855,-2.1699,-2.1875,-2.1719,-2.1689,-2.1885,-2.2119,-2.2148,-2.1946,-2.251,-2.273,-2.2529,-2.2744,-2.2925,-2.3071,-2.3101,-2.3101,-2.3101,-2.3101,-2.3101,-2.3101,-2.3101,-2.3101,-2.3101,-2.3101,-2.3101,-2.3101,-2.3101,-2.3101,-2.3101,-2.3101,-2.3101,-2.3101,-2.3101,-2.3023,-2.2828,-2.2695,-2.2422,-2.2256,-2.2051,-2.1894,-2.1875,-2.1846,-2.1834,-2.2051,-2.1894,-2.1807,-2.1816,-2.166,-2.1533,-2.1699,-2.1182,-2.0801,-2.1416,-2.0947,-2.0683,-2.0771,-2.0996,-2.1133,-2.1543,-2.1777,-2.1953,-2.2119,-2.1865,-2.1855,-3.6006,-3.5742,-3.5408,-3.4718,-3.3909,-3.3734,-3.3445,-3.3149,-3.3124,-3.3124,-3.3124,-3.3124,-3.3124,-3.3124,-3.3124,-3.3124,-3.3124,-3.3124,-3.298,-3.2867,-3.2842,-3.2679,-3.2441,-3.2566,-3.2646,-3.2561,-3.2281,-3.1095,-2.9061,-2.7065,-2.6016,-2.588,-2.4882,-2.4339,-2.4253,-2.3474,-2.3101,-2.3101,-2.3101,-2.3101,-2.3101,-2.3101,-2.3101,-2.3101,-2.3101,-2.3101,-2.3091,-2.2799,-2.2643,-2.2623,-2.2285,-2.2109,-2.2217,-2.2129,-2.2109,-2.2236,-2.251,-2.2559,-2.2246,-2.275,-2.2964,-2.2754,-2.2978,-2.3101,-2.3101,-2.3101,-2.3101,-2.3101,-2.3101,-2.3101,-2.3101,-2.3101,-2.3101,-2.3101,-2.3101,-2.3101,-2.3101,-2.3101,-2.3101,-2.3101,-2.3101,-2.3101,-2.3101,-2.3091,-2.3052,-2.2867,-2.2643,-2.2441,-2.2344,-2.207,-2.1936,-2.1885,-2.1611,-2.1533,-2.166,-2.1514,-2.1416,-2.1377,-2.1279,-2.1337,-2.1621,-2.0986,-2.0723,-2.1191,-2.0791,-2.0654,-2.0693,-2.0898,-2.1083,-2.122,-2.1475,-2.1689,-2.1709,-2.1611,-2.1514,-3.5868,-3.6191,-3.5203,-3.4462,-3.3872,-3.3382,-3.3119,-3.3124,-3.3124,-3.3124,-3.3124,-3.3124,-3.3124,-3.3124,-3.3124,-3.3124,-3.3124,-3.3124,-3.2817,-3.239,-3.2303,-3.1725,-3.0796,-3.1223,-3.1499,-3.1406,-3.0645,-2.9263,-2.7437,-2.5721,-2.4872,-2.4787,-2.38,-2.3222,-2.3266,-2.3178,-2.3101,-2.3101,-2.3101,-2.3101,-2.3101,-2.3101,-2.3101,-2.3101,-2.3101,-2.3101,-2.3091,-2.3071,-2.3062,-2.3062,-2.2705,-2.2613,-2.2925,-2.2695,-2.2646,-2.2955,-2.3033,-2.3042,-2.2994,-2.3052,-2.3071,-2.3052,-2.3062,-2.3101,-2.3101,-2.3101,-2.3101,-2.3101,-2.3101,-2.3101,-2.3101,-2.3101,-2.3101,-2.3101,-2.3101,-2.3101,-2.3101,-2.3101,-2.3101,-2.3101,-2.3101,-2.3101,-2.3101,-2.3101,-2.2935,-2.2682,-2.2506,-2.2412,-2.2119,-2.1943,-2.1936,-2.1936,-2.1826,-2.1728,-2.1337,-2.1337,-2.1162,-2.1045,-2.1181,-2.1181,-2.1084,-2.0967,-2.0996,-2.0967,-2.0781,-2.0644,-2.0625,-2.0664,-2.085,-2.0996,-2.1083,-2.122,-2.126,-2.0898,-2.0869,-3.6169,-3.6304,-3.5177,-3.4587,-3.4374,-3.3834,-3.3407,-3.3136,-3.3124,-3.3124,-3.3124,-3.3124,-3.3124,-3.3124,-3.3124,-3.3124,-3.3124,-3.3124,-3.2968,-3.2717,-3.239,-3.2001,-3.1675,-3.1499,-3.1005,-3.0372,-2.9984,-2.8538,-2.6238,-2.4522,-2.3724,-2.3671,-2.3353,-2.3101,-2.3101,-2.3101,-2.3101,-2.3101,-2.3101,-2.3101,-2.3101,-2.3101,-2.3101,-2.3101,-2.3101,-2.3101,-2.3101,-2.3101,-2.3101,-2.3101,-2.2945,-2.2935,-2.3062,-2.2955,-2.2925,-2.3071,-2.3101,-2.3101,-2.3101,-2.3101,-2.3101,-2.3101,-2.3101,-2.3101,-2.3101,-2.3101,-2.3101,-2.3101,-2.3101,-2.3101,-2.3101,-2.3101,-2.3101,-2.3101,-2.3101,-2.3101,-2.3101,-2.3101,-2.3101,-2.3101,-2.3101,-2.3101,-2.3101,-2.3101,-2.3033,-2.2877,-2.2652,-2.248,-2.2305,-2.208,-2.1943,-2.1946,-2.1885,-2.1836,-2.1709,-2.166,-2.1543,-2.123,-2.1103,-2.1045,-2.0918,-2.083,-2.086,-2.085,-2.0723,-2.0644,-2.0615,-2.0625,-2.0732,-2.0742,-2.0869,-2.0918,-2.081,-2.0742,-2.0664,-3.5881,-3.5466,-3.4776,-3.4349,-3.4148,-3.3796,-3.342,-3.3136,-3.3124,-3.3124,-3.3124,-3.3124,-3.3124,-3.3124,-3.3124,-3.3124,-3.3124,-3.3124,-3.298,-3.278,-3.239,-3.2114,-3.1901,-3.1562,-3.084,-2.9726,-2.88,-2.7124,-2.4933,-2.3656,-2.3144,-2.3101,-2.3101,-2.3101,-2.3101,-2.3101,-2.3101,-2.3101,-2.3101,-2.3101,-2.3101,-2.3101,-2.3101,-2.3101,-2.3101,-2.3101,-2.3101,-2.3101,-2.3101,-2.3101,-2.3101,-2.3101,-2.3101,-2.3101,-2.3101,-2.3101,-2.3101,-2.3101,-2.3101,-2.3101,-2.3101,-2.3101,-2.3101,-2.3101,-2.3101,-2.3101,-2.3101,-2.3101,-2.3101,-2.3101,-2.3101,-2.3101,-2.3101,-2.3101,-2.3101,-2.3101,-2.3101,-2.3101,-2.3101,-2.3101,-2.3101,-2.3101,-2.3101,-2.3101,-2.3091,-2.3101,-2.2828,-2.2682,-2.2666,-2.25,-2.2295,-2.2285,-2.2344,-2.2363,-2.2344,-2.2363,-2.2021,-2.1689,-2.1465,-2.123,-2.1016,-2.0918,-2.0811,-2.0752,-2.0684,-2.0644,-2.0615,-2.0615,-2.0615,-2.0615,-2.0693,-2.0742,-2.0703,-2.0693,-2.0723,-3.4893,-3.4123,-3.3909,-3.3646,-3.3319,-3.3237,-3.3149,-3.3124,-3.3124,-3.3124,-3.3124,-3.3124,-3.3124,-3.3124,-3.3124,-3.3124,-3.3124,-3.3124,-3.283,-3.239,-3.2252,-3.1964,-3.1549,-3.1449,-3.0696,-2.9413,-2.6974,-2.4921,-2.3437,-2.3276,-2.3169,-2.313,-2.311,-2.3101,-2.3101,-2.3101,-2.3101,-2.3101,-2.3101,-2.3101,-2.3101,-2.3101,-2.3101,-2.3101,-2.3101,-2.3101,-2.3101,-2.3101,-2.3101,-2.3101,-2.3101,-2.3101,-2.3101,-2.3101,-2.3101,-2.3101,-2.3101,-2.3101,-2.3101,-2.3101,-2.3101,-2.3101,-2.3101,-2.3101,-2.3101,-2.3101,-2.3101,-2.3101,-2.3101,-2.3101,-2.3101,-2.3101,-2.3101,-2.3101,-2.3101,-2.3101,-2.3101,-2.3101,-2.3101,-2.3101,-2.3101,-2.3101,-2.3101,-2.3101,-2.3101,-2.3091,-2.3052,-2.3013,-2.2994,-2.2925,-2.3033,-2.3023,-2.2886,-2.2779,-2.2935,-2.3023,-2.2545,-2.2158,-2.1982,-2.1768,-2.1562,-2.1396,-2.126,-2.1191,-2.0889,-2.081,-2.0752,-2.0732,-2.0625,-2.0615,-2.0654,-2.0723,-2.085,-2.0937,-2.0996,-3.4776,-3.4387,-3.3633,-3.347,-3.3558,-3.3244,-3.3124,-3.3124,-3.3124,-3.3124,-3.3124,-3.3124,-3.3124,-3.3124,-3.3124,-3.3124,-3.3124,-3.3124,-3.2968,-3.2767,-3.2403,-3.2139,-3.1926,-3.1574,-3.0248,-2.8037,-2.5855,-2.4381,-2.3722,-2.3574,-2.3584,-2.3545,-2.3237,-2.3101,-2.3101,-2.3101,-2.3101,-2.3101,-2.3101,-2.3101,-2.3101,-2.3101,-2.3101,-2.3101,-2.3101,-2.3101,-2.3101,-2.3101,-2.3101,-2.3101,-2.3101,-2.3101,-2.3101,-2.3101,-2.3101,-2.3101,-2.3101,-2.3101,-2.3101,-2.3101,-2.3101,-2.3101,-2.3101,-2.3101,-2.3101,-2.3101,-2.3101,-2.3101,-2.3101,-2.3101,-2.3101,-2.3101,-2.3101,-2.3101,-2.3101,-2.3101,-2.3101,-2.3101,-2.3101,-2.3101,-2.3101,-2.3101,-2.3101,-2.3101,-2.3101,-2.3101,-2.3101,-2.3101,-2.3101,-2.3101,-2.3091,-2.3091,-2.3101,-2.3101,-2.3101,-2.3101,-2.2857,-2.2545,-2.2432,-2.2275,-2.208,-2.1865,-2.1728,-2.1523,-2.1221,-2.1055,-2.0996,-2.0908,-2.085,-2.0713,-2.0752,-2.0898,-2.1093,-2.122,-2.1309,-3.4555,-3.4336,-3.3671,-3.3571,-3.3859,-3.352,-3.3244,-3.3149,-3.3124,-3.3124,-3.3124,-3.3124,-3.3124,-3.3124,-3.3124,-3.3124,-3.3124,-3.3124,-3.3124,-3.3086,-3.2729,-3.2528,-3.2272,-3.1004,-2.9562,-2.7516,-2.5255,-2.3955,-2.3584,-2.3701,-2.3711,-2.3525,-2.3428,-2.3247,-2.312,-2.3101,-2.3101,-2.3101,-2.3101,-2.3101,-2.3101,-2.3101,-2.3101,-2.3101,-2.3101,-2.3101,-2.3101,-2.3101,-2.3101,-2.3101,-2.3101,-2.3101,-2.3101,-2.3101,-2.3101,-2.3101,-2.3101,-2.3101,-2.3101,-2.3101,-2.3101,-2.3101,-2.3101,-2.3101,-2.3101,-2.3101,-2.3101,-2.3101,-2.3101,-2.3101,-2.3101,-2.3101,-2.3101,-2.3101,-2.3101,-2.3101,-2.3101,-2.3101,-2.3101,-2.3101,-2.3101,-2.3101,-2.3101,-2.3101,-2.3101,-2.3101,-2.3101,-2.3101,-2.3101,-2.3101,-2.3101,-2.3101,-2.3101,-2.3101,-2.3101,-2.3101,-2.3101,-2.2955,-2.2818,-2.2682,-2.2559,-2.2285,-2.21,-2.1836,-2.1553,-2.1504,-2.1445,-2.1348,-2.128,-2.1114,-2.1036,-2.1377,-2.1699,-2.1582,-2.1641,-3.4449,-3.3972,-3.3909,-3.3872,-3.3884,-3.3796,-3.3483,-3.3162,-3.3124,-3.3124,-3.3124,-3.3124,-3.3124,-3.3124,-3.3124,-3.3124,-3.3124,-3.3124,-3.3124,-3.3124,-3.3006,-3.2938,-3.2383,-3.0294,-2.873,-2.7491,-2.521,-2.38,-2.3359,-2.3633,-2.3603,-2.3374,-2.3574,-2.3564,-2.3227,-2.313,-2.3101,-2.3101,-2.3101,-2.3101,-2.3101,-2.3101,-2.3101,-2.3101,-2.3101,-2.3101,-2.3101,-2.3101,-2.3101,-2.3101,-2.3101,-2.3101,-2.3101,-2.3101,-2.3101,-2.3101,-2.3101,-2.3101,-2.3101,-2.3101,-2.3101,-2.3101,-2.3101,-2.3101,-2.3101,-2.3101,-2.3101,-2.3101,-2.3101,-2.3101,-2.3101,-2.3101,-2.3101,-2.3101,-2.3101,-2.3101,-2.3101,-2.3101,-2.3101,-2.3101,-2.3101,-2.3101,-2.3101,-2.3101,-2.3101,-2.3101,-2.3101,-2.3101,-2.3101,-2.3101,-2.3101,-2.3101,-2.3101,-2.3101,-2.3101,-2.3101,-2.3101,-2.3071,-2.2994,-2.2935,-2.2857,-2.2676,-2.2519,-2.2246,-2.1973,-2.1943,-2.1855,-2.1738,-2.167,-2.1613,-2.1728,-2.209,-2.2129,-2.1992,-2.207,-3.4956,-3.4474,-3.4073,-3.3909,-3.3834,-3.3483,-3.3275,-3.3136,-3.3124,-3.3124,-3.3124,-3.3124,-3.3124,-3.3124,-3.3124,-3.3124,-3.3124,-3.3124,-3.3124,-3.3124,-3.3124,-3.2525,-3.1589,-3.0043,-2.8353,-2.6792,-2.5417,-2.4336,-2.3672,-2.3779,-2.3906,-2.4053,-2.3549,-2.3477,-2.3545,-2.3247,-2.311,-2.3101,-2.3101,-2.3101,-2.3101,-2.3101,-2.3101,-2.3101,-2.3101,-2.3101,-2.3101,-2.3101,-2.3101,-2.3101,-2.3101,-2.3101,-2.3101,-2.3101,-2.3101,-2.3101,-2.3101,-2.3101,-2.3101,-2.3101,-2.3101,-2.3101,-2.3101,-2.3101,-2.3101,-2.3101,-2.3101,-2.3101,-2.3101,-2.3101,-2.3101,-2.3101,-2.3101,-2.3101,-2.3101,-2.3101,-2.3101,-2.3101,-2.3101,-2.3101,-2.3101,-2.3101,-2.3101,-2.3101,-2.3101,-2.3101,-2.3101,-2.3101,-2.3101,-2.3101,-2.3101,-2.3101,-2.3101,-2.3101,-2.3101,-2.3101,-2.3101,-2.3101,-2.3071,-2.3052,-2.3013,-2.2935,-2.2886,-2.2799,-2.248,-2.2353,-2.2217,-2.209,-2.2051,-2.208,-2.208,-2.2236,-2.2383,-2.2363,-2.2496,-3.4618,-3.4361,-3.4035,-3.3909,-3.3859,-3.3558,-3.3294,-3.3149,-3.3124,-3.3124,-3.3124,-3.3124,-3.3124,-3.3124,-3.3124,-3.3124,-3.3124,-3.3124,-3.3124,-3.2982,-3.2513,-3.1865,-3.0944,-2.9533,-2.7863,-2.6617,-2.5578,-2.4751,-2.4199,-2.4219,-2.4375,-2.4307,-2.3881,-2.374,-2.3721,-2.3369,-2.3101,-2.3101,-2.3101,-2.3101,-2.3101,-2.3101,-2.3101,-2.3101,-2.3101,-2.3101,-2.3101,-2.3101,-2.3101,-2.3101,-2.3101,-2.3101,-2.3101,-2.3101,-2.3101,-2.3101,-2.3101,-2.3101,-2.3101,-2.3101,-2.3101,-2.3101,-2.3101,-2.3101,-2.3101,-2.3101,-2.3101,-2.3101,-2.3101,-2.3101,-2.3101,-2.3101,-2.3101,-2.3101,-2.3101,-2.3101,-2.3101,-2.3101,-2.3101,-2.3101,-2.3101,-2.3101,-2.3101,-2.3101,-2.3101,-2.3101,-2.3101,-2.3101,-2.3101,-2.3101,-2.3101,-2.3101,-2.3101,-2.3101,-2.3101,-2.3101,-2.3101,-2.3101,-2.3101,-2.3101,-2.3101,-2.3101,-2.3071,-2.3003,-2.2828,-2.2734,-2.2598,-2.2529,-2.2607,-2.2568,-2.2432,-2.2441,-2.2646,-2.2685,-2.2838,-3.3997,-3.3985,-3.3935,-3.3909,-3.3897,-3.3822,-3.3458,-3.3187,-3.3124,-3.3124,-3.3124,-3.3124,-3.3124,-3.3124,-3.3124,-3.3124,-3.3081,-3.281,-3.2612,-3.2108,-3.138,-3.0541,-3.0226,-2.868,-2.7342,-2.6424,-2.5511,-2.4879,-2.4502,-2.4736,-2.4775,-2.4551,-2.4424,-2.4258,-2.4004,-2.3525,-2.3188,-2.3242,-2.313,-2.3101,-2.3101,-2.3101,-2.3101,-2.3101,-2.3101,-2.3101,-2.3101,-2.3101,-2.3101,-2.3101,-2.3101,-2.3101,-2.3101,-2.3101,-2.3101,-2.3101,-2.3101,-2.3101,-2.3101,-2.3101,-2.3101,-2.3101,-2.3101,-2.3101,-2.3101,-2.3101,-2.3101,-2.3101,-2.3101,-2.3101,-2.3101,-2.3101,-2.3101,-2.3101,-2.3101,-2.3101,-2.3101,-2.3101,-2.3101,-2.3101,-2.3101,-2.3101,-2.3101,-2.3101,-2.3101,-2.3101,-2.3101,-2.3101,-2.3101,-2.3101,-2.3101,-2.3101,-2.3101,-2.3101,-2.3101,-2.3101,-2.3101,-2.3101,-2.3101,-2.3101,-2.3101,-2.3101,-2.3101,-2.3033,-2.2935,-2.2925,-2.2955,-2.2964,-2.2984,-2.2955,-2.276,-2.2886,-2.3052,-2.2945,-2.3023,-3.4537,-3.4467,-3.4085,-3.3909,-3.3834,-3.3445,-3.3194,-3.3124,-3.3124,-3.3124,-3.3124,-3.3124,-3.3124,-3.3124,-3.3124,-3.3124,-3.284,-3.2064,-3.1134,-3.0056,-2.8958,-2.8402,-2.8366,-2.7683,-2.6831,-2.5829,-2.5305,-2.4853,-2.46,-2.4648,-2.4717,-2.4902,-2.4639,-2.4551,-2.4685,-2.3994,-2.3652,-2.3603,-2.3305,-2.3169,-2.3169,-2.3149,-2.312,-2.3101,-2.3101,-2.3101,-2.3101,-2.3101,-2.3101,-2.3101,-2.3101,-2.3101,-2.3101,-2.3101,-2.3101,-2.3101,-2.3101,-2.3101,-2.3101,-2.3101,-2.3101,-2.3101,-2.3101,-2.3101,-2.3101,-2.3101,-2.3101,-2.3101,-2.3101,-2.3101,-2.3101,-2.3101,-2.3101,-2.3101,-2.3101,-2.3101,-2.3101,-2.3101,-2.3101,-2.3101,-2.3101,-2.3101,-2.3101,-2.3101,-2.3101,-2.3101,-2.3101,-2.3101,-2.3101,-2.3101,-2.3101,-2.3101,-2.3101,-2.3101,-2.3101,-2.3101,-2.3101,-2.3101,-2.3101,-2.3101,-2.3101,-2.3101,-2.3101,-2.3101,-2.3081,-2.3101,-2.3101,-2.3091,-2.3042,-2.3081,-2.3101,-2.3101,-2.3101,-2.3101,-2.3101,-3.396,-3.3922,-3.3633,-3.352,-3.347,-3.3206,-3.3124,-3.3124,-3.3124,-3.3124,-3.3124,-3.3124,-3.3124,-3.3124,-3.3081,-3.284,-3.1996,-3.0956,-3.0045,-2.9269,-2.8226,-2.7305,-2.6706,-2.6706,-2.6144,-2.5439,-2.5391,-2.5225,-2.504,-2.4982,-2.5205,-2.5322,-2.4941,-2.4853,-2.5018,-2.4424,-2.4111,-2.4062,-2.3877,-2.3686,-2.373,-2.3535,-2.3257,-2.314,-2.3101,-2.3101,-2.3101,-2.3101,-2.3101,-2.3101,-2.3101,-2.3101,-2.3101,-2.3101,-2.3101,-2.3101,-2.3101,-2.3101,-2.3101,-2.3101,-2.3101,-2.3101,-2.3101,-2.3101,-2.3101,-2.3101,-2.3101,-2.3101,-2.3101,-2.3101,-2.3101,-2.3101,-2.3101,-2.3101,-2.3101,-2.3101,-2.3101,-2.3101,-2.3101,-2.3101,-2.3101,-2.3101,-2.3101,-2.3101,-2.3101,-2.3101,-2.3101,-2.3101,-2.3101,-2.3101,-2.3101,-2.3101,-2.3101,-2.3101,-2.3101,-2.3101,-2.3101,-2.3101,-2.3101,-2.3101,-2.3101,-2.3101,-2.3101,-2.3101,-2.3101,-2.3101,-2.3101,-2.3101,-2.3101,-2.3101,-2.3101,-2.3101,-2.3101,-2.3101,-2.3101,-3.3124,-3.3124,-3.3124,-3.3124,-3.3124,-3.3124,-3.3124,-3.3124,-3.3124,-3.3124,-3.3124,-3.3124,-3.3124,-3.3124,-3.3124,-3.2339,-3.0956,-3.0033,-2.9315,-2.8308,-2.7542,-2.6706,-2.6062,-2.5868,-2.5858,-2.5684,-2.5635,-2.5606,-2.5606,-2.5674,-2.5538,-2.5596,-2.5381,-2.5225,-2.5098,-2.4756,-2.4512,-2.4502,-2.4355,-2.4287,-2.4238,-2.3945,-2.3555,-2.3169,-2.3101,-2.3101,-2.3101,-2.3101,-2.3101,-2.3101,-2.3101,-2.3101,-2.3101,-2.3101,-2.3101,-2.3101,-2.3101,-2.3101,-2.3101,-2.3101,-2.3101,-2.3101,-2.3101,-2.3101,-2.3101,-2.3101,-2.3101,-2.3101,-2.3101,-2.3101,-2.3101,-2.3101,-2.3101,-2.3101,-2.3101,-2.3101,-2.3101,-2.3101,-2.3101,-2.3101,-2.3101,-2.3101,-2.3101,-2.3101,-2.3101,-2.3101,-2.3101,-2.3101,-2.3101,-2.3101,-2.3101,-2.3101,-2.3101,-2.3101,-2.3101,-2.3101,-2.3101,-2.3101,-2.3101,-2.3101,-2.3101,-2.3101,-2.3101,-2.3101,-2.3101,-2.3101,-2.3101,-2.3101,-2.3101,-2.3101,-2.3101,-2.3101,-2.3101,-2.3101,-2.3101,-3.3124,-3.3124,-3.3124,-3.3124,-3.3124,-3.3124,-3.3124,-3.3124,-3.3124,-3.3124,-3.3124,-3.3124,-3.3124,-3.3124,-3.3124,-3.1877,-3.0316,-2.9315,-2.8262,-2.6972,-2.6332,-2.5868,-2.583,-2.5684,-2.5684,-2.5684,-2.5684,-2.5684,-2.5684,-2.5684,-2.5684,-2.5664,-2.5586,-2.5586,-2.5459,-2.5205,-2.4961,-2.4922,-2.4717,-2.457,-2.4463,-2.4092,-2.3613,-2.3169,-2.3101,-2.3101,-2.3101,-2.3101,-2.3101,-2.3101,-2.3101,-2.3101,-2.3101,-2.3101,-2.3101,-2.3101,-2.3101,-2.3101,-2.3101,-2.3101,-2.3101,-2.3101,-2.3101,-2.3101,-2.3101,-2.3101,-2.3101,-2.3101,-2.3101,-2.3101,-2.3101,-2.3101,-2.3101,-2.3101,-2.3101,-2.3101,-2.3101,-2.3101,-2.3101,-2.3101,-2.3101,-2.3101,-2.3101,-2.3101,-2.3101,-2.3101,-2.3101,-2.3101,-2.3101,-2.3101,-2.3101,-2.3101,-2.3101,-2.3101,-2.3101,-2.3101,-2.3101,-2.3101,-2.3101,-2.3101,-2.3101,-2.3101,-2.3101,-2.3101,-2.3101,-2.3101,-2.3101,-2.3101,-2.3101,-2.3101,-2.3101,-2.3101,-2.3101,-2.3101,-2.3101,-3.3124,-3.3124,-3.3124,-3.3124,-3.3124,-3.3124,-3.3124,-3.3124,-3.3124,-3.3124,-3.3124,-3.3124,-3.3124,-3.3124,-3.3124,-3.2021,-3.0406,-2.8075,-2.7258,-2.6476,-2.6062,-2.5684,-2.5684,-2.5684,-2.5684,-2.5684,-2.5684,-2.5684,-2.5684,-2.5684,-2.5684,-2.5684,-2.5684,-2.5684,-2.5654,-2.5527,-2.541,-2.5332,-2.5185,-2.5068,-2.4943,-2.4463,-2.3783,-2.3266,-2.3101,-2.3101,-2.3101,-2.3101,-2.3101,-2.3101,-2.3101,-2.3101,-2.3101,-2.3101,-2.3101,-2.3101,-2.3101,-2.3101,-2.3101,-2.3101,-2.3101,-2.3101,-2.3101,-2.3101,-2.3101,-2.3101,-2.3101,-2.3101,-2.3101,-2.3101,-2.3101,-2.3101,-2.3101,-2.3101,-2.3101,-2.3101,-2.3101,-2.3101,-2.3101,-2.3101,-2.3101,-2.3101,-2.3101,-2.3101,-2.3101,-2.3101,-2.3101,-2.3101,-2.3101,-2.3101,-2.3101,-2.3101,-2.3101,-2.3101,-2.3101,-2.3101,-2.3101,-2.3101,-2.3101,-2.3101,-2.3101,-2.3101,-2.3101,-2.3101,-2.3101,-2.3101,-2.3101,-2.3101,-2.3101,-2.3101,-2.3101,-2.3101,-2.3101,-2.3101,-2.3101,-3.3124,-3.3124,-3.3124,-3.3124,-3.3124,-3.3124,-3.3124,-3.3124,-3.3124,-3.3124,-3.3124,-3.3124,-3.3124,-3.3025,-3.2667,-3.1921,-3.0586,-2.7437,-2.6812,-2.6668,-2.6149,-2.5684,-2.5684,-2.5684,-2.5684,-2.5684,-2.5684,-2.5684,-2.5684,-2.5684,-2.5684,-2.5684,-2.5684,-2.5684,-2.5664,-2.5635,-2.5684,-2.5684,-2.5684,-2.5654,-2.5284,-2.4738,-2.4004,-2.3198,-2.3101,-2.3101,-2.3101,-2.3101,-2.3101,-2.3101,-2.3101,-2.3101,-2.3101,-2.3101,-2.3101,-2.3101,-2.3101,-2.3101,-2.3101,-2.3101,-2.3101,-2.3101,-2.3101,-2.3101,-2.3101,-2.3101,-2.3101,-2.3101,-2.3101,-2.3101,-2.3101,-2.3101,-2.3101,-2.3101,-2.3101,-2.3101,-2.3101,-2.3101,-2.3101,-2.3101,-2.3101,-2.3101,-2.3101,-2.3101,-2.3101,-2.3101,-2.3101,-2.3101,-2.3101,-2.3101,-2.3101,-2.3101,-2.3101,-2.3101,-2.3101,-2.3101,-2.3101,-2.3101,-2.3101,-2.3101,-2.3101,-2.3101,-2.3101,-2.3101,-2.3101,-2.3101,-2.3101,-2.3101,-2.3101,-2.3101,-2.3101,-2.3101,-2.3101,-2.3101,-2.3101,-3.3124,-3.3124,-3.3124,-3.3124,-3.3124,-3.3124,-3.3124,-3.3124,-3.3124,-3.3124,-3.3124,-3.3124,-3.3124,-3.2853,-3.1857,-3.08,-2.9475,-2.8008,-2.6701,-2.6297,-2.5859,-2.5684,-2.5684,-2.5684,-2.5684,-2.5684,-2.5684,-2.5684,-2.5684,-2.5684,-2.5684,-2.5684,-2.5684,-2.5684,-2.5684,-2.5684,-2.5684,-2.5684,-2.5684,-2.5343,-2.4775,-2.4512,-2.3955,-2.3374,-2.3101,-2.3101,-2.3101,-2.3101,-2.3101,-2.3101,-2.3101,-2.3101,-2.3101,-2.3101,-2.3101,-2.3101,-2.3101,-2.3101,-2.3101,-2.3101,-2.3101,-2.3101,-2.3101,-2.3101,-2.3101,-2.3101,-2.3101,-2.3101,-2.3101,-2.3101,-2.3101,-2.3101,-2.3101,-2.3101,-2.3101,-2.3101,-2.3101,-2.3101,-2.3101,-2.3101,-2.3101,-2.3101,-2.3101,-2.3101,-2.3101,-2.3101,-2.3101,-2.3101,-2.3101,-2.3101,-2.3101,-2.3101,-2.3101,-2.3101,-2.3101,-2.3101,-2.3101,-2.3101,-2.3101,-2.3101,-2.3101,-2.3101,-2.3101,-2.3101,-2.3101,-2.3101,-2.3101,-2.3101,-2.3101,-2.3101,-2.3101,-2.3101,-2.3101,-2.3101,-2.3101,-3.3124,-3.3124,-3.3124,-3.3124,-3.3124,-3.3124,-3.3124,-3.3124,-3.3124,-3.3124,-3.3124,-3.3124,-3.3124,-3.2791,-3.1362,-3.0284,-2.9391,-2.7823,-2.6722,-2.6173,-2.5859,-2.5703,-2.5684,-2.5684,-2.5684,-2.5684,-2.5684,-2.5684,-2.5684,-2.5693,-2.5684,-2.5684,-2.5684,-2.5684,-2.5684,-2.5684,-2.5684,-2.5684,-2.5635,-2.541,-2.4893,-2.4512,-2.4131,-2.3535,-2.3227,-2.312,-2.3101,-2.3101,-2.3101,-2.3101,-2.3101,-2.3101,-2.3101,-2.3101,-2.3101,-2.3101,-2.3101,-2.3101,-2.3101,-2.3101,-2.3101,-2.3101,-2.3101,-2.3101,-2.3101,-2.3101,-2.3101,-2.3101,-2.3101,-2.3101,-2.3101,-2.3101,-2.3101,-2.3101,-2.3101,-2.3101,-2.3101,-2.3101,-2.3101,-2.3101,-2.3101,-2.3101,-2.3101,-2.3101,-2.3101,-2.3101,-2.3101,-2.3101,-2.3101,-2.3101,-2.3101,-2.3101,-2.3101,-2.3101,-2.3101,-2.3101,-2.3101,-2.3101,-2.3101,-2.3101,-2.3101,-2.3101,-2.3101,-2.3101,-2.3101,-2.3101,-2.3101,-2.3101,-2.3101,-2.3101,-2.3101,-2.3101,-2.3101,-2.3101,-2.3101,-3.3124,-3.3124,-3.3124,-3.3124,-3.3124,-3.3124,-3.3124,-3.3124,-3.3124,-3.3124,-3.3124,-3.3124,-3.3124,-3.2649,-3.1109,-3.0021,-2.9831,-2.7625,-2.6724,-2.6416,-2.624,-2.5996,-2.5986,-2.5928,-2.581,-2.5684,-2.5684,-2.5771,-2.5869,-2.5752,-2.5684,-2.5684,-2.5684,-2.5684,-2.5684,-2.5684,-2.5684,-2.5684,-2.5684,-2.5478,-2.5049,-2.4609,-2.4219,-2.3779,-2.3408,-2.3101,-2.3101,-2.3101,-2.3101,-2.3101,-2.3101,-2.3101,-2.3101,-2.3101,-2.3101,-2.3101,-2.3101,-2.3101,-2.3101,-2.3101,-2.3101,-2.3101,-2.3101,-2.3101,-2.3101,-2.3101,-2.3101,-2.3101,-2.3101,-2.3101,-2.3101,-2.3101,-2.3101,-2.3101,-2.3101,-2.3101,-2.3101,-2.3101,-2.3101,-2.3101,-2.3101,-2.3101,-2.3101,-2.3101,-2.3101,-2.3101,-2.3101,-2.3101,-2.3101,-2.3101,-2.3101,-2.3101,-2.3101,-2.3101,-2.3101,-2.3101,-2.3101,-2.3101,-2.3101,-2.3101,-2.3101,-2.3101,-2.3101,-2.3101,-2.3101,-2.3101,-2.3101,-2.3101,-2.3101,-2.3101,-2.3101,-2.3101,-2.3101,-2.3101,-2.3101,-3.3124,-3.3124,-3.3124,-3.3124,-3.3124,-3.3124,-3.3124,-3.3124,-3.3124,-3.3124,-3.3124,-3.3124,-3.3124,-3.2623,-3.1214,-3.0072,-2.9967,-2.7892,-2.7178,-2.6973,-2.6904,-2.6582,-2.6377,-2.6211,-2.6123,-2.5801,-2.5791,-2.6035,-2.6152,-2.5977,-2.5791,-2.5684,-2.5713,-2.5693,-2.5684,-2.5684,-2.5684,-2.5684,-2.5684,-2.5537,-2.5117,-2.4678,-2.4238,-2.3828,-2.3374,-2.3101,-2.3101,-2.3101,-2.3101,-2.3101,-2.3101,-2.3101,-2.3101,-2.3101,-2.3101,-2.3101,-2.3101,-2.3101,-2.3101,-2.3101,-2.3101,-2.3101,-2.3101,-2.3101,-2.3101,-2.3101,-2.3101,-2.3101,-2.3101,-2.3101,-2.3101,-2.3101,-2.3101,-2.3101,-2.3101,-2.3101,-2.3101,-2.3101,-2.3101,-2.3101,-2.3101,-2.3101,-2.3101,-2.3101,-2.3101,-2.3101,-2.3101,-2.3101,-2.3101,-2.3101,-2.3101,-2.3101,-2.3101,-2.3101,-2.3101,-2.3101,-2.3101,-2.3101,-2.3101,-2.3101,-2.3101,-2.3101,-2.3101,-2.3101,-2.3101,-2.3101,-2.3101,-2.3101,-2.3101,-2.3101,-2.3101,-2.3101,-2.3101,-2.3101,-2.3101,-3.3124,-3.3124,-3.3124,-3.3124,-3.3124,-3.3124,-3.3124,-3.3124,-3.3124,-3.3124,-3.3124,-3.3136,-3.3269,-3.2924,-3.1495,-3.0619,-3.0535,-2.8421,-2.7673,-2.7305,-2.7139,-2.6787,-2.6523,-2.6416,-2.6279,-2.6162,-2.6162,-2.6357,-2.668,-2.6338,-2.6191,-2.6084,-2.5859,-2.5703,-2.5684,-2.5684,-2.5684,-2.5684,-2.5684,-2.5605,-2.541,-2.4775,-2.4336,-2.418,-2.3393,-2.314,-2.3101,-2.3101,-2.3101,-2.3101,-2.3101,-2.3101,-2.3101,-2.3101,-2.3101,-2.311,-2.311,-2.314,-2.312,-2.311,-2.3101,-2.3101,-2.3101,-2.311,-2.313,-2.3101,-2.3101,-2.3101,-2.3101,-2.3101,-2.3101,-2.3101,-2.3101,-2.3101,-2.3101,-2.3101,-2.3101,-2.3101,-2.3101,-2.3101,-2.3101,-2.3101,-2.3101,-2.3101,-2.3101,-2.3101,-2.3101,-2.3101,-2.3101,-2.3101,-2.3101,-2.3101,-2.3101,-2.3101,-2.3101,-2.3101,-2.3101,-2.3101,-2.3101,-2.3101,-2.3101,-2.3101,-2.3101,-2.3101,-2.3101,-2.3101,-2.3101,-2.3101,-2.3101,-2.3101,-2.3101,-2.3101,-2.3101,-2.3101,-2.3101,-3.3124,-3.3124,-3.3124,-3.3124,-3.3124,-3.3124,-3.3124,-3.3124,-3.3124,-3.3124,-3.3124,-3.3149,-3.3269,-3.3067,-3.1971,-3.0884,-3.0508,-2.9152,-2.8191,-2.7744,-2.7461,-2.7129,-2.6894,-2.6768,-2.6787,-2.6631,-2.6611,-2.6787,-2.7168,-2.6777,-2.6621,-2.6445,-2.6162,-2.5898,-2.5684,-2.5684,-2.5684,-2.5684,-2.5684,-2.5684,-2.5557,-2.5049,-2.4502,-2.4365,-2.3666,-2.3257,-2.3149,-2.3101,-2.3101,-2.3101,-2.3101,-2.3101,-2.3101,-2.3101,-2.3101,-2.314,-2.3218,-2.3276,-2.3276,-2.3149,-2.3179,-2.335,-2.314,-2.3188,-2.3237,-2.3188,-2.3101,-2.3101,-2.3101,-2.3101,-2.311,-2.3101,-2.3101,-2.3101,-2.3101,-2.3101,-2.3101,-2.3101,-2.3101,-2.3101,-2.3101,-2.311,-2.312,-2.312,-2.313,-2.312,-2.3101,-2.3101,-2.3101,-2.3101,-2.3101,-2.3101,-2.3101,-2.3101,-2.3101,-2.3101,-2.3101,-2.3101,-2.3101,-2.3101,-2.3101,-2.3101,-2.3101,-2.3101,-2.3101,-2.3101,-2.3101,-2.3101,-2.3101,-2.3101,-2.3101,-2.3101,-2.3101,-2.3101,-2.3101,-3.3124,-3.3124,-3.3124,-3.3124,-3.3124,-3.3124,-3.3124,-3.3124,-3.3124,-3.3124,-3.3124,-3.3124,-3.3174,-3.3015,-3.2177,-3.146,-3.0703,-2.9782,-2.888,-2.8267,-2.8045,-2.7933,-2.7718,-2.7493,-2.7236,-2.706,-2.6973,-2.7129,-2.7637,-2.7119,-2.6963,-2.6855,-2.6523,-2.6094,-2.5723,-2.5703,-2.5703,-2.5684,-2.5684,-2.5684,-2.5577,-2.5225,-2.4824,-2.4482,-2.3955,-2.3516,-2.3413,-2.314,-2.314,-2.3218,-2.312,-2.3101,-2.3101,-2.3169,-2.3188,-2.3188,-2.3584,-2.375,-2.376,-2.3389,-2.3467,-2.3691,-2.352,-2.3422,-2.3594,-2.3477,-2.3208,-2.334,-2.3198,-2.3169,-2.314,-2.3101,-2.3101,-2.3101,-2.3101,-2.3179,-2.3188,-2.3257,-2.3286,-2.3461,-2.3286,-2.313,-2.314,-2.3149,-2.3169,-2.3159,-2.311,-2.3101,-2.3101,-2.3101,-2.3101,-2.3101,-2.3101,-2.3101,-2.3101,-2.3101,-2.3101,-2.3101,-2.3101,-2.3101,-2.3101,-2.3101,-2.3101,-2.3101,-2.3101,-2.3101,-2.3101,-2.3101,-2.3101,-2.3101,-2.3101,-2.3101,-2.3101,-2.3101,-2.3101,-3.3124,-3.3124,-3.3124,-3.3124,-3.3124,-3.3124,-3.3124,-3.3124,-3.3124,-3.3124,-3.3124,-3.3124,-3.3319,-3.3176,-3.2568,-3.1959,-3.1907,-2.9998,-2.9116,-2.931,-2.8681,-2.8094,-2.7855,-2.7757,-2.7598,-2.7402,-2.7275,-2.7471,-2.8076,-2.7471,-2.7314,-2.7226,-2.6807,-2.6172,-2.5937,-2.5879,-2.6074,-2.5742,-2.5684,-2.5674,-2.5635,-2.5322,-2.5047,-2.4805,-2.4189,-2.3877,-2.3828,-2.3413,-2.3305,-2.3457,-2.3325,-2.3198,-2.3247,-2.3335,-2.3574,-2.3652,-2.3955,-2.4189,-2.4199,-2.4053,-2.4007,-2.4075,-2.4053,-2.3867,-2.3818,-2.3975,-2.3818,-2.3643,-2.3574,-2.3574,-2.3584,-2.3237,-2.314,-2.3101,-2.314,-2.3325,-2.3457,-2.3574,-2.3682,-2.3984,-2.3949,-2.3906,-2.3867,-2.3525,-2.3437,-2.3286,-2.3237,-2.313,-2.3101,-2.3101,-2.3101,-2.3101,-2.3101,-2.3101,-2.3101,-2.3101,-2.3101,-2.3101,-2.3101,-2.3101,-2.3101,-2.3101,-2.3101,-2.3101,-2.3101,-2.3101,-2.3101,-2.3101,-2.3101,-2.3101,-2.3101,-2.3101,-2.3101,-2.3101,-2.3101,-3.3124,-3.3124,-3.3124,-3.3124,-3.3124,-3.3124,-3.3124,-3.3124,-3.3124,-3.3124,-3.3124,-3.3136,-3.3244,-3.3246,-3.2852,-3.2096,-3.2547,-3.0951,-2.9486,-2.9734,-2.88,-2.8245,-2.7978,-2.7933,-2.792,-2.7783,-2.7695,-2.7822,-2.8223,-2.7744,-2.7568,-2.7471,-2.7109,-2.6602,-2.624,-2.6084,-2.5996,-2.5713,-2.5684,-2.5684,-2.5615,-2.5469,-2.5244,-2.4971,-2.459,-2.4238,-2.4102,-2.3832,-2.3623,-2.3721,-2.3672,-2.351,-2.3617,-2.3799,-2.4004,-2.4121,-2.4375,-2.4678,-2.4844,-2.4893,-2.4855,-2.4855,-2.4648,-2.4385,-2.4219,-2.4326,-2.4219,-2.4082,-2.4014,-2.4004,-2.3945,-2.3584,-2.3398,-2.3325,-2.3437,-2.3623,-2.373,-2.3848,-2.4072,-2.4375,-2.4492,-2.4482,-2.4434,-2.4033,-2.3701,-2.3555,-2.3418,-2.3227,-2.3101,-2.3101,-2.3101,-2.3101,-2.3101,-2.3101,-2.3101,-2.3101,-2.3101,-2.3101,-2.3101,-2.3101,-2.3101,-2.3101,-2.3101,-2.3101,-2.3101,-2.3101,-2.3101,-2.3101,-2.3101,-2.3101,-2.3101,-2.3101,-2.3101,-2.3101,-2.3101,-3.3124,-3.3124,-3.3124,-3.3124,-3.3124,-3.3124,-3.3124,-3.3124,-3.3124,-3.3124,-3.3124,-3.3124,-3.3187,-3.3162,-3.3075,-3.2672,-3.1917,-3.1209,-3.0535,-2.9545,-2.9185,-2.874,-2.8436,-2.8373,-2.8227,-2.8223,-2.8144,-2.7949,-2.8262,-2.8115,-2.7949,-2.7783,-2.7568,-2.7031,-2.6533,-2.6133,-2.5937,-2.5742,-2.5684,-2.5684,-2.5635,-2.5635,-2.5469,-2.5215,-2.4961,-2.4629,-2.4434,-2.4209,-2.4111,-2.4131,-2.415,-2.4287,-2.4385,-2.4414,-2.4434,-2.459,-2.4922,-2.5234,-2.5478,-2.5479,-2.5508,-2.5352,-2.4904,-2.4844,-2.4795,-2.4736,-2.4658,-2.4531,-2.4443,-2.4443,-2.4385,-2.4092,-2.3809,-2.3809,-2.3809,-2.3916,-2.4014,-2.418,-2.4424,-2.4609,-2.4658,-2.4668,-2.4639,-2.4346,-2.3975,-2.3779,-2.3539,-2.3198,-2.3101,-2.3101,-2.3101,-2.3101,-2.3101,-2.3101,-2.3101,-2.3101,-2.3101,-2.3101,-2.3101,-2.3101,-2.3101,-2.3101,-2.3101,-2.3101,-2.3101,-2.3101,-2.3101,-2.3101,-2.3101,-2.3101,-2.3101,-2.3101,-2.3101,-2.3101,-2.3101,-3.3124,-3.3124,-3.3124,-3.3124,-3.3124,-3.3124,-3.3124,-3.3124,-3.3124,-3.3124,-3.3124,-3.3124,-3.3187,-3.3124,-3.3093,-3.3283,-3.3142,-3.2814,-3.2744,-3.1843,-3.0457,-2.9964,-2.9408,-2.8847,-2.8495,-2.8193,-2.8096,-2.8076,-2.8242,-2.8301,-2.8281,-2.8115,-2.7842,-2.7353,-2.6875,-2.6416,-2.6084,-2.5762,-2.5684,-2.5684,-2.5684,-2.5684,-2.5596,-2.5488,-2.5234,-2.499,-2.501,-2.4609,-2.4541,-2.4744,-2.4482,-2.4443,-2.4424,-2.4697,-2.4951,-2.5284,-2.5498,-2.5615,-2.5664,-2.5684,-2.5684,-2.5684,-2.5372,-2.5234,-2.5195,-2.5166,-2.5117,-2.498,-2.4883,-2.4883,-2.4785,-2.4541,-2.4307,-2.4238,-2.4258,-2.4326,-2.4453,-2.4678,-2.4912,-2.5078,-2.5117,-2.5098,-2.4992,-2.4629,-2.4277,-2.4053,-2.3734,-2.3403,-2.314,-2.3149,-2.3101,-2.3101,-2.3101,-2.3101,-2.3101,-2.3101,-2.3101,-2.3101,-2.3101,-2.3101,-2.3101,-2.3101,-2.3101,-2.3101,-2.3101,-2.3101,-2.3101,-2.3101,-2.3101,-2.3101,-2.3101,-2.3101,-2.3101,-2.3101,-2.3101,-3.3124,-3.3124,-3.3124,-3.3237,-3.3345,-3.3199,-3.3224,-3.3332,-3.3181,-3.3124,-3.3149,-3.3332,-3.3407,-3.342,-3.347,-3.3815,-3.4387,-3.321,-3.2901,-3.2959,-3.2062,-3.0957,-3.011,-2.9503,-2.89,-2.8483,-2.8158,-2.8115,-2.8252,-2.8291,-2.8281,-2.8252,-2.8041,-2.7559,-2.71,-2.6709,-2.6289,-2.5898,-2.5684,-2.5684,-2.5684,-2.5684,-2.5684,-2.5625,-2.54,-2.5469,-2.5469,-2.4941,-2.5068,-2.5184,-2.4834,-2.4904,-2.4971,-2.5234,-2.5371,-2.5615,-2.5635,-2.5645,-2.5684,-2.5684,-2.5684,-2.5684,-2.5684,-2.5538,-2.5518,-2.5498,-2.5459,-2.5381,-2.5352,-2.5293,-2.5146,-2.499,-2.4834,-2.4678,-2.4736,-2.4832,-2.498,-2.5205,-2.542,-2.5577,-2.5625,-2.5606,-2.5372,-2.4951,-2.4639,-2.4512,-2.4297,-2.3929,-2.3559,-2.3296,-2.3188,-2.3101,-2.3101,-2.3101,-2.3101,-2.3101,-2.3101,-2.3101,-2.3101,-2.3101,-2.3101,-2.3101,-2.3101,-2.3101,-2.3101,-2.3101,-2.3101,-2.3101,-2.3101,-2.3101,-2.3101,-2.3101,-2.3101,-2.3101,-2.3101,-3.3124,-3.3124,-3.3124,-3.3332,-3.3709,-3.3312,-3.3332,-3.3759,-3.3312,-3.3124,-3.3224,-3.3646,-3.3834,-3.3796,-3.3909,-3.4286,-3.4491,-3.3835,-3.3728,-3.3708,-3.2997,-3.2079,-3.1338,-3.0317,-2.9565,-2.8794,-2.8315,-2.8213,-2.8242,-2.8213,-2.8164,-2.8271,-2.8164,-2.7734,-2.709,-2.6855,-2.6406,-2.5801,-2.5684,-2.5684,-2.5684,-2.5684,-2.5684,-2.5684,-2.5606,-2.5605,-2.5391,-2.5381,-2.5557,-2.542,-2.542,-2.5586,-2.5586,-2.5596,-2.5654,-2.5664,-2.5684,-2.5684,-2.5684,-2.5684,-2.5684,-2.5684,-2.5684,-2.5645,-2.5625,-2.5615,-2.5615,-2.5605,-2.5557,-2.5547,-2.543,-2.5322,-2.5185,-2.5127,-2.5156,-2.5185,-2.5273,-2.5449,-2.5576,-2.5684,-2.5684,-2.5674,-2.5577,-2.5166,-2.4863,-2.4873,-2.4639,-2.4307,-2.4066,-2.3656,-2.3452,-2.3276,-2.313,-2.313,-2.3101,-2.3101,-2.3101,-2.3101,-2.3101,-2.3101,-2.3101,-2.3101,-2.3101,-2.3101,-2.3101,-2.3101,-2.3101,-2.3101,-2.3101,-2.3101,-2.3101,-2.3101,-2.3101,-2.3101,-2.3101,-3.3124,-3.3124,-3.3124,-3.3199,-3.3244,-3.3187,-3.3199,-3.3269,-3.3187,-3.3136,-3.3237,-3.3633,-3.3935,-3.3997,-3.4387,-3.4781,-3.5057,-3.4792,-3.5189,-3.5036,-3.4375,-3.3403,-3.2755,-3.1184,-3.0214,-2.9608,-2.9006,-2.8291,-2.8242,-2.8076,-2.7988,-2.8213,-2.8027,-2.749,-2.7031,-2.6807,-2.6299,-2.5723,-2.5684,-2.5684,-2.5684,-2.5684,-2.5684,-2.5684,-2.5645,-2.5645,-2.5576,-2.5567,-2.5635,-2.5586,-2.5615,-2.5674,-2.5674,-2.5684,-2.5684,-2.5684,-2.5684,-2.5684,-2.5684,-2.5684,-2.5684,-2.5684,-2.5684,-2.5684,-2.5684,-2.5684,-2.5684,-2.5684,-2.5684,-2.5684,-2.5654,-2.5605,-2.5537,-2.5537,-2.5537,-2.5537,-2.5537,-2.5625,-2.5674,-2.5684,-2.5684,-2.5645,-2.5586,-2.5459,-2.5176,-2.4893,-2.4619,-2.4404,-2.4453,-2.4219,-2.4023,-2.3789,-2.3266,-2.3179,-2.3198,-2.3188,-2.3237,-2.3169,-2.314,-2.312,-2.3101,-2.3101,-2.3101,-2.3101,-2.3101,-2.3101,-2.3101,-2.3101,-2.3101,-2.3101,-2.3101,-2.3101,-2.3101,-2.3101,-2.3101,-3.3124,-3.3124,-3.3124,-3.3219,-3.337,-3.3194,-3.3206,-3.3426,-3.3224,-3.3262,-3.3508,-3.3985,-3.4261,-3.4349,-3.4793,-3.5366,-3.5755,-3.5558,-3.5728,-3.5852,-3.5571,-3.4362,-3.3254,-3.1988,-3.0369,-2.9565,-2.8857,-2.8271,-2.8193,-2.7949,-2.7924,-2.8105,-2.7754,-2.7285,-2.6973,-2.6602,-2.6182,-2.5713,-2.5703,-2.5684,-2.5684,-2.5684,-2.5684,-2.5684,-2.5684,-2.5684,-2.5684,-2.5684,-2.5684,-2.5684,-2.5684,-2.5684,-2.5684,-2.5684,-2.5684,-2.5684,-2.5684,-2.5684,-2.5684,-2.5684,-2.5684,-2.5684,-2.5684,-2.5684,-2.5684,-2.5684,-2.5684,-2.5684,-2.5684,-2.5684,-2.5684,-2.5615,-2.5606,-2.5606,-2.5606,-2.5606,-2.5606,-2.5635,-2.5684,-2.5684,-2.5684,-2.5674,-2.5635,-2.5615,-2.543,-2.541,-2.5001,-2.4904,-2.4932,-2.4756,-2.456,-2.4355,-2.39,-2.3695,-2.3793,-2.3656,-2.3506,-2.3408,-2.3301,-2.314,-2.311,-2.3101,-2.3101,-2.3101,-2.3101,-2.3101,-2.3101,-2.3101,-2.3101,-2.3101,-2.3101,-2.3101,-2.3101,-2.3003,-2.2731,-3.3036,-3.3111,-3.3124,-3.3332,-3.3684,-3.3282,-3.3319,-3.3633,-3.3294,-3.3382,-3.3884,-3.4437,-3.4668,-3.4956,-3.5391,-3.5893,-3.6119,-3.5918,-3.6094,-3.6292,-3.631,-3.5307,-3.4105,-3.2694,-3.1133,-2.9556,-2.8502,-2.827,-2.8115,-2.7914,-2.7836,-2.7988,-2.7637,-2.7109,-2.6963,-2.6621,-2.6201,-2.5898,-2.5791,-2.5693,-2.5684,-2.5684,-2.5684,-2.5684,-2.5684,-2.5684,-2.5684,-2.5684,-2.5684,-2.5684,-2.5684,-2.5684,-2.5684,-2.5684,-2.5684,-2.5684,-2.5684,-2.5684,-2.5684,-2.5684,-2.5684,-2.5684,-2.5684,-2.5684,-2.5684,-2.5684,-2.5684,-2.5684,-2.5684,-2.5684,-2.5684,-2.5684,-2.5684,-2.5684,-2.5684,-2.5684,-2.5684,-2.5684,-2.5684,-2.5684,-2.5684,-2.5684,-2.5674,-2.5723,-2.5674,-2.5684,-2.5684,-2.5684,-2.5577,-2.5342,-2.5098,-2.499,-2.4729,-2.4582,-2.4378,-2.417,-2.3867,-2.375,-2.3643,-2.3369,-2.311,-2.3101,-2.3101,-2.3101,-2.3101,-2.3101,-2.3101,-2.3101,-2.3101,-2.3101,-2.3101,-2.3101,-2.3101,-2.2906,-2.2217,-3.2654,-3.3124,-3.3124,-3.3144,-3.3262,-3.3119,-3.3187,-3.3262,-3.3156,-3.3382,-3.396,-3.4487,-3.4881,-3.537,-3.5956,-3.6355,-3.6329,-3.6132,-3.6241,-3.6405,-3.6417,-3.5966,-3.4957,-3.3193,-3.209,-3.0389,-2.8618,-2.7947,-2.7978,-2.7875,-2.7757,-2.7865,-2.7744,-2.7451,-2.7383,-2.6914,-2.6318,-2.6113,-2.583,-2.5684,-2.5684,-2.5684,-2.5684,-2.5684,-2.5684,-2.5684,-2.5684,-2.5684,-2.5684,-2.5684,-2.5684,-2.5684,-2.5684,-2.5684,-2.5684,-2.5684,-2.5684,-2.5684,-2.5684,-2.5684,-2.5684,-2.5684,-2.5684,-2.5684,-2.5684,-2.5684,-2.5684,-2.5684,-2.5684,-2.5684,-2.5684,-2.5684,-2.5684,-2.5684,-2.5684,-2.5684,-2.5684,-2.5684,-2.5684,-2.5684,-2.5684,-2.5684,-2.5684,-2.5674,-2.5674,-2.5684,-2.5684,-2.5684,-2.5684,-2.5644,-2.5557,-2.5478,-2.5343,-2.4953,-2.458,-2.4502,-2.4277,-2.415,-2.3955,-2.3652,-2.3344,-2.312,-2.3101,-2.3101,-2.3101,-2.3101,-2.3101,-2.3101,-2.3101,-2.3101,-2.3101,-2.3101,-2.3101,-2.2677,-2.1854]},{"header":{"parameterUnit":"m.s-1","parameterCategory":1,"la1":31.0,"la2":29.5877,"lo1":-88.7671,"lo2":-86.6584,"dy":0.0162,"dx":0.0185,"nx":115,"ny":88,"refTime":"2023-06-16T00:00:00:Z","depth":0,"parameterNumber":3,"parameterNumberName":"V-component_of_WINDS"},"data":[0.0,0.0,0.0,0.0,0.0,0.0,0.0,0.0,0.0,0.0,0.0,0.0,0.0,0.0,0.0,0.0,0.0,0.0,0.0,0.0,0.0,0.0,0.0,0.0,0.0,0.0,0.0,0.0,0.0,0.0,0.0,0.0,0.0,0.0,0.0,0.0,0.0,0.0,0.0,0.0,0.0,0.0,0.0,0.0,0.0,0.0,0.0,0.0,0.0,0.0,0.0,0.0,0.0,0.0,0.0,0.0,0.0,0.0,0.0,0.0,0.0,0.0,0.0,0.0,0.0,0.0,0.0,0.0,0.0,0.0,0.0,0.0,0.0,0.0,0.0,0.0,0.0,0.0,0.0,0.0,0.0,0.0,0.0,0.0,0.0,0.0,0.0,0.0,0.0,0.0,0.0,0.0,0.0,0.0,0.0,0.0,0.0,0.0,0.0,0.0,0.0,0.0,0.0,0.0,0.0,0.0,0.0,0.0,0.0,0.0,0.0,0.0,0.0,0.0,0.0,0.0,0.0,0.0,0.0,0.0,0.0,0.0,0.0,0.0,0.0,0.0,0.0,0.0,0.0,0.0,0.0,0.0,0.0,0.0,0.0,0.0,0.0,0.0,0.0,0.0,0.0,0.0,0.0,0.0,0.0,0.0,0.0,0.0,0.0,0.0,0.0,0.0,0.0,0.0,0.0,0.0,0.0,0.0,0.0,0.0,0.0,0.0,0.0,0.0,0.0,0.0,0.0,0.0,0.0,0.0,0.0,0.0,0.0,0.0,0.0,0.0,0.0,0.0,0.0,0.0,0.0,0.0,0.0,0.0,0.0,0.0,0.0,0.0,0.0,0.0,0.0,0.0,0.0,0.0,0.0,0.0,0.0,0.0,0.0,0.0,0.0,0.0,0.0,0.0,0.0,0.0,0.0,0.0,0.0,0.0,0.0,0.0,0.0,0.0,0.0,0.0,0.0,0.0,0.0,0.0,0.0,0.0,0.0,0.0,0.0,0.0,0.0,0.0,0.0,0.0,0.0,0.0,0.0,0.0,0.0,0.0,0.0,0.0,0.0,0.0,0.0,0.0,0.0,0.0,0.0,0.0,0.0,0.0,0.0,0.0,0.0,0.0,0.0,0.0,0.0,0.0,0.0,0.0,0.0,0.0,0.0,0.0,0.0,0.0,0.0,0.0,0.0,0.0,0.0,0.0,0.0,0.0,0.0,0.0,0.0,0.0,0.0,0.0,0.0,0.0,0.0,0.0,0.0,0.0,0.0,0.0,0.0,0.0,0.0,0.0,0.0,0.0,0.0,0.0,0.0,0.0,0.0,0.0,0.0,0.0,0.0,0.0,0.0,0.0,0.0,0.0,0.0,0.0,0.0,0.0,0.0,0.0,0.0,0.0,0.0,0.0,0.0,0.0,0.0,0.0,0.0,0.0,0.0,0.0,0.0,0.0,0.0,0.0,0.0,0.0,0.0,0.0,0.0,0.0,0.0,0.0,0.0,0.0,0.0,0.0,0.0,0.0,0.0,0.0,0.0,0.0,0.0,0.0,0.0,0.0,0.0,0.0,0.0,0.0,0.0,0.0,0.0,0.0,0.0,0.0,0.0,0.0,0.0,0.0,0.0,0.0,0.0,0.0,0.0,0.0,0.0,0.0,0.0,0.0,0.0,0.0,0.0,0.0,0.0,0.0,0.0,0.0,0.0,0.0,0.0,0.0,0.0,0.0,0.0,0.0,0.0,0.0,0.0,0.0,0.0,0.0,0.0,0.0,0.0,0.0,0.0,0.0,0.0,0.0,0.0,0.0,0.0,0.0,0.0,0.0,0.0,0.0,0.0,0.0,0.0,0.0,0.0,0.0,0.0,0.0,0.0,0.0,0.0,0.0,0.0,0.0,0.0,0.0,0.0,0.0,0.0,0.0,0.0,0.0,0.0,0.0,0.0,0.0,0.0,0.0,0.0,0.0,0.0,0.0,0.0,0.0,0.0,0.0,0.0,0.0,0.0,0.0,0.0,0.0,0.0,0.0,0.0,0.0,0.0,0.0,0.0,0.0,0.0,0.0,0.0,0.0,0.0,0.0,0.0,0.0,0.0,0.0,0.0,0.0,0.0,0.0,0.0,0.0,0.0,0.0,0.0,0.0,0.0,0.0,0.0,0.0,0.0,0.0,0.0,0.0,0.0,0.0,0.0,0.0,0.0,0.0,0.0,0.0,0.0,0.0,0.0,0.0,0.0,0.0,0.0,0.0,0.0,0.0,0.0,0.0,0.0,0.0,0.0,0.0,0.0,0.0,0.0,0.0,0.0,0.0,0.0,0.0,0.0,0.0,0.0,0.0,0.0,0.0,0.0,0.0,0.0,0.0,0.0,0.0,0.0,0.0,0.0,0.0,0.0,0.0,0.0,0.0,0.0,0.0,0.0,0.0,0.0,0.0,0.0,0.0,0.0,0.0,0.0,0.0,0.0,0.0,0.0,0.0,0.0,0.0,0.0,0.0,0.0,0.0,0.0,0.0,0.0,0.0,0.0,0.0,0.0,0.0,0.0,0.0,0.0,0.0,0.0,0.0,0.0,0.0,0.0,0.0,0.0,0.0,0.0,0.0,0.0,0.0,0.0,0.0,0.0,0.0,0.0,0.0,0.0,0.0,0.0,0.0,0.0,0.0,0.0,0.0,0.0,0.0,0.0,0.0,0.0,0.0,0.0,0.0,0.0,0.0,0.0,0.0,0.0,0.0,0.0,0.0,0.0,0.0,0.0,0.0,0.0,0.0,0.0,0.0,0.0,0.0,0.0,0.0,0.0,0.0,0.0,0.0,0.0,0.0,0.0,0.0,0.0,0.0,0.0,0.0,0.0,0.0,0.0,0.0,0.0,0.0,0.0,0.0,0.0,0.0,0.0,0.0,0.0,0.0,0.0,0.0,0.0,0.0,0.0,0.0,0.0,0.0,0.0,0.0,0.0,0.0,0.0,0.0,0.0,0.0,0.0,0.0,0.0,0.0,0.0,0.0,0.0,0.0,0.0,0.0,0.0,0.0,0.0,0.0,0.0,0.0,0.0,0.0,0.0,0.0,0.0,0.0,0.0,0.0,0.0,0.0,0.0,0.0,0.0,0.0,0.0,0.0,0.0,0.0,0.0,0.0,0.0,0.0,0.0,0.0,0.0,0.0,0.0,0.0,0.0,0.0,0.0,0.0,0.0,0.0,0.0,0.0,0.0,0.0,0.0,0.0,0.0,0.0,0.0,0.0,0.0,0.0,0.0,0.0,0.0,0.0,0.0,0.0,0.0,0.0,0.0,0.0,0.0,0.0,0.0,0.0,0.0,0.0,0.0,0.0,0.0,0.0,0.0,0.0,0.0,0.0,0.0,0.0,0.0,0.0,0.0,0.0,0.0,0.0,0.0,0.0,0.0,0.0,0.0,0.0,0.0,0.0,0.0,0.0,0.0,0.0,0.0,0.0,0.0,0.0,0.0,0.0,0.0,0.0,0.0,0.0,0.0,0.0,0.0,0.0,0.0,0.0,0.0,0.0,0.0,0.0,0.0,0.0,0.0,0.0,0.0,0.0,0.0,0.0,0.0,0.0,0.0,0.0,0.0,0.0,0.0,0.0,0.0,0.0,0.0,0.0,0.0,0.0,0.0,0.0,0.0,0.0,0.0,0.0,0.0,0.0,0.0,0.0,0.0,0.0,0.0,0.0,0.0,0.0,0.0,0.0,0.0,0.0,0.0,0.0,0.0,0.0,0.0,0.0,0.0,0.0,0.0,0.0,0.0,0.0,0.0,0.0,0.0,0.0,0.0,0.0,0.0,0.0,0.0,0.0,0.0,0.0,0.0,0.0,0.0,0.0,0.0,0.0,0.0,0.0,0.0,0.0,0.0,0.0,0.0,0.0,0.0,0.0,0.0,0.0,0.0,0.0,0.0,0.0,0.0,0.0,0.0,0.0,0.0,0.0,0.0,0.0,0.0,0.0,0.0,0.0,0.0,0.0,0.0,0.0,0.0,0.0,0.0,0.0,0.0,0.0,0.0,0.0,0.0,0.0,0.0,0.0,0.0,0.0,0.0,0.0,0.0,0.0,0.0,0.0,0.0,0.0,0.0,0.0,0.0,0.0,0.0,0.0,0.0,0.0,0.0,0.0,0.0,0.0,0.0,0.0,0.0,0.0,0.0,0.0,0.0,0.0,0.0,0.0,0.0,0.0,0.0,0.0,0.0,0.0,0.0,0.0,0.0,0.0,0.0,0.0,0.0,0.0,0.0,0.0,0.0,0.0,0.0,0.0,-1.9723,0.0,0.0,0.0,0.0,0.0,0.0,0.0,0.0,0.0,0.0,0.0,0.0,0.0,0.0,0.0,0.0,0.0,0.0,0.0,0.0,0.0,0.0,0.0,0.0,0.0,0.0,0.0,0.0,0.0,0.0,0.0,0.0,0.0,0.0,0.0,0.0,0.0,0.0,0.0,0.0,0.0,0.0,0.0,0.0,0.0,0.0,0.0,0.0,0.0,0.0,0.0,0.0,0.0,0.0,0.0,0.0,0.0,0.0,0.0,0.0,0.0,0.0,0.0,0.0,0.0,0.0,0.0,0.0,0.0,0.0,0.0,0.0,0.0,0.0,0.0,0.0,0.0,0.0,0.0,0.0,0.0,0.0,0.0,0.0,0.0,0.0,0.0,0.0,0.0,0.0,0.0,0.0,0.0,0.0,0.0,0.0,0.0,0.0,0.0,0.0,0.0,0.0,0.0,0.0,0.0,0.0,0.0,0.0,0.0,0.0,-1.9723,-1.9723,-1.9723,-1.9723,-1.9723,0.0,0.0,0.0,0.0,0.0,0.0,0.0,0.0,0.0,0.0,0.0,0.0,0.0,0.0,0.0,0.0,0.0,0.0,0.0,0.0,0.0,0.0,0.0,0.0,0.0,0.0,0.0,0.0,0.0,0.0,0.0,0.0,0.0,0.0,0.0,0.0,0.0,0.0,0.0,0.0,0.0,0.0,0.0,0.0,0.0,0.0,0.0,0.0,0.0,0.0,0.0,0.0,0.0,0.0,0.0,0.0,0.0,0.0,0.0,0.0,0.0,0.0,0.0,0.0,0.0,0.0,0.0,0.0,0.0,0.0,0.0,0.0,0.0,0.0,0.0,0.0,0.0,0.0,0.0,0.0,0.0,0.0,0.0,0.0,0.0,0.0,0.0,0.0,0.0,0.0,0.0,0.0,0.0,0.0,0.0,0.0,0.0,0.0,0.0,0.0,0.0,0.0,0.0,0.0,0.0,0.0,0.0,0.0,0.0,0.0,0.0,0.0,-2.0022,-1.9932,-1.9932,0.0,0.0,0.0,0.0,0.0,0.0,0.0,0.0,0.0,0.0,0.0,0.0,0.0,0.0,0.0,0.0,0.0,0.0,0.0,0.0,0.0,0.0,0.0,0.0,0.0,0.0,0.0,0.0,0.0,0.0,0.0,0.0,0.0,0.0,0.0,0.0,0.0,0.0,0.0,0.0,0.0,0.0,0.0,0.0,0.0,0.0,0.0,0.0,0.0,0.0,0.0,0.0,0.0,0.0,0.0,0.0,0.0,0.0,0.0,0.0,0.0,0.0,0.0,0.0,0.0,0.0,0.0,0.0,0.0,0.0,0.0,0.0,0.0,0.0,0.0,0.0,0.0,0.0,0.0,0.0,0.0,0.0,0.0,0.0,0.0,0.0,0.0,0.0,0.0,0.0,0.0,0.0,0.0,0.0,0.0,0.0,0.0,0.0,0.0,0.0,0.0,0.0,0.0,0.0,0.0,0.0,0.0,0.0,0.0,0.0,-2.0292,-2.1455,-2.0912,0.0,-2.0569,0.0,0.0,0.0,0.0,0.0,0.0,0.0,0.0,0.0,0.0,0.0,0.0,0.0,0.0,0.0,0.0,0.0,0.0,0.0,0.0,0.0,0.0,0.0,0.0,0.0,0.0,0.0,0.0,0.0,0.0,0.0,0.0,0.0,0.0,0.0,0.0,0.0,0.0,0.0,0.0,0.0,0.0,0.0,0.0,0.0,0.0,0.0,0.0,0.0,0.0,0.0,0.0,0.0,0.0,0.0,0.0,0.0,0.0,0.0,0.0,0.0,0.0,0.0,0.0,0.0,0.0,0.0,0.0,0.0,0.0,0.0,0.0,0.0,0.0,0.0,0.0,0.0,0.0,0.0,0.0,0.0,0.0,0.0,0.0,0.0,0.0,0.0,0.0,0.0,0.0,0.0,0.0,0.0,0.0,0.0,0.0,0.0,0.0,0.0,0.0,0.0,0.0,0.0,0.0,0.0,0.0,0.0,0.0,0.0,0.0,-2.0157,-2.1096,-2.0838,-2.0494,0.0,0.0,0.0,0.0,0.0,0.0,0.0,0.0,0.0,0.0,0.0,0.0,0.0,0.0,0.0,0.0,0.0,0.0,0.0,0.0,0.0,0.0,0.0,0.0,0.0,0.0,0.0,0.0,0.0,0.0,0.0,0.0,0.0,0.0,0.0,0.0,0.0,0.0,0.0,0.0,0.0,0.0,0.0,0.0,0.0,0.0,0.0,0.0,0.0,0.0,0.0,0.0,0.0,0.0,0.0,0.0,0.0,0.0,0.0,0.0,0.0,0.0,0.0,0.0,0.0,0.0,0.0,0.0,0.0,0.0,0.0,0.0,0.0,0.0,0.0,0.0,0.0,0.0,0.0,0.0,0.0,0.0,0.0,0.0,0.0,0.0,0.0,0.0,0.0,0.0,0.0,0.0,0.0,0.0,0.0,0.0,0.0,0.0,0.0,0.0,0.0,0.0,0.0,0.0,0.0,0.0,0.0,0.0,0.0,0.0,-2.0172,-2.0288,-2.0917,-2.0613,-2.0288,-1.9992,0.0,0.0,0.0,0.0,0.0,0.0,0.0,0.0,0.0,0.0,0.0,0.0,0.0,0.0,0.0,0.0,0.0,0.0,0.0,0.0,0.0,0.0,0.0,0.0,0.0,0.0,0.0,0.0,0.0,0.0,0.0,0.0,0.0,0.0,0.0,0.0,0.0,0.0,0.0,0.0,0.0,0.0,0.0,0.0,0.0,0.0,0.0,0.0,0.0,0.0,0.0,0.0,0.0,0.0,0.0,0.0,0.0,0.0,0.0,0.0,0.0,0.0,0.0,0.0,0.0,0.0,0.0,0.0,0.0,0.0,0.0,0.0,0.0,0.0,0.0,0.0,0.0,0.0,0.0,0.0,0.0,0.0,0.0,0.0,0.0,0.0,0.0,0.0,0.0,0.0,0.0,0.0,0.0,0.0,0.0,0.0,0.0,0.0,0.0,0.0,0.0,0.0,0.0,0.0,0.0,0.0,0.0,0.0,-2.2373,-2.1276,-2.0957,-2.159,-2.0408,-2.0034,0.0,0.0,0.0,0.0,0.0,0.0,0.0,0.0,0.0,0.0,0.0,0.0,0.0,0.0,0.0,0.0,0.0,0.0,0.0,0.0,0.0,0.0,0.0,0.0,0.0,0.0,0.0,0.0,0.0,0.0,0.0,0.0,0.0,0.0,0.0,0.0,0.0,0.0,0.0,0.0,0.0,0.0,0.0,0.0,0.0,0.0,0.0,0.0,0.0,0.0,0.0,0.0,0.0,0.0,0.0,0.0,0.0,0.0,0.0,0.0,0.0,0.0,0.0,0.0,0.0,0.0,0.0,0.0,0.0,0.0,0.0,0.0,0.0,0.0,0.0,0.0,0.0,0.0,0.0,0.0,0.0,0.0,0.0,0.0,0.0,0.0,0.0,0.0,0.0,0.0,0.0,0.0,0.0,0.0,0.0,0.0,0.0,0.0,0.0,0.0,0.0,0.0,0.0,0.0,0.0,0.0,0.0,0.0,0.0,-2.0726,-2.0707,-2.0808,-2.1036,-2.0587,-2.0449,0.0,0.0,0.0,0.0,0.0,0.0,0.0,0.0,0.0,0.0,0.0,0.0,0.0,0.0,0.0,0.0,0.0,0.0,0.0,0.0,0.0,0.0,0.0,0.0,0.0,0.0,0.0,0.0,0.0,0.0,0.0,0.0,0.0,0.0,0.0,0.0,0.0,0.0,0.0,0.0,0.0,0.0,0.0,0.0,0.0,0.0,0.0,0.0,0.0,0.0,0.0,0.0,0.0,0.0,0.0,0.0,0.0,0.0,0.0,0.0,0.0,0.0,0.0,0.0,0.0,0.0,0.0,0.0,0.0,0.0,0.0,0.0,0.0,0.0,0.0,0.0,0.0,0.0,0.0,0.0,0.0,0.0,0.0,0.0,0.0,0.0,0.0,0.0,0.0,0.0,0.0,0.0,0.0,0.0,0.0,0.0,0.0,0.0,0.0,0.0,0.0,0.0,0.0,0.0,0.0,0.0,0.0,0.0,0.0,-2.0019,0.0,-2.0688,-2.0688,-2.0479,-2.0378,0.0,0.0,0.0,0.0,0.0,0.0,0.0,0.0,0.0,0.0,0.0,0.0,0.0,0.0,0.0,0.0,0.0,0.0,0.0,0.0,0.0,0.0,0.0,0.0,0.0,0.0,0.0,0.0,0.0,0.0,0.0,0.0,0.0,0.0,0.0,0.0,0.0,0.0,0.0,0.0,0.0,0.0,0.0,0.0,0.0,0.0,0.0,0.0,0.0,0.0,0.0,0.0,0.0,0.0,0.0,0.0,0.0,0.0,0.0,0.0,0.0,0.0,0.0,0.0,0.0,0.0,0.0,0.0,0.0,0.0,0.0,0.0,0.0,0.0,0.0,0.0,0.0,0.0,0.0,0.0,0.0,0.0,0.0,0.0,0.0,0.0,0.0,0.0,0.0,0.0,0.0,0.0,0.0,0.0,0.0,0.0,0.0,0.0,0.0,0.0,0.0,0.0,0.0,0.0,0.0,0.0,0.0,0.0,-2.0004,-2.0643,-2.0658,-2.0688,-2.0718,-2.0112,-1.9753,0.0,0.0,0.0,0.0,0.0,0.0,0.0,0.0,0.0,0.0,0.0,0.0,0.0,0.0,0.0,0.0,0.0,0.0,0.0,0.0,0.0,0.0,0.0,0.0,0.0,0.0,0.0,0.0,0.0,0.0,0.0,0.0,0.0,0.0,0.0,0.0,0.0,0.0,0.0,0.0,0.0,0.0,0.0,0.0,0.0,0.0,0.0,0.0,0.0,0.0,0.0,0.0,0.0,0.0,0.0,0.0,0.0,0.0,0.0,0.0,0.0,0.0,0.0,0.0,0.0,0.0,0.0,0.0,0.0,0.0,0.0,0.0,0.0,0.0,0.0,0.0,0.0,0.0,0.0,0.0,0.0,0.0,0.0,0.0,0.0,0.0,0.0,0.0,0.0,0.0,0.0,0.0,0.0,0.0,0.0,0.0,0.0,0.0,0.0,0.0,0.0,0.0,0.0,0.0,0.0,0.0,0.0,0.0,0.0,-2.0007,-2.0004,-2.0677,-2.1934,-2.0531,-2.0333,0.0,0.0,0.0,0.0,0.0,0.0,0.0,0.0,0.0,0.0,0.0,0.0,0.0,0.0,0.0,0.0,0.0,0.0,0.0,0.0,0.0,0.0,0.0,0.0,0.0,0.0,0.0,0.0,0.0,0.0,0.0,0.0,0.0,0.0,0.0,0.0,0.0,0.0,0.0,0.0,0.0,0.0,0.0,0.0,0.0,0.0,0.0,0.0,0.0,0.0,0.0,0.0,0.0,0.0,0.0,0.0,0.0,0.0,0.0,0.0,0.0,0.0,0.0,0.0,0.0,0.0,0.0,0.0,0.0,0.0,0.0,0.0,0.0,0.0,0.0,0.0,0.0,0.0,0.0,0.0,0.0,0.0,0.0,0.0,0.0,0.0,0.0,0.0,0.0,0.0,0.0,0.0,0.0,0.0,0.0,0.0,0.0,0.0,0.0,0.0,0.0,0.0,0.0,0.0,0.0,0.0,0.0,0.0,0.0,-2.0441,-2.0217,-2.0801,-2.2278,-2.0876,-2.0662,-2.1864,0.0,0.0,0.0,0.0,0.0,0.0,0.0,0.0,0.0,0.0,0.0,0.0,0.0,0.0,0.0,0.0,0.0,0.0,0.0,0.0,0.0,0.0,0.0,0.0,0.0,0.0,0.0,0.0,0.0,0.0,0.0,0.0,0.0,0.0,0.0,0.0,0.0,0.0,0.0,0.0,0.0,0.0,0.0,0.0,0.0,0.0,0.0,0.0,0.0,0.0,0.0,0.0,0.0,0.0,0.0,0.0,0.0,0.0,0.0,0.0,0.0,0.0,0.0,0.0,0.0,0.0,0.0,0.0,0.0,0.0,0.0,0.0,0.0,0.0,0.0,0.0,0.0,0.0,0.0,0.0,0.0,0.0,0.0,0.0,0.0,0.0,0.0,0.0,0.0,0.0,0.0,0.0,0.0,0.0,0.0,0.0,0.0,0.0,0.0,0.0,0.0,0.0,0.0,0.0,0.0,0.0,0.0,0.0,-2.1844,-2.1291,-2.1301,-2.1934,-2.1201,-2.0808,0.0,0.0,0.0,0.0,0.0,0.0,0.0,0.0,0.0,0.0,0.0,0.0,0.0,0.0,0.0,0.0,0.0,0.0,0.0,0.0,0.0,0.0,0.0,0.0,0.0,0.0,0.0,0.0,0.0,0.0,0.0,0.0,0.0,0.0,0.0,0.0,0.0,0.0,0.0,0.0,0.0,0.0,0.0,0.0,0.0,0.0,0.0,0.0,0.0,0.0,0.0,0.0,0.0,0.0,0.0,0.0,0.0,0.0,0.0,0.0,0.0,0.0,0.0,0.0,0.0,0.0,0.0,0.0,0.0,0.0,0.0,0.0,0.0,0.0,0.0,0.0,0.0,0.0,0.0,0.0,0.0,0.0,0.0,0.0,0.0,0.0,0.0,0.0,0.0,0.0,0.0,0.0,0.0,0.0,0.0,0.0,0.0,0.0,0.0,0.0,0.0,0.0,0.0,0.0,0.0,0.0,0.0,0.0,0.0,-2.3812,-2.4141,-2.4418,-2.4537,-2.2547,-2.2128,0.0,0.0,0.0,0.0,0.0,0.0,0.0,0.0,0.0,0.0,0.0,0.0,0.0,0.0,0.0,0.0,0.0,0.0,0.0,0.0,0.0,0.0,0.0,0.0,0.0,0.0,0.0,0.0,0.0,0.0,0.0,0.0,0.0,0.0,0.0,0.0,0.0,0.0,0.0,0.0,0.0,0.0,0.0,0.0,0.0,0.0,0.0,0.0,0.0,0.0,0.0,0.0,0.0,0.0,0.0,0.0,0.0,0.0,0.0,0.0,0.0,0.0,0.0,0.0,0.0,0.0,0.0,0.0,0.0,0.0,0.0,0.0,0.0,0.0,0.0,0.0,0.0,0.0,0.0,0.0,0.0,0.0,0.0,0.0,0.0,0.0,0.0,0.0,0.0,0.0,0.0,0.0,0.0,0.0,0.0,0.0,0.0,0.0,0.0,0.0,0.0,0.0,0.0,0.0,0.0,0.0,0.0,0.0,-2.4133,-2.5435,-2.6647,-2.7156,-2.6847,-2.4582,-2.3687,0.0,0.0,0.0,0.0,0.0,0.0,0.0,0.0,0.0,0.0,0.0,0.0,0.0,0.0,0.0,0.0,0.0,0.0,0.0,0.0,0.0,0.0,0.0,0.0,0.0,0.0,0.0,0.0,0.0,0.0,0.0,0.0,0.0,0.0,0.0,0.0,0.0,0.0,0.0,0.0,0.0,0.0,0.0,0.0,0.0,0.0,0.0,0.0,0.0,0.0,0.0,0.0,0.0,0.0,0.0,0.0,0.0,0.0,0.0,0.0,0.0,0.0,0.0,0.0,0.0,0.0,0.0,0.0,0.0,0.0,0.0,0.0,0.0,0.0,0.0,0.0,0.0,0.0,0.0,0.0,0.0,0.0,0.0,0.0,0.0,0.0,0.0,0.0,0.0,0.0,0.0,0.0,0.0,0.0,0.0,0.0,0.0,0.0,0.0,0.0,0.0,0.0,0.0,0.0,0.0,0.0,0.0,0.0,-2.5495,-2.6886,-2.8712,-2.937,-2.8682,-2.6752,-2.5319,0.0,0.0,0.0,0.0,0.0,0.0,0.0,0.0,0.0,0.0,0.0,0.0,0.0,0.0,0.0,0.0,0.0,0.0,0.0,0.0,0.0,0.0,0.0,0.0,0.0,0.0,0.0,0.0,0.0,0.0,0.0,0.0,0.0,0.0,0.0,0.0,0.0,0.0,0.0,0.0,0.0,0.0,0.0,0.0,0.0,0.0,0.0,0.0,0.0,0.0,0.0,0.0,0.0,0.0,0.0,0.0,0.0,0.0,0.0,0.0,0.0,0.0,0.0,0.0,0.0,0.0,0.0,0.0,0.0,0.0,0.0,0.0,0.0,0.0,0.0,0.0,0.0,0.0,0.0,0.0,0.0,0.0,0.0,0.0,0.0,0.0,0.0,0.0,0.0,0.0,0.0,0.0,0.0,0.0,0.0,0.0,0.0,0.0,0.0,0.0,0.0,0.0,0.0,0.0,0.0,0.0,0.0,0.0,-2.7066,-2.8906,-2.9849,-2.9998,-2.9385,-2.745,-2.6075,0.0,0.0,0.0,0.0,0.0,0.0,0.0,0.0,0.0,0.0,0.0,0.0,0.0,0.0,0.0,0.0,0.0,0.0,0.0,0.0,0.0,0.0,0.0,0.0,0.0,0.0,0.0,0.0,0.0,0.0,0.0,0.0,0.0,0.0,0.0,0.0,0.0,0.0,0.0,0.0,0.0,0.0,0.0,0.0,0.0,0.0,0.0,0.0,-2.6708,0.0,0.0,0.0,0.0,0.0,0.0,0.0,0.0,0.0,0.0,0.0,0.0,0.0,0.0,0.0,0.0,0.0,0.0,0.0,0.0,0.0,0.0,0.0,0.0,0.0,0.0,0.0,0.0,0.0,0.0,0.0,0.0,0.0,0.0,0.0,0.0,0.0,0.0,0.0,0.0,0.0,0.0,0.0,0.0,0.0,0.0,0.0,0.0,0.0,0.0,0.0,0.0,0.0,0.0,0.0,0.0,0.0,0.0,0.0,-2.8034,-2.9953,-3.0642,-3.0687,-2.9998,-2.8712,-2.7503,0.0,0.0,0.0,0.0,0.0,0.0,0.0,0.0,0.0,0.0,0.0,0.0,0.0,0.0,0.0,0.0,0.0,0.0,0.0,0.0,0.0,0.0,0.0,0.0,0.0,0.0,0.0,0.0,0.0,0.0,0.0,0.0,0.0,0.0,0.0,0.0,0.0,0.0,0.0,0.0,0.0,0.0,0.0,0.0,0.0,0.0,0.0,0.0,0.0,0.0,0.0,0.0,0.0,0.0,0.0,0.0,0.0,0.0,0.0,0.0,0.0,0.0,0.0,0.0,0.0,0.0,0.0,0.0,0.0,0.0,0.0,0.0,0.0,0.0,0.0,0.0,0.0,0.0,0.0,0.0,0.0,0.0,0.0,0.0,0.0,0.0,0.0,0.0,0.0,0.0,0.0,0.0,0.0,0.0,0.0,0.0,0.0,0.0,0.0,0.0,0.0,0.0,0.0,0.0,0.0,0.0,0.0,-2.6806,-2.8603,-3.0582,-3.1212,-3.1182,-3.0522,-2.9909,-2.8875,-2.7407,0.0,0.0,0.0,0.0,0.0,0.0,0.0,0.0,0.0,0.0,0.0,0.0,0.0,0.0,0.0,0.0,0.0,0.0,0.0,0.0,0.0,0.0,0.0,0.0,0.0,0.0,0.0,0.0,0.0,0.0,0.0,0.0,0.0,0.0,0.0,0.0,0.0,0.0,-2.466,-2.522,0.0,0.0,0.0,0.0,0.0,0.0,0.0,0.0,-2.6708,0.0,0.0,0.0,0.0,0.0,0.0,0.0,0.0,0.0,0.0,0.0,0.0,0.0,0.0,0.0,0.0,0.0,0.0,0.0,0.0,0.0,0.0,0.0,0.0,0.0,0.0,0.0,0.0,0.0,0.0,0.0,0.0,0.0,0.0,0.0,0.0,0.0,0.0,0.0,0.0,0.0,0.0,0.0,0.0,0.0,0.0,0.0,0.0,0.0,0.0,0.0,0.0,0.0,0.0,0.0,0.0,-2.7874,-2.772,-2.8801,-3.1256,-3.1451,-3.1182,-3.0522,-2.9909,-2.9088,-2.8003,0.0,0.0,0.0,0.0,0.0,0.0,0.0,0.0,0.0,0.0,0.0,0.0,0.0,0.0,0.0,0.0,0.0,0.0,0.0,0.0,0.0,0.0,0.0,0.0,0.0,0.0,0.0,0.0,0.0,0.0,0.0,0.0,0.0,0.0,0.0,0.0,0.0,0.0,0.0,-2.5524,-2.5879,0.0,0.0,0.0,0.0,0.0,0.0,0.0,0.0,-2.6708,0.0,0.0,0.0,0.0,0.0,0.0,0.0,0.0,0.0,0.0,0.0,0.0,0.0,0.0,0.0,0.0,0.0,0.0,0.0,0.0,0.0,0.0,0.0,0.0,0.0,0.0,0.0,0.0,0.0,0.0,0.0,0.0,0.0,0.0,0.0,0.0,0.0,0.0,0.0,0.0,0.0,0.0,0.0,0.0,0.0,0.0,0.0,0.0,0.0,0.0,0.0,0.0,0.0,0.0,0.0,-2.7395,-2.8274,-2.9564,-3.1421,-3.1496,-3.1323,-3.0958,-2.9974,-2.9168,0.0,0.0,0.0,0.0,0.0,0.0,0.0,0.0,0.0,0.0,0.0,0.0,0.0,0.0,0.0,0.0,0.0,0.0,0.0,0.0,0.0,0.0,0.0,0.0,0.0,0.0,0.0,0.0,0.0,0.0,0.0,0.0,0.0,0.0,0.0,0.0,0.0,0.0,0.0,0.0,-2.5862,-2.5879,-2.659,0.0,0.0,0.0,0.0,0.0,0.0,-2.6708,-2.6708,0.0,0.0,0.0,0.0,0.0,0.0,0.0,0.0,0.0,0.0,0.0,0.0,0.0,0.0,0.0,0.0,0.0,0.0,0.0,0.0,0.0,0.0,0.0,0.0,0.0,0.0,0.0,0.0,0.0,0.0,0.0,0.0,0.0,0.0,0.0,0.0,0.0,0.0,0.0,0.0,0.0,0.0,0.0,0.0,0.0,0.0,0.0,0.0,0.0,0.0,0.0,0.0,0.0,0.0,0.0,-2.6976,-2.8843,-3.0402,-3.163,-3.1705,-3.1603,-3.1413,-3.0186,-2.9375,0.0,0.0,0.0,0.0,0.0,0.0,0.0,0.0,0.0,0.0,0.0,0.0,0.0,0.0,0.0,0.0,0.0,0.0,0.0,0.0,0.0,0.0,0.0,0.0,0.0,0.0,0.0,0.0,0.0,0.0,0.0,0.0,0.0,0.0,0.0,0.0,0.0,0.0,0.0,0.0,0.0,-2.6201,-2.6623,-2.6826,0.0,0.0,0.0,0.0,-2.6708,-2.6826,0.0,0.0,0.0,0.0,0.0,0.0,0.0,0.0,0.0,0.0,0.0,0.0,0.0,0.0,0.0,0.0,0.0,0.0,0.0,0.0,0.0,0.0,0.0,0.0,0.0,0.0,0.0,0.0,0.0,0.0,0.0,0.0,0.0,0.0,0.0,0.0,0.0,0.0,0.0,0.0,0.0,0.0,0.0,0.0,0.0,0.0,0.0,0.0,0.0,0.0,0.0,0.0,0.0,0.0,0.0,0.0,-2.8308,-2.9699,-3.1046,-3.2288,-3.2363,-3.2107,-3.1506,-3.0765,-2.9949,0.0,0.0,0.0,0.0,0.0,0.0,0.0,0.0,0.0,0.0,0.0,0.0,0.0,0.0,0.0,0.0,0.0,0.0,0.0,0.0,0.0,0.0,0.0,0.0,0.0,0.0,0.0,0.0,0.0,0.0,0.0,0.0,0.0,0.0,0.0,0.0,0.0,0.0,0.0,0.0,0.0,-2.735,-2.6776,-2.7249,-2.7435,0.0,0.0,-2.6708,-2.6708,-2.7249,0.0,0.0,0.0,0.0,0.0,0.0,0.0,0.0,0.0,0.0,0.0,0.0,0.0,0.0,0.0,0.0,0.0,0.0,0.0,0.0,0.0,0.0,0.0,0.0,0.0,0.0,0.0,0.0,0.0,0.0,0.0,0.0,0.0,0.0,0.0,0.0,0.0,0.0,0.0,0.0,0.0,0.0,0.0,0.0,0.0,0.0,0.0,0.0,0.0,0.0,0.0,0.0,0.0,0.0,0.0,-2.6279,-2.8562,-2.9849,-3.115,-3.2452,-3.2531,-3.2195,-3.1466,-3.0718,-2.9932,0.0,0.0,0.0,0.0,0.0,0.0,0.0,0.0,0.0,0.0,0.0,0.0,0.0,0.0,0.0,0.0,0.0,0.0,0.0,0.0,0.0,0.0,0.0,0.0,0.0,0.0,0.0,0.0,0.0,0.0,0.0,0.0,0.0,0.0,0.0,0.0,0.0,0.0,0.0,0.0,0.0,0.0,-2.7317,-2.7587,0.0,0.0,0.0,-2.6849,-2.6962,0.0,0.0,0.0,0.0,0.0,0.0,0.0,0.0,0.0,0.0,0.0,0.0,0.0,0.0,0.0,0.0,0.0,0.0,0.0,0.0,0.0,0.0,0.0,0.0,0.0,0.0,0.0,0.0,0.0,0.0,0.0,0.0,0.0,0.0,0.0,0.0,0.0,0.0,0.0,0.0,0.0,0.0,0.0,0.0,0.0,0.0,0.0,0.0,0.0,0.0,0.0,0.0,0.0,0.0,0.0,0.0,0.0,-2.9041,-3.0357,-3.1656,-3.2943,-3.2883,-3.2462,-3.1684,-3.0894,0.0,0.0,0.0,0.0,0.0,0.0,0.0,0.0,0.0,0.0,0.0,0.0,0.0,0.0,0.0,0.0,0.0,0.0,0.0,0.0,0.0,0.0,0.0,0.0,0.0,0.0,0.0,-2.5879,0.0,0.0,0.0,0.0,0.0,0.0,0.0,0.0,0.0,0.0,0.0,0.0,0.0,0.0,-2.7892,-2.8078,-2.8415,-2.8373,0.0,0.0,-2.7424,-2.7356,-2.7388,-2.7309,0.0,0.0,0.0,0.0,0.0,0.0,0.0,0.0,0.0,0.0,0.0,0.0,0.0,0.0,0.0,0.0,0.0,0.0,0.0,0.0,0.0,0.0,0.0,0.0,0.0,0.0,0.0,0.0,0.0,0.0,0.0,0.0,0.0,0.0,0.0,0.0,0.0,0.0,0.0,0.0,0.0,0.0,0.0,0.0,0.0,0.0,0.0,0.0,0.0,0.0,0.0,0.0,0.0,0.0,-2.8423,-3.0342,-3.1704,-3.2988,-3.4272,-3.3785,-3.3107,-3.2451,-3.1632,-3.0525,0.0,0.0,0.0,0.0,0.0,0.0,0.0,0.0,0.0,0.0,0.0,0.0,0.0,0.0,0.0,0.0,0.0,0.0,0.0,0.0,0.0,0.0,0.0,0.0,0.0,0.0,0.0,0.0,0.0,0.0,0.0,0.0,0.0,0.0,0.0,0.0,0.0,0.0,0.0,0.0,0.0,-3.0395,-2.9094,-3.011,-3.0463,0.0,-2.887,-2.8616,-2.7869,-2.8377,-2.8381,-2.6961,0.0,0.0,0.0,0.0,0.0,0.0,0.0,0.0,0.0,0.0,0.0,0.0,0.0,0.0,0.0,0.0,0.0,0.0,0.0,0.0,0.0,0.0,0.0,0.0,0.0,0.0,0.0,0.0,0.0,0.0,0.0,0.0,0.0,0.0,0.0,0.0,0.0,0.0,0.0,0.0,0.0,0.0,0.0,0.0,0.0,0.0,0.0,0.0,0.0,0.0,0.0,0.0,0.0,-2.8558,-3.0477,-3.142,-3.2555,-3.3803,-3.3668,-3.3002,-3.1836,-3.144,-3.055,0.0,0.0,0.0,0.0,0.0,0.0,0.0,0.0,0.0,0.0,0.0,0.0,0.0,0.0,0.0,0.0,0.0,0.0,0.0,0.0,0.0,0.0,0.0,0.0,0.0,0.0,0.0,0.0,-2.6708,-2.6708,-2.6708,0.0,0.0,0.0,0.0,0.0,0.0,0.0,0.0,0.0,0.0,-3.0632,-3.0973,-3.1142,0.0,0.0,-2.9426,-2.9039,-2.8842,-2.8606,-2.8256,-2.7657,-2.7694,0.0,0.0,0.0,0.0,0.0,0.0,0.0,0.0,0.0,0.0,0.0,0.0,0.0,0.0,0.0,0.0,0.0,0.0,0.0,0.0,0.0,0.0,0.0,0.0,0.0,0.0,-2.7585,-2.7585,0.0,0.0,0.0,0.0,0.0,0.0,0.0,0.0,0.0,0.0,0.0,0.0,0.0,0.0,0.0,0.0,0.0,0.0,0.0,0.0,0.0,0.0,0.0,0.0,-2.8846,-3.0763,-3.1451,-3.2673,-3.4422,-3.4101,-3.3503,-3.2673,-3.1921,-3.0939,0.0,0.0,0.0,0.0,0.0,0.0,0.0,0.0,0.0,0.0,0.0,0.0,0.0,0.0,0.0,0.0,0.0,0.0,0.0,0.0,0.0,0.0,0.0,0.0,0.0,0.0,0.0,0.0,-2.7182,-2.6945,-2.6708,0.0,0.0,0.0,0.0,0.0,0.0,0.0,0.0,0.0,0.0,-3.1613,-3.2226,-3.2056,-3.154,-3.0704,-3.0128,-2.9773,-2.9619,-2.928,-2.8879,-2.8448,0.0,0.0,0.0,0.0,0.0,0.0,0.0,0.0,0.0,0.0,0.0,0.0,0.0,0.0,0.0,0.0,0.0,0.0,0.0,0.0,0.0,0.0,0.0,0.0,0.0,0.0,0.0,-2.76,0.0,0.0,-2.7585,0.0,0.0,0.0,0.0,0.0,0.0,0.0,0.0,0.0,0.0,0.0,0.0,0.0,0.0,0.0,0.0,0.0,0.0,0.0,0.0,0.0,0.0,-2.9549,-3.1451,-3.2138,-3.381,-3.6425,-3.5288,-3.482,-3.5323,-3.3385,-3.1921,-3.1089,0.0,0.0,0.0,0.0,0.0,0.0,0.0,0.0,0.0,0.0,0.0,0.0,0.0,0.0,0.0,0.0,0.0,0.0,0.0,0.0,0.0,0.0,0.0,0.0,0.0,0.0,-2.8908,-2.8264,-2.7503,0.0,0.0,0.0,0.0,0.0,0.0,0.0,0.0,0.0,-3.1224,-3.3051,-3.388,-3.2547,-3.2916,-3.2848,-3.1441,-3.1188,-3.0917,-3.0253,-3.0661,-3.0649,0.0,0.0,0.0,0.0,0.0,0.0,0.0,0.0,0.0,0.0,0.0,0.0,0.0,0.0,0.0,0.0,0.0,0.0,0.0,0.0,0.0,0.0,0.0,0.0,0.0,0.0,0.0,-2.8693,-2.8263,0.0,0.0,0.0,0.0,0.0,0.0,0.0,0.0,0.0,0.0,0.0,-2.9549,-2.9983,0.0,0.0,0.0,0.0,0.0,0.0,0.0,0.0,0.0,0.0,0.0,0.0,-3.0223,-3.2123,-3.2826,-3.3849,-3.5186,-3.4346,-3.3969,-3.4194,-3.2539,-3.1024,-2.977,0.0,0.0,0.0,0.0,0.0,0.0,0.0,0.0,0.0,0.0,0.0,0.0,0.0,0.0,0.0,0.0,0.0,0.0,0.0,0.0,0.0,0.0,0.0,0.0,0.0,-2.9533,0.0,0.0,0.0,0.0,0.0,0.0,0.0,0.0,0.0,0.0,-3.0717,-3.1732,-3.3186,-3.4032,-3.4489,-3.4489,-3.4286,-3.3947,0.0,0.0,0.0,0.0,0.0,0.0,0.0,0.0,0.0,0.0,0.0,0.0,0.0,0.0,-3.1887,-2.9467,-2.8993,-2.9145,-2.9634,0.0,0.0,0.0,0.0,0.0,0.0,0.0,0.0,0.0,0.0,0.0,0.0,0.0,0.0,-2.946,-2.925,-2.9026,0.0,0.0,0.0,0.0,0.0,0.0,0.0,0.0,-3.0357,-3.0851,-3.0853,-3.1301,-3.1271,-3.0838,-3.0687,-2.9684,0.0,0.0,0.0,0.0,0.0,0.0,0.0,0.0,-3.0657,-3.2108,-3.3275,-3.4438,-3.5539,-3.4703,-3.4503,-3.4977,-3.3073,-3.1328,-2.982,-2.9534,-2.9245,0.0,0.0,0.0,0.0,0.0,0.0,0.0,0.0,0.0,0.0,0.0,0.0,0.0,0.0,0.0,0.0,0.0,0.0,0.0,0.0,0.0,0.0,0.0,-3.0192,0.0,0.0,0.0,0.0,0.0,0.0,0.0,0.0,0.0,-3.1244,-3.1867,-3.2966,-3.4658,-3.4878,-3.5064,-3.5532,0.0,0.0,0.0,0.0,0.0,0.0,0.0,-3.3051,-3.2763,-3.2949,-3.3203,-3.3406,-3.3829,-3.4315,-3.481,0.0,0.0,-3.1752,-3.1072,-3.1142,-3.1884,-3.1593,-3.1478,-3.2188,-3.2138,-3.1749,0.0,0.0,0.0,0.0,-2.9726,0.0,0.0,0.0,-2.9786,-3.0058,0.0,-2.9924,0.0,0.0,0.0,0.0,-2.8757,-2.9983,0.0,0.0,-3.1286,-3.16,-3.1615,-3.1675,-3.163,-3.163,-3.2198,-3.1824,-3.0462,-2.8023,-2.7061,0.0,0.0,0.0,0.0,0.0,-3.0898,-3.169,-3.3544,-3.5569,-3.7552,-3.6322,-3.6273,-3.7559,-3.4918,-3.2709,-3.1292,-3.0548,-2.9837,-2.9111,-2.9094,0.0,0.0,0.0,0.0,0.0,0.0,0.0,0.0,0.0,0.0,0.0,0.0,0.0,0.0,0.0,0.0,0.0,0.0,0.0,0.0,-3.119,0.0,0.0,0.0,0.0,0.0,0.0,0.0,0.0,0.0,-3.2158,-3.1546,-3.3237,-3.4827,-3.5532,0.0,0.0,0.0,0.0,-3.4607,-3.4624,-3.4607,-3.4861,-3.5498,-3.6231,-3.6451,-3.5718,0.0,0.0,-3.5785,-3.5667,-3.5684,-3.5718,-3.5785,-3.5701,-3.5718,-3.4928,-3.4641,-3.5329,-3.4382,-3.3829,-3.437,-3.4066,-3.3355,-3.2871,0.0,0.0,0.0,0.0,-3.1674,-3.1943,-3.2377,-3.2377,-3.1943,-3.1197,-3.1017,0.0,0.0,0.0,0.0,0.0,0.0,-3.1943,-3.2003,-3.311,-3.3634,-3.3649,-3.4143,-3.4113,-3.3634,-3.335,-3.2781,-3.1884,-3.0688,-2.9505,-2.8323,0.0,0.0,0.0,0.0,-3.2497,-3.3619,-3.4666,-3.5792,-3.6888,-3.6044,-3.5573,-3.5551,-3.4673,-3.3491,-3.2039,-3.1785,-3.1328,-3.0598,-3.0584,0.0,0.0,0.0,0.0,0.0,0.0,0.0,0.0,0.0,0.0,0.0,0.0,0.0,0.0,0.0,0.0,0.0,0.0,0.0,-3.1173,-3.119,-3.1142,0.0,0.0,0.0,0.0,0.0,0.0,0.0,0.0,0.0,-3.4387,-3.5368,-3.622,0.0,0.0,-3.706,-3.6518,-3.6721,-3.6924,-3.6924,-3.6941,0.0,-3.6485,-3.666,-3.6745,-3.6485,-3.7077,-3.7499,-3.7256,-3.7263,-3.7415,-3.7905,-3.8024,-3.8193,-3.8565,-3.6857,-3.5707,-3.6197,-3.6079,-3.6062,-3.6705,-3.6349,-3.5594,-3.5292,-3.3769,-3.2721,-3.2527,-3.2901,-3.2916,-3.3125,-3.3499,-3.3499,-3.32,-3.2647,-3.2392,-3.1884,-3.112,-3.0851,0.0,0.0,0.0,-3.3036,-3.332,-3.4129,-3.4638,-3.4938,-3.5295,-3.5295,-3.4876,-3.4472,-3.3948,-3.329,-3.2901,-3.1839,-3.0193,0.0,-3.0672,-3.1286,-3.2377,-3.329,-3.4114,-3.5299,-3.6321,-3.7054,-3.7001,-3.6619,-3.5913,-3.5307,-3.4523,-3.3643,-3.3034,-3.2412,-3.1684,-3.163,-3.1515,0.0,0.0,0.0,0.0,0.0,0.0,0.0,0.0,0.0,0.0,0.0,-3.0076,-3.0497,0.0,0.0,0.0,-3.119,-3.1326,-3.1599,-3.1633,0.0,0.0,0.0,0.0,0.0,0.0,0.0,-3.423,-3.5583,-3.6495,-3.6552,-3.7432,-3.7997,-3.7709,-3.7804,-3.7838,-3.7692,0.0,-3.8007,-3.8294,-3.8345,-3.8278,-3.8132,-3.8115,-3.8099,-3.8115,-3.8447,-3.8751,-3.8768,-3.8785,-3.892,-3.9292,-3.9453,-3.9588,-4.0028,-3.8345,-3.7195,-3.7929,-3.7642,-3.7499,-3.8193,-3.7753,-3.7009,-3.7524,-3.727,-3.4831,-3.3784,-3.3739,-3.3784,-3.3784,-3.3739,-3.3739,-3.4069,-3.4533,-3.3904,-3.3544,-3.3469,-3.2886,0.0,-3.2781,-3.3425,-3.4098,-3.4743,-3.4728,-3.5026,-3.5564,-3.5594,-3.5549,-3.5489,-3.5489,-3.5175,-3.4593,-3.4578,-3.3933,-3.2766,-3.2123,-3.2079,-3.2602,-3.3245,-3.3589,-3.3679,-3.5538,-3.6919,-3.7777,-3.8581,-3.865,-3.7905,-3.6462,-3.5633,-3.5464,-3.4146,-3.3068,-3.2344,-3.2259,-3.1904,-3.1241,0.0,0.0,0.0,0.0,0.0,0.0,0.0,0.0,0.0,0.0,0.0,0.0,0.0,0.0,-3.1275,-3.1362,0.0,-3.2327,-3.2395,0.0,0.0,0.0,-3.3846,-3.4506,-3.4692,-3.503,-3.5701,0.0,0.0,-3.799,-3.9208,-3.9842,-3.9199,-3.8497,-3.8294,-3.892,-3.8481,-3.8328,-3.8988,-3.9114,-3.9309,-3.9774,-3.991,-3.9893,-3.9893,-4.0113,-4.0028,-4.0011,-4.0028,-4.0079,-4.0062,-4.0096,-4.0096,-4.0096,-3.9445,-3.9292,-3.9876,-3.8853,-3.8091,-3.8616,-3.821,-3.7483,-3.8631,-3.8063,-3.6941,-3.6207,-3.5833,-3.6282,-3.6207,-3.5789,-3.5806,-3.5579,-3.522,-3.4547,-3.3963,-3.3514,-3.3858,-3.4292,-3.4816,-3.5474,-3.6118,-3.6701,-3.6716,-3.6552,-3.6252,-3.6252,-3.5983,-3.5519,-3.5489,-3.5429,-3.5265,-3.5265,-3.51,-3.4801,-3.4637,-3.4128,-3.332,-3.3903,-3.4533,-3.504,-3.5503,-3.6415,-3.7777,-3.8581,-3.865,-3.7922,-3.7009,-3.596,-3.481,-3.3897,-3.3051,-3.2327,-3.1769,-3.136,-3.1207,-3.119,0.0,0.0,0.0,0.0,0.0,0.0,0.0,0.0,0.0,-3.1802,-3.1224,0.0,-3.2039,0.0,-3.2544,-3.2949,-3.3119,-3.3152,0.0,0.0,-3.4399,-3.5143,-3.5312,-3.64,-3.7161,-3.7347,-3.8176,-3.8734,-3.8734,-3.9537,-4.0045,-3.9859,-3.9706,-3.9428,-3.9073,-3.9385,-3.9639,-3.9774,-3.9808,-3.991,-4.0062,-4.0113,-4.0113,-4.0113,-4.0113,-4.0113,-4.0113,-4.0113,-4.0113,-4.0113,-4.0113,-4.0113,-4.0113,-3.996,-3.9893,-3.9977,-3.892,-3.7939,-3.8108,-3.7601,-3.7026,-3.92,-3.8811,-3.8452,-3.7928,-3.7345,-3.7389,-3.7225,-3.6911,-3.6896,-3.6686,-3.6327,-3.5953,-3.5579,-3.528,-3.5624,-3.5983,-3.6372,-3.6731,-3.709,-3.7389,-3.7404,-3.7225,-3.6896,-3.6896,-3.6701,-3.6357,-3.6357,-3.6357,-3.6357,-3.6357,-3.6357,-3.6357,-3.6342,-3.5833,-3.4876,-3.4891,-3.5265,-3.5923,-3.6332,-3.7265,-3.8761,-3.9268,-3.9292,-3.8853,-3.754,-3.6406,-3.556,-3.415,-3.3203,-3.2814,-3.2391,-3.2036,-3.1698,-3.1701,-3.1701,0.0,0.0,0.0,0.0,0.0,0.0,0.0,0.0,0.0,0.0,0.0,-3.278,-3.2801,-3.3169,-3.3656,-3.4315,-3.4366,-3.4658,-3.5351,-3.6124,-3.6772,-3.7077,-3.7872,-3.8514,-3.8836,-3.9242,-3.9503,-3.9503,-3.9842,-4.0113,-4.0113,-4.0113,-3.996,-3.9622,-3.9859,-4.0113,-4.0113,-4.0113,-4.0113,-4.0113,-4.0113,-4.0113,-4.0113,-4.0113,-4.0113,-4.0113,-4.0113,-4.0113,-4.0113,-4.0113,-4.0113,-4.0096,-3.9825,-3.9537,-3.9039,-3.8193,-3.7736,-3.8244,-3.8082,-3.7635,-3.9709,-3.9544,-3.9597,-3.9334,-3.8721,-3.8153,-3.7778,-3.7524,-3.7524,-3.7494,-3.7404,-3.7404,-3.7404,-3.7404,-3.7404,-3.7464,-3.7539,-3.7524,-3.7584,-3.7659,-3.7674,-3.7614,-3.7539,-3.7539,-3.7494,-3.7419,-3.7404,-3.7404,-3.7404,-3.7404,-3.7404,-3.7404,-3.7404,-3.718,-3.6731,-3.6205,-3.6165,-3.6646,-3.7507,-3.8613,-3.9885,-3.9961,-3.991,-3.9757,-3.7862,-3.6761,-3.6603,-3.4641,-3.3541,-3.3541,-3.344,-3.3102,-3.2496,-3.2446,-3.2446,0.0,-3.2446,0.0,0.0,0.0,0.0,0.0,0.0,0.0,0.0,-3.3491,-3.3541,-3.3558,-3.3605,-3.4247,-3.5616,-3.5735,-3.6309,-3.7719,-3.799,-3.8294,-3.8903,-3.9073,-3.9402,-4.0028,-4.0113,-4.0113,-4.0079,-4.0113,-4.0113,-4.0113,-4.0113,-4.0079,-4.0079,-4.0079,-4.0113,-4.0113,-4.0113,-4.0113,-4.0113,-4.0113,-4.0113,-4.0113,-4.0113,-4.0113,-4.0113,-4.0113,-4.0113,-4.0113,-4.0113,-4.0113,-4.0113,-3.9495,-3.8886,-3.8481,-3.7804,-3.7483,-3.8108,-3.8278,-3.8125,-4.119,-4.0262,-4.0786,-4.092,-4.0838,-4.0718,-3.9709,-3.8212,-3.8197,-3.7898,-3.7404,-3.7404,-3.7404,-3.7404,-3.7404,-3.7704,-3.8197,-3.8197,-3.8512,-3.905,-3.9,-3.8736,-3.8212,-3.8197,-3.7928,-3.7434,-3.7404,-3.7404,-3.7404,-3.7404,-3.7404,-3.7404,-3.7404,-3.7614,-3.8027,0.0,0.0,0.0,-3.8242,-3.8827,-3.9123,-3.9169,-3.8903,-3.8311,-3.7337,0.0,-3.5819,-3.4827,-3.4286,-3.4269,-3.3728,0.0,0.0,0.0,0.0,0.0,0.0,0.0,0.0,0.0,0.0,0.0,-3.5177,-3.467,-3.3558,-3.3947,-3.4286,-3.4303,-3.4844,-3.5571,-3.6451,-3.6569,-3.6907,-3.7804,-3.8447,-3.8853,-3.9005,-3.9537,-3.996,-4.0079,-4.0113,-4.0113,-4.0113,-4.0113,-4.0113,-4.0113,-4.0113,-4.0113,-4.0113,-4.0113,-4.0113,-4.0113,-4.0113,-4.0113,-4.0113,-4.0113,-4.0113,-4.0113,-4.0113,-4.0113,-4.0113,-4.0113,-4.0096,-4.0079,-4.0113,-4.0079,-4.0079,-3.952,-3.9106,-3.958,-3.9039,-3.8108,-3.6603,-3.6259,-3.6157,-4.1332,-4.0487,-4.1138,-4.1422,0.0,-4.1422,-4.0621,-3.9379,-3.9379,-3.902,-3.8407,-3.8407,-3.8407,-3.8392,-3.8407,-3.8571,-3.8901,-3.8901,-3.908,-3.9388,-3.9388,-3.923,-3.8901,-3.8901,-3.8736,-3.8407,-3.8407,-3.8407,-3.8372,-3.8407,-3.8227,-3.7913,-3.7883,-3.8125,-3.8556,-3.9109,-3.9212,-3.883,-3.8884,-3.9086,-3.9489,-3.9548,-3.9174,-3.8464,-3.7364,0.0,0.0,0.0,0.0,0.0,0.0,0.0,0.0,-3.3947,-3.3931,-3.3947,-3.3947,-3.4269,-3.4979,-3.5047,-3.5199,-3.5583,-3.5977,-3.5707,-3.4551,-3.5199,-3.5644,-3.5661,-3.6315,-3.6907,-3.7297,-3.7652,-3.8041,-3.843,-3.9089,-3.9554,-3.9588,-3.9859,-4.0096,-4.0113,-4.0113,-4.0113,-4.0113,-4.0113,-4.0113,-4.0113,-4.0113,-4.0113,-4.0113,-4.0113,-4.0113,-4.0113,-4.0113,-4.0113,-4.0113,-4.0113,-4.0113,-4.0113,-4.0113,-4.0113,-4.0113,-4.0113,-3.9994,-3.9673,-3.9554,-3.9546,-3.9512,-3.9225,-3.9106,-3.936,-3.8954,-3.8024,-3.6535,-3.6485,-3.6597,-4.1339,-4.0801,-4.1339,-4.1587,-4.1587,-4.1467,-4.101,-4.0397,-4.0277,0.0,0.0,-3.9388,-3.9388,-3.9388,-3.9388,-3.9388,-3.9388,-3.9388,-3.9388,-3.9388,-3.9388,-3.9388,-3.9388,-3.9388,-3.9388,-3.9388,-3.9388,-3.9313,-3.9245,-3.9194,-3.8901,-3.8272,-3.8212,-3.8447,-3.8919,-3.9671,-4.0139,-4.026,-3.952,-3.9437,-4.007,-3.9977,-3.9622,-3.9005,-3.7574,-3.6485,-3.5819,-3.4523,-3.4066,-3.4641,-3.4692,-3.4692,-3.4692,-3.4692,-3.4709,-3.4692,-3.4692,-3.503,-3.5757,-3.5667,-3.5667,-3.5785,-3.6417,-3.6541,-3.5876,-3.6535,-3.6998,-3.6998,-3.7533,-3.7939,-3.8091,-3.8633,-3.9039,-3.9157,-3.974,-4.0096,-4.0096,-4.0113,-4.0113,-4.0113,-4.0113,-4.0113,-4.0113,-4.0113,-4.0113,-4.0113,-4.0113,-4.0113,-4.0113,-4.0113,-4.0113,-4.0113,-4.0113,-4.0113,-4.0113,-4.0113,-4.0113,-4.0113,-3.9994,-3.991,-3.9893,-3.9808,-3.9537,-3.9165,-3.8903,-3.8886,-3.8954,-3.8717,-3.8734,-3.8937,-3.8413,-3.7821,-3.7557,-3.7753,-3.7702,-4.2656,-4.2126,-4.2231,-4.2261,-4.2231,-4.1647,-4.1025,-4.0367,-3.9762,-3.9478,-3.9388,-3.9388,-3.9388,-3.9388,-3.9388,-3.9388,-3.9388,-3.9388,-3.9388,-3.9388,-3.9388,-3.9388,-3.9388,-3.9388,-3.9388,-3.9388,-3.9388,-3.9125,-3.8586,-3.8542,-3.8197,-3.7629,-3.7554,-3.8277,-3.9608,-3.9858,-4.0304,-4.1013,-4.0315,-3.9978,-4.0096,-3.9462,-3.9131,-3.8937,-3.7591,-3.6761,-3.6626,-3.5757,-3.5329,-3.543,-3.5447,-3.5447,-3.5447,-3.543,-3.5447,-3.5447,-3.5453,-3.5808,-3.6535,-3.6011,-3.591,-3.6575,-3.6728,-3.6761,-3.6677,-3.7313,-3.7736,-3.7753,-3.7905,-3.8176,-3.8751,-3.8937,-3.9283,-3.9808,-4.0028,-4.0113,-4.0113,-4.0113,-4.0113,-4.0113,-4.0113,-4.0113,-4.0113,-4.0113,-4.0113,-4.0113,-4.0113,-4.0113,-4.0113,-4.0113,-4.0113,-4.0113,-4.0113,-4.0113,-4.0096,-4.0113,-4.0062,-4.0113,-3.9588,-3.9283,-3.9351,-3.8802,-3.8548,-3.8886,-3.8447,-3.8328,-3.8734,-3.7929,-3.7905,-3.865,-3.8447,-3.8227,-3.9063,-3.9022,-3.8159,-4.2746,-4.1961,-4.2261,-4.2201,-4.1826,-4.113,-4.0696,-4.0352,-3.9709,-3.9388,-3.9388,-3.9388,-3.9388,-3.9388,-3.9388,-3.9388,-3.9388,-3.9388,-3.9388,-3.9388,-3.9388,-3.9388,-3.9388,-3.9388,-3.9388,-3.9388,-3.9388,-3.9065,-3.8437,-3.8377,-3.7883,-3.7038,-3.778,-3.8403,-3.8811,-3.9979,-4.0611,-4.0612,-4.0282,-4.0113,-4.0113,-3.9749,-3.9419,-3.9005,-3.8311,-3.7811,-3.7398,-3.6654,-3.6248,-3.6248,-3.5842,-3.5616,-3.5616,-3.5616,-3.5616,-3.5616,-3.5616,-3.596,-3.6761,-3.684,-3.684,-3.6829,-3.7557,-3.799,-3.8014,-3.8294,-3.8481,-3.8514,-3.8836,-3.9039,-3.9039,-3.9368,-3.9571,-3.952,-3.9842,-4.0096,-4.0113,-4.0113,-4.0113,-4.0113,-4.0113,-4.0113,-4.0113,-4.0113,-4.0113,-4.0113,-4.0113,-4.0096,-4.0079,-4.0079,-4.0096,-4.0079,-3.9791,-3.974,-3.9977,-3.974,-3.9706,-4.0028,-3.9478,-3.9249,-3.9377,-3.8717,-3.8142,-3.8278,-3.7804,-3.7483,-3.7828,-3.7675,-3.7922,-3.8582,-3.8785,-3.8886,-3.9276,-3.892,-3.7922,-4.2611,-4.1878,-4.2081,-4.1796,-4.1153,-4.0457,-4.0172,-4.0127,-3.9619,-3.9388,-3.9388,-3.9388,-3.9388,-3.9388,-3.9388,-3.9388,-3.9388,-3.9388,-3.9388,-3.9388,-3.9388,-3.9349,-3.9179,-3.9334,-3.9313,-3.923,-3.9334,-3.899,-3.8257,-3.8182,-3.7612,-3.6804,-3.8098,-3.8624,-3.8108,-3.9967,-4.0663,-4.013,-4.0113,-4.0113,-4.0113,-4.0113,-3.9842,-3.9292,-3.9073,-3.8734,-3.8159,-3.7432,-3.7049,-3.7015,-3.6299,-3.5938,-3.609,-3.5977,-3.5938,-3.609,-3.6107,-3.64,-3.6992,-3.7736,-3.7905,-3.7371,-3.8328,-3.9056,-3.9249,-3.9225,-3.9242,-3.9334,-3.974,-3.9842,-3.9469,-3.9723,-3.9893,-3.9343,-3.9757,-4.0096,-4.0113,-4.0113,-4.0113,-4.0113,-4.0113,-4.0113,-4.0113,-4.0113,-4.0028,-3.9876,-3.9859,-3.9825,-3.9673,-3.9622,-3.9605,-3.9529,-3.9249,-3.9225,-3.9723,-3.9436,-3.9208,-3.9597,-3.9106,-3.8954,-3.9073,-3.8311,-3.7753,-3.7686,-3.7127,-3.6755,-3.6812,-3.7009,-3.7635,-3.8379,-3.8599,-3.8734,-3.8954,-3.8261,-3.7753,-4.2716,-4.2901,-4.1968,-4.11,-4.0472,-3.9828,-3.9559,-3.9529,-3.9439,-3.9388,-3.9388,-3.9388,-3.9388,-3.9388,-3.9388,-3.9388,-3.9388,-3.9388,-3.9388,-3.9388,-3.9388,-3.908,-3.8646,-3.914,-3.908,-3.8676,-3.914,-3.8766,-3.7683,-3.7548,-3.7225,-3.6817,-3.8141,-3.8871,-3.8914,-3.9746,-4.018,-4.0113,-4.0113,-4.0113,-4.0113,-4.0113,-4.0062,-4.0011,-3.9351,-3.8971,-3.8886,-3.8176,-3.7804,-3.7753,-3.7077,-3.6992,-3.7499,-3.7043,-3.6958,-3.7601,-3.7669,-3.7753,-3.7838,-3.8481,-3.8853,-3.8826,-3.8886,-3.9292,-3.9893,-3.9977,-3.9994,-3.9994,-4.0045,-4.0062,-4.0011,-4.0062,-4.0062,-3.9943,-4.0028,-4.0113,-4.0113,-4.0113,-4.0113,-4.0113,-4.0113,-4.0113,-4.0113,-4.0113,-3.9859,-3.9419,-3.9259,-3.9056,-3.8565,-3.8379,-3.8328,-3.8328,-3.8531,-3.8903,-3.9056,-3.9056,-3.87,-3.8311,-3.8108,-3.8142,-3.799,-3.7178,-3.6214,-3.7364,-3.6681,-3.6113,-3.6332,-3.6383,-3.6468,-3.7652,-3.8091,-3.821,-3.8616,-3.7973,-3.7466,-4.2851,-4.2701,-4.2216,-4.1392,-4.0427,-4.0113,-3.9783,-3.9403,-3.9388,-3.9388,-3.9388,-3.9388,-3.9388,-3.9388,-3.9388,-3.9388,-3.9388,-3.9388,-3.9388,-3.9388,-3.9388,-3.926,-3.905,-3.926,-3.926,-3.9035,-3.9254,-3.8953,-3.8177,-3.7807,-3.7527,-3.7415,-3.8398,-3.8924,-3.8962,-3.9688,-4.0113,-4.0113,-4.0113,-4.0113,-4.0113,-4.0113,-4.0113,-4.0079,-3.9825,-3.9656,-3.9588,-3.8937,-3.8548,-3.8497,-3.7855,-3.7584,-3.7889,-3.7618,-3.7567,-3.7905,-3.8311,-3.8362,-3.7915,-3.8988,-3.9469,-3.9022,-3.9394,-3.9808,-4.0062,-4.0113,-4.0113,-4.0113,-4.0113,-4.0113,-4.0113,-4.0113,-4.0113,-4.0113,-4.0113,-4.0113,-4.0113,-4.0113,-4.0113,-4.0113,-4.0113,-4.0113,-4.0113,-4.0113,-3.9977,-3.9639,-3.9309,-3.8836,-3.8548,-3.8193,-3.7922,-3.7889,-3.7838,-3.7912,-3.8193,-3.7922,-3.777,-3.7787,-3.7516,-3.7297,-3.7584,-3.6597,-3.6028,-3.7094,-3.6282,-3.5735,-3.5977,-3.6366,-3.6603,-3.7313,-3.7719,-3.8024,-3.8311,-3.7872,-3.7855,-4.291,-4.2596,-4.2291,-4.1467,-4.0412,-4.0202,-3.9858,-3.9418,-3.9388,-3.9388,-3.9388,-3.9388,-3.9388,-3.9388,-3.9388,-3.9388,-3.9388,-3.9388,-3.9305,-3.917,-3.914,-3.8945,-3.8661,-3.8811,-3.882,-3.8891,-3.9073,-3.9005,-3.8653,-3.8296,-3.8121,-3.8189,-3.887,-3.9236,-3.9289,-3.985,-4.0113,-4.0113,-4.0113,-4.0113,-4.0113,-4.0113,-4.0113,-4.0113,-4.0113,-4.0113,-4.0096,-3.9588,-3.9317,-3.9283,-3.8599,-3.8294,-3.8481,-3.8328,-3.8294,-3.8514,-3.8988,-3.9073,-3.8531,-3.9503,-3.9876,-3.9411,-3.98,-4.0113,-4.0113,-4.0113,-4.0113,-4.0113,-4.0113,-4.0113,-4.0113,-4.0113,-4.0113,-4.0113,-4.0113,-4.0113,-4.0113,-4.0113,-4.0113,-4.0113,-4.0113,-4.0113,-4.0113,-4.0096,-4.0028,-3.9706,-3.9317,-3.887,-3.87,-3.8227,-3.7898,-3.7905,-3.7432,-3.7297,-3.7516,-3.7263,-3.7094,-3.7026,-3.6857,-3.7049,-3.7449,-3.6349,-3.5893,-3.6705,-3.6011,-3.5684,-3.5752,-3.6197,-3.6609,-3.6846,-3.7195,-3.7567,-3.7601,-3.7432,-3.7263,-4.2746,-4.3035,-4.1953,-4.107,-4.0367,-3.9783,-3.9469,-3.9388,-3.9388,-3.9388,-3.9388,-3.9388,-3.9388,-3.9388,-3.9388,-3.9388,-3.9388,-3.9388,-3.911,-3.8601,-3.8497,-3.7808,-3.6701,-3.721,-3.7539,-3.7846,-3.844,-3.8746,-3.8822,-3.886,-3.8854,-3.8908,-3.961,-4.002,-3.9995,-4.0045,-4.0113,-4.0113,-4.0113,-4.0113,-4.0113,-4.0113,-4.0113,-4.0113,-4.0113,-4.0113,-4.0096,-4.0062,-4.0045,-4.0045,-3.9326,-3.9266,-3.9808,-3.9309,-3.9225,-3.9859,-3.9994,-4.0011,-3.9926,-4.0028,-4.0062,-4.0028,-4.0045,-4.0113,-4.0113,-4.0113,-4.0113,-4.0113,-4.0113,-4.0113,-4.0113,-4.0113,-4.0113,-4.0113,-4.0113,-4.0113,-4.0113,-4.0113,-4.0113,-4.0113,-4.0113,-4.0113,-4.0113,-4.0113,-3.9825,-3.9385,-3.908,-3.8819,-3.8311,-3.8007,-3.7898,-3.7898,-3.7804,-3.7635,-3.7049,-3.7049,-3.6654,-3.6451,-3.6778,-3.6778,-3.6518,-3.6315,-3.6366,-3.6315,-3.5904,-3.5667,-3.5633,-3.5791,-3.6113,-3.6366,-3.6609,-3.6846,-3.6823,-3.6197,-3.6056,-4.3105,-4.317,-4.1923,-4.122,-4.0965,-4.0322,-3.9813,-3.9403,-3.9388,-3.9388,-3.9388,-3.9388,-3.9388,-3.9388,-3.9388,-3.9388,-3.9388,-3.9388,-3.929,-3.899,-3.8601,-3.8138,-3.7749,-3.7539,-3.7696,-3.8183,-3.8464,-3.892,-3.9455,-3.9628,-3.9679,-3.9688,-3.9944,-4.0113,-4.0113,-4.0113,-4.0113,-4.0113,-4.0113,-4.0113,-4.0113,-4.0113,-4.0113,-4.0113,-4.0113,-4.0113,-4.0113,-4.0113,-4.0113,-4.0113,-3.9842,-3.9825,-4.0045,-3.9859,-3.9808,-4.0062,-4.0113,-4.0113,-4.0113,-4.0113,-4.0113,-4.0113,-4.0113,-4.0113,-4.0113,-4.0113,-4.0113,-4.0113,-4.0113,-4.0113,-4.0113,-4.0113,-4.0113,-4.0113,-4.0113,-4.0113,-4.0113,-4.0113,-4.0113,-4.0113,-4.0113,-4.0113,-4.0113,-4.0113,-3.9994,-3.9723,-3.9334,-3.8937,-3.8633,-3.8244,-3.8007,-3.7915,-3.7905,-3.7821,-3.7601,-3.7516,-3.7313,-3.6772,-3.6643,-3.6451,-3.6231,-3.6079,-3.6039,-3.6113,-3.5802,-3.5667,-3.5616,-3.5633,-3.591,-3.5926,-3.6146,-3.6231,-3.6045,-3.5836,-3.5701,-4.2761,-4.2267,-4.1444,-4.0935,-4.0696,-4.0277,-3.9828,-3.9403,-3.9388,-3.9388,-3.9388,-3.9388,-3.9388,-3.9388,-3.9388,-3.9388,-3.9388,-3.9388,-3.9305,-3.9065,-3.8601,-3.8272,-3.8018,-3.7614,-3.7831,-3.8565,-3.8921,-3.9374,-3.9901,-4.006,-4.0087,-4.0113,-4.0113,-4.0113,-4.0113,-4.0113,-4.0113,-4.0113,-4.0113,-4.0113,-4.0113,-4.0113,-4.0113,-4.0113,-4.0113,-4.0113,-4.0113,-4.0113,-4.0113,-4.0113,-4.0113,-4.0113,-4.0113,-4.0113,-4.0113,-4.0113,-4.0113,-4.0113,-4.0113,-4.0113,-4.0113,-4.0113,-4.0113,-4.0113,-4.0113,-4.0113,-4.0113,-4.0113,-4.0113,-4.0113,-4.0113,-4.0113,-4.0113,-4.0113,-4.0113,-4.0113,-4.0113,-4.0113,-4.0113,-4.0113,-4.0113,-4.0113,-4.0113,-4.0113,-4.0096,-4.0113,-3.9639,-3.9385,-3.9259,-3.8971,-3.8616,-3.8599,-3.87,-3.8734,-3.87,-3.8734,-3.8142,-3.7567,-3.7178,-3.6772,-3.64,-3.614,-3.5955,-3.5943,-3.5825,-3.5667,-3.5616,-3.5616,-3.5616,-3.5616,-3.5752,-3.5926,-3.5859,-3.5842,-3.5893,-4.1677,-4.0666,-4.0412,-4.0098,-3.9709,-3.9523,-3.9418,-3.9388,-3.9388,-3.9388,-3.9388,-3.9388,-3.9388,-3.9388,-3.9388,-3.9388,-3.9388,-3.9388,-3.9125,-3.8601,-3.8437,-3.8093,-3.7599,-3.7479,-3.7822,-3.8681,-3.9524,-3.9978,-4.0189,-4.0214,-4.0231,-4.0163,-4.013,-4.0113,-4.0113,-4.0113,-4.0113,-4.0113,-4.0113,-4.0113,-4.0113,-4.0113,-4.0113,-4.0113,-4.0113,-4.0113,-4.0113,-4.0113,-4.0113,-4.0113,-4.0113,-4.0113,-4.0113,-4.0113,-4.0113,-4.0113,-4.0113,-4.0113,-4.0113,-4.0113,-4.0113,-4.0113,-4.0113,-4.0113,-4.0113,-4.0113,-4.0113,-4.0113,-4.0113,-4.0113,-4.0113,-4.0113,-4.0113,-4.0113,-4.0113,-4.0113,-4.0113,-4.0113,-4.0113,-4.0113,-4.0113,-4.0113,-4.0113,-4.0113,-4.0113,-4.0096,-4.0028,-3.996,-3.9926,-3.9808,-3.9994,-3.9977,-3.974,-3.9554,-3.9825,-3.9977,-3.9148,-3.8379,-3.8075,-3.7702,-3.7347,-3.706,-3.6823,-3.6705,-3.618,-3.6045,-3.5943,-3.591,-3.5633,-3.5616,-3.5684,-3.5893,-3.6113,-3.6265,-3.6366,-4.1444,-4.098,-4.0083,-3.9888,-3.9993,-3.9619,-3.9388,-3.9388,-3.9388,-3.9388,-3.9388,-3.9388,-3.9388,-3.9388,-3.9388,-3.9388,-3.9388,-3.9388,-3.929,-3.905,-3.8616,-3.8302,-3.8048,-3.7629,-3.7857,-3.8946,-4.0682,-4.1288,-4.0881,-4.0832,-4.0849,-4.0781,-4.035,-4.0113,-4.0113,-4.0113,-4.0113,-4.0113,-4.0113,-4.0113,-4.0113,-4.0113,-4.0113,-4.0113,-4.0113,-4.0113,-4.0113,-4.0113,-4.0113,-4.0113,-4.0113,-4.0113,-4.0113,-4.0113,-4.0113,-4.0113,-4.0113,-4.0113,-4.0113,-4.0113,-4.0113,-4.0113,-4.0113,-4.0113,-4.0113,-4.0113,-4.0113,-4.0113,-4.0113,-4.0113,-4.0113,-4.0113,-4.0113,-4.0113,-4.0113,-4.0113,-4.0113,-4.0113,-4.0113,-4.0113,-4.0113,-4.0113,-4.0113,-4.0113,-4.0113,-4.0113,-4.0113,-4.0113,-4.0113,-4.0113,-4.0096,-4.0096,-4.0113,-4.0113,-4.0113,-4.0113,-3.969,-3.9148,-3.8853,-3.8582,-3.8244,-3.7872,-3.7635,-3.728,-3.6755,-3.6468,-3.6366,-3.6214,-3.6022,-3.5785,-3.5853,-3.6197,-3.6626,-3.6846,-3.6907,-4.1272,-4.092,-4.0127,-4.0008,-4.0352,-3.9948,-3.9619,-3.9418,-3.9388,-3.9388,-3.9388,-3.9388,-3.9388,-3.9388,-3.9388,-3.9388,-3.9388,-3.9388,-3.9388,-3.9343,-3.9005,-3.8766,-3.8802,-3.8803,-3.8788,-3.9388,-4.1012,-4.1491,-4.0849,-4.1052,-4.1068,-4.0747,-4.0578,-4.0367,-4.0146,-4.0113,-4.0113,-4.0113,-4.0113,-4.0113,-4.0113,-4.0113,-4.0113,-4.0113,-4.0113,-4.0113,-4.0113,-4.0113,-4.0113,-4.0113,-4.0113,-4.0113,-4.0113,-4.0113,-4.0113,-4.0113,-4.0113,-4.0113,-4.0113,-4.0113,-4.0113,-4.0113,-4.0113,-4.0113,-4.0113,-4.0113,-4.0113,-4.0113,-4.0113,-4.0113,-4.0113,-4.0113,-4.0113,-4.0113,-4.0113,-4.0113,-4.0113,-4.0113,-4.0113,-4.0113,-4.0113,-4.0113,-4.0113,-4.0113,-4.0113,-4.0113,-4.0113,-4.0113,-4.0113,-4.0113,-4.0113,-4.0113,-4.0113,-4.0113,-4.0113,-4.0113,-4.0113,-3.9859,-3.9622,-3.9385,-3.9073,-3.8599,-3.8278,-3.7821,-3.733,-3.7246,-3.7144,-3.6975,-3.6766,-3.6479,-3.6343,-3.7026,-3.7584,-3.7381,-3.7483,-4.1055,-4.0487,-4.0412,-4.0367,-4.0382,-4.0277,-3.9903,-3.9433,-3.9388,-3.9388,-3.9388,-3.9388,-3.9388,-3.9388,-3.9388,-3.9388,-3.9388,-3.9388,-3.9388,-3.9388,-3.9334,-3.9341,-3.9546,-4.0292,-4.0371,-4.0093,-4.1039,-4.1017,-4.046,-4.0933,-4.0882,-4.0587,-4.0832,-4.0815,-4.0333,-4.0163,-4.0113,-4.0113,-4.0113,-4.0113,-4.0113,-4.0113,-4.0113,-4.0113,-4.0113,-4.0113,-4.0113,-4.0113,-4.0113,-4.0113,-4.0113,-4.0113,-4.0113,-4.0113,-4.0113,-4.0113,-4.0113,-4.0113,-4.0113,-4.0113,-4.0113,-4.0113,-4.0113,-4.0113,-4.0113,-4.0113,-4.0113,-4.0113,-4.0113,-4.0113,-4.0113,-4.0113,-4.0113,-4.0113,-4.0113,-4.0113,-4.0113,-4.0113,-4.0113,-4.0113,-4.0113,-4.0113,-4.0113,-4.0113,-4.0113,-4.0113,-4.0113,-4.0113,-4.0113,-4.0113,-4.0113,-4.0113,-4.0113,-4.0113,-4.0113,-4.0113,-4.0113,-4.0062,-3.9926,-3.9825,-3.969,-3.9276,-3.9005,-3.8531,-3.8058,-3.8007,-3.7855,-3.7652,-3.7533,-3.7341,-3.7635,-3.8261,-3.8328,-3.8091,-3.8227,-4.1752,-4.1085,-4.0606,-4.0412,-4.0322,-3.9903,-3.9568,-3.9403,-3.9388,-3.9388,-3.9388,-3.9388,-3.9388,-3.9388,-3.9388,-3.9388,-3.9388,-3.9388,-3.9388,-3.9388,-3.9388,-3.9809,-4.0432,-4.1255,-4.135,-4.0961,-4.1988,-4.2151,-4.1001,-4.1187,-4.1407,-4.166,-4.0891,-4.0663,-4.0781,-4.0367,-4.013,-4.0113,-4.0113,-4.0113,-4.0113,-4.0113,-4.0113,-4.0113,-4.0113,-4.0113,-4.0113,-4.0113,-4.0113,-4.0113,-4.0113,-4.0113,-4.0113,-4.0113,-4.0113,-4.0113,-4.0113,-4.0113,-4.0113,-4.0113,-4.0113,-4.0113,-4.0113,-4.0113,-4.0113,-4.0113,-4.0113,-4.0113,-4.0113,-4.0113,-4.0113,-4.0113,-4.0113,-4.0113,-4.0113,-4.0113,-4.0113,-4.0113,-4.0113,-4.0113,-4.0113,-4.0113,-4.0113,-4.0113,-4.0113,-4.0113,-4.0113,-4.0113,-4.0113,-4.0113,-4.0113,-4.0113,-4.0113,-4.0113,-4.0113,-4.0113,-4.0113,-4.0113,-4.0062,-4.0028,-3.996,-3.9825,-3.974,-3.9588,-3.8937,-3.8717,-3.8481,-3.8261,-3.8193,-3.8244,-3.8244,-3.8514,-3.8768,-3.8734,-3.9063,-4.1347,-4.095,-4.0561,-4.0412,-4.0352,-3.9993,-3.9679,-3.9418,-3.9388,-3.9388,-3.9388,-3.9388,-3.9388,-3.9388,-3.9388,-3.9388,-3.9388,-3.9388,-3.9388,-3.9481,-3.9793,-4.0239,-4.0878,-4.1885,-4.2197,-4.1679,-4.278,-4.2655,-4.1914,-4.1948,-4.2219,-4.21,-4.1467,-4.1119,-4.1085,-4.0476,-4.0113,-4.0113,-4.0113,-4.0113,-4.0113,-4.0113,-4.0113,-4.0113,-4.0113,-4.0113,-4.0113,-4.0113,-4.0113,-4.0113,-4.0113,-4.0113,-4.0113,-4.0113,-4.0113,-4.0113,-4.0113,-4.0113,-4.0113,-4.0113,-4.0113,-4.0113,-4.0113,-4.0113,-4.0113,-4.0113,-4.0113,-4.0113,-4.0113,-4.0113,-4.0113,-4.0113,-4.0113,-4.0113,-4.0113,-4.0113,-4.0113,-4.0113,-4.0113,-4.0113,-4.0113,-4.0113,-4.0113,-4.0113,-4.0113,-4.0113,-4.0113,-4.0113,-4.0113,-4.0113,-4.0113,-4.0113,-4.0113,-4.0113,-4.0113,-4.0113,-4.0113,-4.0113,-4.0113,-4.0113,-4.0113,-4.0113,-4.0062,-3.9943,-3.9639,-3.9377,-3.914,-3.9022,-3.9157,-3.9089,-3.8853,-3.887,-3.9225,-3.9292,-3.9656,-4.0516,-4.0502,-4.0442,-4.0412,-4.0397,-4.0307,-3.9873,-3.9463,-3.9388,-3.9388,-3.9388,-3.9388,-3.9388,-3.9388,-3.9388,-3.9388,-3.9424,-3.9625,-3.9737,-4.0095,-4.0619,-4.118,-4.1412,-4.252,-4.2815,-4.2493,-4.3093,-4.2875,-4.2439,-4.2844,-4.2912,-4.2523,-4.2303,-4.2016,-4.1576,-4.0747,-4.0265,-4.0257,-4.0163,-4.0113,-4.0113,-4.0113,-4.0113,-4.0113,-4.0113,-4.0113,-4.0113,-4.0113,-4.0113,-4.0113,-4.0113,-4.0113,-4.0113,-4.0113,-4.0113,-4.0113,-4.0113,-4.0113,-4.0113,-4.0113,-4.0113,-4.0113,-4.0113,-4.0113,-4.0113,-4.0113,-4.0113,-4.0113,-4.0113,-4.0113,-4.0113,-4.0113,-4.0113,-4.0113,-4.0113,-4.0113,-4.0113,-4.0113,-4.0113,-4.0113,-4.0113,-4.0113,-4.0113,-4.0113,-4.0113,-4.0113,-4.0113,-4.0113,-4.0113,-4.0113,-4.0113,-4.0113,-4.0113,-4.0113,-4.0113,-4.0113,-4.0113,-4.0113,-4.0113,-4.0113,-4.0113,-4.0113,-4.0113,-3.9994,-3.9825,-3.9808,-3.9859,-3.9876,-3.991,-3.9859,-3.952,-3.974,-4.0028,-3.9842,-3.9977,-4.116,-4.1168,-4.0621,-4.0412,-4.0322,-3.9858,-3.9559,-3.9388,-3.9388,-3.9388,-3.9388,-3.9388,-3.9388,-3.9388,-3.9388,-3.9388,-3.9574,-4.013,-4.0758,-4.1559,-4.2332,-4.2707,-4.2754,-4.3246,-4.3252,-4.3199,-4.3282,-4.3047,-4.2608,-4.2692,-4.2811,-4.3132,-4.2675,-4.2523,-4.2648,-4.1559,-4.0967,-4.0882,-4.0468,-4.0231,-4.0231,-4.0197,-4.0146,-4.0113,-4.0113,-4.0113,-4.0113,-4.0113,-4.0113,-4.0113,-4.0113,-4.0113,-4.0113,-4.0113,-4.0113,-4.0113,-4.0113,-4.0113,-4.0113,-4.0113,-4.0113,-4.0113,-4.0113,-4.0113,-4.0113,-4.0113,-4.0113,-4.0113,-4.0113,-4.0113,-4.0113,-4.0113,-4.0113,-4.0113,-4.0113,-4.0113,-4.0113,-4.0113,-4.0113,-4.0113,-4.0113,-4.0113,-4.0113,-4.0113,-4.0113,-4.0113,-4.0113,-4.0113,-4.0113,-4.0113,-4.0113,-4.0113,-4.0113,-4.0113,-4.0113,-4.0113,-4.0113,-4.0113,-4.0113,-4.0113,-4.0113,-4.0113,-4.0113,-4.0113,-4.0079,-4.0113,-4.0113,-4.0096,-4.0011,-4.0079,-4.0113,-4.0113,-4.0113,-4.0113,-4.0113,-4.0472,-4.0427,-4.0083,-3.9948,-3.9888,-3.9574,-3.9388,-3.9388,-3.9388,-3.9388,-3.9388,-3.9388,-3.9388,-3.9388,-3.9424,-3.9574,-4.0135,-4.0894,-4.1543,-4.2093,-4.2847,-4.3486,-4.3902,-4.3902,-4.3944,-4.395,-4.3978,-4.369,-4.3481,-4.3379,-4.3656,-4.3859,-4.32,-4.3047,-4.3223,-4.2303,-4.1762,-4.1677,-4.1356,-4.1128,-4.1102,-4.0764,-4.0383,-4.018,-4.0113,-4.0113,-4.0113,-4.0113,-4.0113,-4.0113,-4.0113,-4.0113,-4.0113,-4.0113,-4.0113,-4.0113,-4.0113,-4.0113,-4.0113,-4.0113,-4.0113,-4.0113,-4.0113,-4.0113,-4.0113,-4.0113,-4.0113,-4.0113,-4.0113,-4.0113,-4.0113,-4.0113,-4.0113,-4.0113,-4.0113,-4.0113,-4.0113,-4.0113,-4.0113,-4.0113,-4.0113,-4.0113,-4.0113,-4.0113,-4.0113,-4.0113,-4.0113,-4.0113,-4.0113,-4.0113,-4.0113,-4.0113,-4.0113,-4.0113,-4.0113,-4.0113,-4.0113,-4.0113,-4.0113,-4.0113,-4.0113,-4.0113,-4.0113,-4.0113,-4.0113,-4.0113,-4.0113,-4.0113,-4.0113,-4.0113,-4.0113,-4.0113,-4.0113,-4.0113,-4.0113,-3.9388,-3.9388,-3.9388,-3.9388,-3.9388,-3.9388,-3.9388,-3.9388,-3.9388,-3.9388,-3.9388,-3.9388,-3.9388,-3.9388,-3.9388,-3.9935,-4.0894,-4.1528,-4.2062,-4.2769,-4.3336,-4.3902,-4.4355,-4.4468,-4.4452,-4.4598,-4.4513,-4.4462,-4.4462,-4.4581,-4.4344,-4.4445,-4.3961,-4.369,-4.347,-4.2878,-4.2455,-4.2439,-4.2185,-4.2066,-4.1982,-4.1474,-4.0798,-4.0231,-4.0113,-4.0113,-4.0113,-4.0113,-4.0113,-4.0113,-4.0113,-4.0113,-4.0113,-4.0113,-4.0113,-4.0113,-4.0113,-4.0113,-4.0113,-4.0113,-4.0113,-4.0113,-4.0113,-4.0113,-4.0113,-4.0113,-4.0113,-4.0113,-4.0113,-4.0113,-4.0113,-4.0113,-4.0113,-4.0113,-4.0113,-4.0113,-4.0113,-4.0113,-4.0113,-4.0113,-4.0113,-4.0113,-4.0113,-4.0113,-4.0113,-4.0113,-4.0113,-4.0113,-4.0113,-4.0113,-4.0113,-4.0113,-4.0113,-4.0113,-4.0113,-4.0113,-4.0113,-4.0113,-4.0113,-4.0113,-4.0113,-4.0113,-4.0113,-4.0113,-4.0113,-4.0113,-4.0113,-4.0113,-4.0113,-4.0113,-4.0113,-4.0113,-4.0113,-4.0113,-4.0113,-3.9388,-3.9388,-3.9388,-3.9388,-3.9388,-3.9388,-3.9388,-3.9388,-3.9388,-3.9388,-3.9388,-3.9388,-3.9388,-3.9388,-3.9388,-4.0255,-4.1346,-4.2062,-4.28,-4.3693,-4.415,-4.4468,-4.4514,-4.4598,-4.4598,-4.4598,-4.4598,-4.4598,-4.4598,-4.4598,-4.4598,-4.4564,-4.4429,-4.4316,-4.4096,-4.3656,-4.3234,-4.3166,-4.2811,-4.2557,-4.2371,-4.1728,-4.0899,-4.0231,-4.0113,-4.0113,-4.0113,-4.0113,-4.0113,-4.0113,-4.0113,-4.0113,-4.0113,-4.0113,-4.0113,-4.0113,-4.0113,-4.0113,-4.0113,-4.0113,-4.0113,-4.0113,-4.0113,-4.0113,-4.0113,-4.0113,-4.0113,-4.0113,-4.0113,-4.0113,-4.0113,-4.0113,-4.0113,-4.0113,-4.0113,-4.0113,-4.0113,-4.0113,-4.0113,-4.0113,-4.0113,-4.0113,-4.0113,-4.0113,-4.0113,-4.0113,-4.0113,-4.0113,-4.0113,-4.0113,-4.0113,-4.0113,-4.0113,-4.0113,-4.0113,-4.0113,-4.0113,-4.0113,-4.0113,-4.0113,-4.0113,-4.0113,-4.0113,-4.0113,-4.0113,-4.0113,-4.0113,-4.0113,-4.0113,-4.0113,-4.0113,-4.0113,-4.0113,-4.0113,-4.0113,-3.9388,-3.9388,-3.9388,-3.9388,-3.9388,-3.9388,-3.9388,-3.9388,-3.9388,-3.9388,-3.9388,-3.9388,-3.9388,-3.9388,-3.9388,-4.0165,-4.128,-4.2923,-4.3515,-4.4064,-4.4355,-4.4598,-4.4598,-4.4598,-4.4598,-4.4598,-4.4598,-4.4598,-4.4598,-4.4598,-4.4598,-4.4598,-4.4598,-4.4598,-4.4547,-4.4215,-4.4012,-4.3876,-4.3623,-4.342,-4.3311,-4.2371,-4.1297,-4.04,-4.0113,-4.0113,-4.0113,-4.0113,-4.0113,-4.0113,-4.0113,-4.0113,-4.0113,-4.0113,-4.0113,-4.0113,-4.0113,-4.0113,-4.0113,-4.0113,-4.0113,-4.0113,-4.0113,-4.0113,-4.0113,-4.0113,-4.0113,-4.0113,-4.0113,-4.0113,-4.0113,-4.0113,-4.0113,-4.0113,-4.0113,-4.0113,-4.0113,-4.0113,-4.0113,-4.0113,-4.0113,-4.0113,-4.0113,-4.0113,-4.0113,-4.0113,-4.0113,-4.0113,-4.0113,-4.0113,-4.0113,-4.0113,-4.0113,-4.0113,-4.0113,-4.0113,-4.0113,-4.0113,-4.0113,-4.0113,-4.0113,-4.0113,-4.0113,-4.0113,-4.0113,-4.0113,-4.0113,-4.0113,-4.0113,-4.0113,-4.0113,-4.0113,-4.0113,-4.0113,-4.0113,-3.9388,-3.9388,-3.9388,-3.9388,-3.9388,-3.9388,-3.9388,-3.9388,-3.9388,-3.9388,-3.9388,-3.9388,-3.9388,-3.9445,-3.9717,-4.022,-4.1147,-4.338,-4.386,-4.3948,-4.4281,-4.4598,-4.4598,-4.4598,-4.4598,-4.4598,-4.4598,-4.4598,-4.4598,-4.4598,-4.4598,-4.4598,-4.4598,-4.4598,-4.4564,-4.4513,-4.4598,-4.4598,-4.4598,-4.4547,-4.3904,-4.2956,-4.1576,-4.0282,-4.0113,-4.0113,-4.0113,-4.0113,-4.0113,-4.0113,-4.0113,-4.0113,-4.0113,-4.0113,-4.0113,-4.0113,-4.0113,-4.0113,-4.0113,-4.0113,-4.0113,-4.0113,-4.0113,-4.0113,-4.0113,-4.0113,-4.0113,-4.0113,-4.0113,-4.0113,-4.0113,-4.0113,-4.0113,-4.0113,-4.0113,-4.0113,-4.0113,-4.0113,-4.0113,-4.0113,-4.0113,-4.0113,-4.0113,-4.0113,-4.0113,-4.0113,-4.0113,-4.0113,-4.0113,-4.0113,-4.0113,-4.0113,-4.0113,-4.0113,-4.0113,-4.0113,-4.0113,-4.0113,-4.0113,-4.0113,-4.0113,-4.0113,-4.0113,-4.0113,-4.0113,-4.0113,-4.0113,-4.0113,-4.0113,-4.0113,-4.0113,-4.0113,-4.0113,-4.0113,-4.0113,-3.9388,-3.9388,-3.9388,-3.9388,-3.9388,-3.9388,-3.9388,-3.9388,-3.9388,-3.9388,-3.9388,-3.9388,-3.9388,-3.9589,-4.032,-4.106,-4.1997,-4.3129,-4.411,-4.4421,-4.4564,-4.4598,-4.4598,-4.4598,-4.4598,-4.4598,-4.4598,-4.4598,-4.4598,-4.4598,-4.4598,-4.4598,-4.4598,-4.4598,-4.4598,-4.4598,-4.4598,-4.4598,-4.4598,-4.4005,-4.2912,-4.2455,-4.1491,-4.0587,-4.0113,-4.0113,-4.0113,-4.0113,-4.0113,-4.0113,-4.0113,-4.0113,-4.0113,-4.0113,-4.0113,-4.0113,-4.0113,-4.0113,-4.0113,-4.0113,-4.0113,-4.0113,-4.0113,-4.0113,-4.0113,-4.0113,-4.0113,-4.0113,-4.0113,-4.0113,-4.0113,-4.0113,-4.0113,-4.0113,-4.0113,-4.0113,-4.0113,-4.0113,-4.0113,-4.0113,-4.0113,-4.0113,-4.0113,-4.0113,-4.0113,-4.0113,-4.0113,-4.0113,-4.0113,-4.0113,-4.0113,-4.0113,-4.0113,-4.0113,-4.0113,-4.0113,-4.0113,-4.0113,-4.0113,-4.0113,-4.0113,-4.0113,-4.0113,-4.0113,-4.0113,-4.0113,-4.0113,-4.0113,-4.0113,-4.0113,-4.0113,-4.0113,-4.0113,-4.0113,-4.0113,-3.9388,-3.9388,-3.9388,-3.9388,-3.9388,-3.9388,-3.9388,-3.9388,-3.9388,-3.9388,-3.9388,-3.9388,-3.9388,-3.9691,-4.1149,-4.2262,-4.2864,-4.399,-4.4804,-4.4992,-4.4902,-4.4632,-4.4598,-4.4598,-4.4598,-4.4598,-4.4598,-4.4598,-4.4598,-4.4615,-4.4598,-4.4598,-4.4598,-4.4598,-4.4598,-4.4598,-4.4598,-4.4598,-4.4513,-4.4012,-4.3115,-4.2455,-4.1796,-4.0764,-4.0333,-4.0146,-4.0113,-4.0113,-4.0113,-4.0113,-4.0113,-4.0113,-4.0113,-4.0113,-4.0113,-4.0113,-4.0113,-4.0113,-4.0113,-4.0113,-4.0113,-4.0113,-4.0113,-4.0113,-4.0113,-4.0113,-4.0113,-4.0113,-4.0113,-4.0113,-4.0113,-4.0113,-4.0113,-4.0113,-4.0113,-4.0113,-4.0113,-4.0113,-4.0113,-4.0113,-4.0113,-4.0113,-4.0113,-4.0113,-4.0113,-4.0113,-4.0113,-4.0113,-4.0113,-4.0113,-4.0113,-4.0113,-4.0113,-4.0113,-4.0113,-4.0113,-4.0113,-4.0113,-4.0113,-4.0113,-4.0113,-4.0113,-4.0113,-4.0113,-4.0113,-4.0113,-4.0113,-4.0113,-4.0113,-4.0113,-4.0113,-4.0113,-4.0113,-4.0113,-4.0113,-3.9388,-3.9388,-3.9388,-3.9388,-3.9388,-3.9388,-3.9388,-3.9388,-3.9388,-3.9388,-3.9388,-3.9388,-3.9388,-3.996,-4.1755,-4.2974,-4.3202,-4.508,-4.5824,-4.5754,-4.5449,-4.5139,-4.501,-4.4908,-4.4818,-4.4598,-4.4598,-4.475,-4.4807,-4.4716,-4.4598,-4.4598,-4.4598,-4.4598,-4.4598,-4.4598,-4.4598,-4.4598,-4.4598,-4.413,-4.3386,-4.2625,-4.1948,-4.1187,-4.0544,-4.0113,-4.0113,-4.0113,-4.0113,-4.0113,-4.0113,-4.0113,-4.0113,-4.0113,-4.0113,-4.0113,-4.0113,-4.0113,-4.0113,-4.0113,-4.0113,-4.0113,-4.0113,-4.0113,-4.0113,-4.0113,-4.0113,-4.0113,-4.0113,-4.0113,-4.0113,-4.0113,-4.0113,-4.0113,-4.0113,-4.0113,-4.0113,-4.0113,-4.0113,-4.0113,-4.0113,-4.0113,-4.0113,-4.0113,-4.0113,-4.0113,-4.0113,-4.0113,-4.0113,-4.0113,-4.0113,-4.0113,-4.0113,-4.0113,-4.0113,-4.0113,-4.0113,-4.0113,-4.0113,-4.0113,-4.0113,-4.0113,-4.0113,-4.0113,-4.0113,-4.0113,-4.0113,-4.0113,-4.0113,-4.0113,-4.0113,-4.0113,-4.0113,-4.0113,-4.0113,-3.9388,-3.9388,-3.9388,-3.9388,-3.9388,-3.9388,-3.9388,-3.9388,-3.9388,-3.9388,-3.9388,-3.9388,-3.9388,-4.0107,-4.1896,-4.3248,-4.3297,-4.5627,-4.6486,-4.6718,-4.6599,-4.6041,-4.5686,-4.5399,-4.5246,-4.4801,-4.4784,-4.5094,-4.5297,-4.4993,-4.4784,-4.4598,-4.4649,-4.4615,-4.4598,-4.4598,-4.4598,-4.4598,-4.4598,-4.4231,-4.3504,-4.2743,-4.1982,-4.1271,-4.0587,-4.0113,-4.0113,-4.0113,-4.0113,-4.0113,-4.0113,-4.0113,-4.0113,-4.0113,-4.0113,-4.0113,-4.0113,-4.0113,-4.0113,-4.0113,-4.0113,-4.0113,-4.0113,-4.0113,-4.0113,-4.0113,-4.0113,-4.0113,-4.0113,-4.0113,-4.0113,-4.0113,-4.0113,-4.0113,-4.0113,-4.0113,-4.0113,-4.0113,-4.0113,-4.0113,-4.0113,-4.0113,-4.0113,-4.0113,-4.0113,-4.0113,-4.0113,-4.0113,-4.0113,-4.0113,-4.0113,-4.0113,-4.0113,-4.0113,-4.0113,-4.0113,-4.0113,-4.0113,-4.0113,-4.0113,-4.0113,-4.0113,-4.0113,-4.0113,-4.0113,-4.0113,-4.0113,-4.0113,-4.0113,-4.0113,-4.0113,-4.0113,-4.0113,-4.0113,-4.0113,-3.9388,-3.9388,-3.9388,-3.9388,-3.9388,-3.9388,-3.9388,-3.9388,-3.9388,-3.9388,-3.9388,-3.9403,-3.9649,-4.0567,-4.2563,-4.4034,-4.4637,-4.6493,-4.7214,-4.7293,-4.7005,-4.6397,-4.594,-4.5754,-4.5517,-4.5314,-4.5314,-4.5652,-4.621,-4.5618,-4.5365,-4.5179,-4.4902,-4.4632,-4.4598,-4.4598,-4.4598,-4.4598,-4.4598,-4.435,-4.4012,-4.2912,-4.2151,-4.188,-4.062,-4.018,-4.0113,-4.0113,-4.0113,-4.0113,-4.0113,-4.0113,-4.0113,-4.0113,-4.0113,-4.013,-4.013,-4.018,-4.0146,-4.013,-4.0113,-4.0113,-4.0113,-4.013,-4.0163,-4.0113,-4.0113,-4.0113,-4.0113,-4.0113,-4.0113,-4.0113,-4.0113,-4.0113,-4.0113,-4.0113,-4.0113,-4.0113,-4.0113,-4.0113,-4.0113,-4.0113,-4.0113,-4.0113,-4.0113,-4.0113,-4.0113,-4.0113,-4.0113,-4.0113,-4.0113,-4.0113,-4.0113,-4.0113,-4.0113,-4.0113,-4.0113,-4.0113,-4.0113,-4.0113,-4.0113,-4.0113,-4.0113,-4.0113,-4.0113,-4.0113,-4.0113,-4.0113,-4.0113,-4.0113,-4.0113,-4.0113,-4.0113,-4.0113,-4.0113,-3.9388,-3.9388,-3.9388,-3.9388,-3.9388,-3.9388,-3.9388,-3.9388,-3.9388,-3.9388,-3.9388,-3.9418,-3.9649,-4.0652,-4.233,-4.38,-4.4703,-4.6315,-4.7385,-4.7693,-4.7564,-4.6989,-4.6583,-4.6363,-4.6397,-4.6126,-4.6092,-4.6397,-4.7056,-4.638,-4.6109,-4.5805,-4.5314,-4.497,-4.4598,-4.4598,-4.4598,-4.4598,-4.4598,-4.4598,-4.4378,-4.3386,-4.2439,-4.2202,-4.1094,-4.0383,-4.0197,-4.0113,-4.0113,-4.0113,-4.0113,-4.0113,-4.0113,-4.0113,-4.0113,-4.018,-4.0316,-4.0417,-4.0417,-4.0197,-4.0248,-4.0443,-4.018,-4.0265,-4.035,-4.0265,-4.0113,-4.0113,-4.0113,-4.0113,-4.013,-4.0113,-4.0113,-4.0113,-4.0113,-4.0113,-4.0113,-4.0113,-4.0113,-4.0113,-4.0113,-4.013,-4.0146,-4.0146,-4.0163,-4.0146,-4.0113,-4.0113,-4.0113,-4.0113,-4.0113,-4.0113,-4.0113,-4.0113,-4.0113,-4.0113,-4.0113,-4.0113,-4.0113,-4.0113,-4.0113,-4.0113,-4.0113,-4.0113,-4.0113,-4.0113,-4.0113,-4.0113,-4.0113,-4.0113,-4.0113,-4.0113,-4.0113,-4.0113,-4.0113,-3.9388,-3.9388,-3.9388,-3.9388,-3.9388,-3.9388,-3.9388,-3.9388,-3.9388,-3.9388,-3.9388,-3.9388,-3.9448,-3.9962,-4.1557,-4.2711,-4.3951,-4.575,-4.7128,-4.7749,-4.8331,-4.8261,-4.7889,-4.75,-4.7175,-4.687,-4.6718,-4.6989,-4.7868,-4.6972,-4.6701,-4.6515,-4.594,-4.5196,-4.4666,-4.4632,-4.4632,-4.4598,-4.4598,-4.4598,-4.4412,-4.369,-4.2997,-4.2405,-4.1491,-4.073,-4.0654,-4.018,-4.018,-4.0316,-4.0146,-4.0113,-4.0113,-4.0231,-4.0265,-4.0265,-4.0849,-4.1136,-4.1153,-4.051,-4.0646,-4.1035,-4.084,-4.0671,-4.0865,-4.0663,-4.0299,-4.0426,-4.0282,-4.0231,-4.018,-4.0113,-4.0113,-4.0113,-4.0113,-4.0248,-4.0265,-4.0383,-4.0434,-4.0739,-4.0434,-4.0163,-4.018,-4.0197,-4.0231,-4.0214,-4.013,-4.0113,-4.0113,-4.0113,-4.0113,-4.0113,-4.0113,-4.0113,-4.0113,-4.0113,-4.0113,-4.0113,-4.0113,-4.0113,-4.0113,-4.0113,-4.0113,-4.0113,-4.0113,-4.0113,-4.0113,-4.0113,-4.0113,-4.0113,-4.0113,-4.0113,-4.0113,-4.0113,-4.0113,-3.9388,-3.9388,-3.9388,-3.9388,-3.9388,-3.9388,-3.9388,-3.9388,-3.9388,-3.9388,-3.9388,-3.9388,-3.9709,-4.0335,-4.1127,-4.2315,-4.3715,-4.5538,-4.7052,-4.7712,-4.857,-4.8416,-4.8125,-4.7956,-4.78,-4.7462,-4.7242,-4.7581,-4.8629,-4.7581,-4.731,-4.7158,-4.643,-4.5331,-4.4925,-4.4936,-4.5162,-4.4699,-4.4598,-4.4581,-4.4513,-4.3859,-4.3274,-4.2963,-4.1897,-4.1356,-4.1271,-4.0654,-4.0468,-4.0629,-4.0502,-4.0282,-4.0367,-4.0519,-4.0832,-4.0967,-4.1491,-4.1897,-4.1914,-4.166,-4.1687,-4.1805,-4.166,-4.1339,-4.1255,-4.1525,-4.1255,-4.095,-4.0832,-4.0832,-4.0849,-4.035,-4.018,-4.0113,-4.018,-4.0502,-4.0629,-4.0832,-4.1018,-4.1542,-4.1585,-4.1407,-4.1339,-4.0747,-4.0595,-4.0434,-4.035,-4.0163,-4.0113,-4.0113,-4.0113,-4.0113,-4.0113,-4.0113,-4.0113,-4.0113,-4.0113,-4.0113,-4.0113,-4.0113,-4.0113,-4.0113,-4.0113,-4.0113,-4.0113,-4.0113,-4.0113,-4.0113,-4.0113,-4.0113,-4.0113,-4.0113,-4.0113,-4.0113,-4.0113,-3.9388,-3.9388,-3.9388,-3.9388,-3.9388,-3.9388,-3.9388,-3.9388,-3.9388,-3.9388,-3.9388,-3.9403,-3.9619,-4.0151,-4.075,-4.1546,-4.2898,-4.4825,-4.6173,-4.7011,-4.8409,-4.8554,-4.846,-4.8261,-4.8359,-4.8122,-4.797,-4.8189,-4.8883,-4.8054,-4.775,-4.7581,-4.6955,-4.6075,-4.5449,-4.5179,-4.5026,-4.4649,-4.4598,-4.4598,-4.4479,-4.4113,-4.3724,-4.325,-4.2591,-4.1982,-4.1745,-4.1382,-4.0916,-4.1085,-4.1001,-4.0823,-4.101,-4.1221,-4.1576,-4.1779,-4.2219,-4.2743,-4.3031,-4.3115,-4.3159,-4.3159,-4.2692,-4.2236,-4.1948,-4.2134,-4.1948,-4.1711,-4.1593,-4.1576,-4.1474,-4.0849,-4.0527,-4.0502,-4.0595,-4.0916,-4.1102,-4.1305,-4.1694,-4.2219,-4.2422,-4.2405,-4.232,-4.1627,-4.1052,-4.0798,-4.0561,-4.0333,-4.0113,-4.0113,-4.0113,-4.0113,-4.0113,-4.0113,-4.0113,-4.0113,-4.0113,-4.0113,-4.0113,-4.0113,-4.0113,-4.0113,-4.0113,-4.0113,-4.0113,-4.0113,-4.0113,-4.0113,-4.0113,-4.0113,-4.0113,-4.0113,-4.0113,-4.0113,-4.0113,-3.9388,-3.9388,-3.9388,-3.9388,-3.9388,-3.9388,-3.9388,-3.9388,-3.9388,-3.9388,-3.9388,-3.9388,-3.9463,-3.9433,-3.9505,-4.0167,-4.1314,-4.3353,-4.4637,-4.6043,-4.7743,-4.8308,-4.8759,-4.8773,-4.8768,-4.8883,-4.8748,-4.8409,-4.8951,-4.8697,-4.8409,-4.8122,-4.775,-4.6819,-4.5957,-4.5263,-4.4925,-4.4699,-4.4598,-4.4598,-4.4513,-4.4513,-4.4113,-4.3673,-4.3234,-4.2658,-4.232,-4.1931,-4.1762,-4.1796,-4.183,-4.2066,-4.2236,-4.2286,-4.232,-4.2591,-4.3166,-4.3707,-4.413,-4.4242,-4.4293,-4.4022,-4.3244,-4.3031,-4.2946,-4.2844,-4.2709,-4.2489,-4.2337,-4.2337,-4.2236,-4.1728,-4.1238,-4.1238,-4.1238,-4.1424,-4.1593,-4.188,-4.2303,-4.2625,-4.2709,-4.2726,-4.2675,-4.2168,-4.1525,-4.1187,-4.0874,-4.0282,-4.0113,-4.0113,-4.0113,-4.0113,-4.0113,-4.0113,-4.0113,-4.0113,-4.0113,-4.0113,-4.0113,-4.0113,-4.0113,-4.0113,-4.0113,-4.0113,-4.0113,-4.0113,-4.0113,-4.0113,-4.0113,-4.0113,-4.0113,-4.0113,-4.0113,-4.0113,-4.0113,-3.9388,-3.9388,-3.9388,-3.9388,-3.9388,-3.9388,-3.9388,-3.9388,-3.9388,-3.9388,-3.9388,-3.9388,-3.9463,-3.9388,-3.9439,-4.0197,-4.1294,-4.2571,-4.385,-4.5371,-4.7012,-4.772,-4.8225,-4.8608,-4.8861,-4.8832,-4.8663,-4.8629,-4.8917,-4.9018,-4.8984,-4.8697,-4.8223,-4.7378,-4.6549,-4.5754,-4.5179,-4.4733,-4.4598,-4.4598,-4.4598,-4.4598,-4.4333,-4.4147,-4.3707,-4.3284,-4.3318,-4.2625,-4.2506,-4.275,-4.2405,-4.2337,-4.2303,-4.2777,-4.3217,-4.3904,-4.4164,-4.4367,-4.4564,-4.4598,-4.4598,-4.4598,-4.4056,-4.3707,-4.3639,-4.3589,-4.3504,-4.3267,-4.3098,-4.3098,-4.2929,-4.2506,-4.21,-4.1982,-4.2016,-4.2134,-4.2354,-4.2743,-4.3149,-4.3436,-4.3504,-4.347,-4.3396,-4.2658,-4.2049,-4.166,-4.1213,-4.0637,-4.018,-4.0197,-4.0113,-4.0113,-4.0113,-4.0113,-4.0113,-4.0113,-4.0113,-4.0113,-4.0113,-4.0113,-4.0113,-4.0113,-4.0113,-4.0113,-4.0113,-4.0113,-4.0113,-4.0113,-4.0113,-4.0113,-4.0113,-4.0113,-4.0113,-4.0113,-4.0113,-3.9388,-3.9388,-3.9388,-3.9523,-3.9738,-3.9478,-3.9508,-3.9723,-3.9544,-3.9388,-3.9418,-3.9723,-3.9813,-3.9828,-3.9888,-4.0389,-4.1438,-4.2412,-4.3463,-4.4542,-4.6218,-4.7105,-4.7721,-4.8144,-4.8576,-4.8596,-4.8649,-4.8697,-4.8934,-4.9001,-4.8984,-4.8934,-4.8446,-4.7733,-4.6938,-4.6261,-4.5534,-4.497,-4.4598,-4.4598,-4.4598,-4.4598,-4.4598,-4.4496,-4.3995,-4.4113,-4.4113,-4.32,-4.342,-4.3511,-4.3014,-4.3244,-4.325,-4.3707,-4.3944,-4.4479,-4.4513,-4.453,-4.4598,-4.4598,-4.4598,-4.4598,-4.4598,-4.4344,-4.4198,-4.4164,-4.4096,-4.3961,-4.391,-4.3809,-4.3555,-4.3284,-4.3014,-4.2743,-4.2844,-4.2902,-4.3267,-4.3656,-4.4028,-4.4412,-4.4496,-4.4462,-4.4056,-4.3217,-4.2675,-4.2455,-4.2083,-4.1551,-4.0908,-4.0451,-4.0265,-4.0113,-4.0113,-4.0113,-4.0113,-4.0113,-4.0113,-4.0113,-4.0113,-4.0113,-4.0113,-4.0113,-4.0113,-4.0113,-4.0113,-4.0113,-4.0113,-4.0113,-4.0113,-4.0113,-4.0113,-4.0113,-4.0113,-4.0113,-4.0113,-3.9388,-3.9388,-3.9388,-3.9723,-4.0172,-3.9612,-3.9723,-4.0232,-3.9612,-3.9388,-3.9508,-4.0098,-4.0322,-4.0277,-4.0412,-4.0861,-4.1656,-4.2441,-4.3073,-4.383,-4.5313,-4.6349,-4.69,-4.7589,-4.8129,-4.8639,-4.892,-4.8866,-4.8917,-4.8866,-4.8781,-4.8968,-4.8781,-4.8037,-4.6921,-4.6515,-4.5737,-4.4801,-4.4598,-4.4598,-4.4598,-4.4598,-4.4598,-4.4598,-4.4462,-4.435,-4.3978,-4.3961,-4.4265,-4.4028,-4.4028,-4.4429,-4.4429,-4.4445,-4.4547,-4.4564,-4.4598,-4.4598,-4.4598,-4.4598,-4.4598,-4.4598,-4.4598,-4.453,-4.4496,-4.4479,-4.4367,-4.435,-4.4265,-4.4248,-4.4045,-4.3859,-4.3623,-4.3521,-4.3572,-4.3623,-4.3775,-4.4079,-4.4299,-4.4598,-4.4598,-4.4581,-4.4412,-4.3589,-4.3064,-4.3081,-4.2675,-4.21,-4.1788,-4.1077,-4.0722,-4.0417,-4.0163,-4.0163,-4.0113,-4.0113,-4.0113,-4.0113,-4.0113,-4.0113,-4.0113,-4.0113,-4.0113,-4.0113,-4.0113,-4.0113,-4.0113,-4.0113,-4.0113,-4.0113,-4.0113,-4.0113,-4.0113,-4.0113,-4.0113,-3.9388,-3.9388,-3.9388,-3.9478,-3.9619,-3.9463,-3.9478,-3.9649,-3.9463,-3.9403,-3.9523,-4.0083,-4.0442,-4.0516,-4.098,-4.1542,-4.2151,-4.2395,-4.2878,-4.3556,-4.4697,-4.5452,-4.5921,-4.7002,-4.7655,-4.808,-4.8513,-4.9001,-4.8917,-4.8629,-4.8477,-4.8866,-4.8545,-4.7614,-4.6819,-4.643,-4.5551,-4.4666,-4.4598,-4.4598,-4.4598,-4.4598,-4.4598,-4.4598,-4.453,-4.453,-4.4299,-4.4395,-4.4513,-4.4429,-4.4479,-4.4581,-4.4581,-4.4598,-4.4598,-4.4598,-4.4598,-4.4598,-4.4598,-4.4598,-4.4598,-4.4598,-4.4598,-4.4598,-4.4598,-4.4598,-4.4598,-4.4598,-4.4598,-4.4598,-4.4547,-4.435,-4.4231,-4.4231,-4.4231,-4.4231,-4.4231,-4.4384,-4.4581,-4.4598,-4.4598,-4.453,-4.4429,-4.4096,-4.3606,-4.3115,-4.2642,-4.2269,-4.2354,-4.1948,-4.161,-4.1204,-4.04,-4.0248,-4.0282,-4.0265,-4.035,-4.0231,-4.018,-4.0146,-4.0113,-4.0113,-4.0113,-4.0113,-4.0113,-4.0113,-4.0113,-4.0113,-4.0113,-4.0113,-4.0113,-4.0113,-4.0113,-4.0113,-4.0113,-3.9388,-3.9388,-3.9388,-3.9589,-3.9768,-3.9559,-3.9574,-3.9747,-3.9508,-3.9553,-3.9933,-4.0502,-4.0831,-4.0935,-4.1557,-4.2147,-4.2611,-4.247,-4.2863,-4.3395,-4.3927,-4.4781,-4.5561,-4.6435,-4.7556,-4.8129,-4.8625,-4.8968,-4.8832,-4.8409,-4.8244,-4.868,-4.8071,-4.7259,-4.6718,-4.6075,-4.5348,-4.4649,-4.4632,-4.4598,-4.4598,-4.4598,-4.4598,-4.4598,-4.4598,-4.4598,-4.4598,-4.4598,-4.4598,-4.4598,-4.4598,-4.4598,-4.4598,-4.4598,-4.4598,-4.4598,-4.4598,-4.4598,-4.4598,-4.4598,-4.4598,-4.4598,-4.4598,-4.4598,-4.4598,-4.4598,-4.4598,-4.4598,-4.4598,-4.4598,-4.4598,-4.4479,-4.4462,-4.4462,-4.4462,-4.4462,-4.4462,-4.4513,-4.4598,-4.4598,-4.4598,-4.4581,-4.4513,-4.4479,-4.4045,-4.4012,-4.3413,-4.3244,-4.3183,-4.2878,-4.254,-4.2185,-4.15,-4.1145,-4.1314,-4.1077,-4.0713,-4.0544,-4.0358,-4.018,-4.013,-4.0113,-4.0113,-4.0113,-4.0113,-4.0113,-4.0113,-4.0113,-4.0113,-4.0113,-4.0113,-4.0113,-4.0113,-4.0146,-4.0279,-3.9284,-3.9373,-3.9388,-3.9723,-4.0142,-3.9664,-3.9709,-4.0083,-3.9679,-3.9783,-4.0382,-4.104,-4.1407,-4.1752,-4.2177,-4.2776,-4.3045,-4.2806,-4.3015,-4.3155,-4.3369,-4.409,-4.4952,-4.5941,-4.7036,-4.7996,-4.863,-4.872,-4.8697,-4.8227,-4.8091,-4.8477,-4.7868,-4.6955,-4.6701,-4.6109,-4.5382,-4.497,-4.4784,-4.4615,-4.4598,-4.4598,-4.4598,-4.4598,-4.4598,-4.4598,-4.4598,-4.4598,-4.4598,-4.4598,-4.4598,-4.4598,-4.4598,-4.4598,-4.4598,-4.4598,-4.4598,-4.4598,-4.4598,-4.4598,-4.4598,-4.4598,-4.4598,-4.4598,-4.4598,-4.4598,-4.4598,-4.4598,-4.4598,-4.4598,-4.4598,-4.4598,-4.4598,-4.4598,-4.4598,-4.4598,-4.4598,-4.4598,-4.4598,-4.4598,-4.4598,-4.4598,-4.4581,-4.4553,-4.4581,-4.4598,-4.4598,-4.4598,-4.4412,-4.3893,-4.347,-4.3284,-4.2939,-4.2685,-4.233,-4.1863,-4.1339,-4.1136,-4.095,-4.0476,-4.013,-4.0113,-4.0113,-4.0113,-4.0113,-4.0113,-4.0113,-4.0113,-4.0113,-4.0113,-4.0113,-4.0113,-4.0113,-4.0179,-4.0497,-3.8916,-3.9388,-3.9388,-3.9499,-3.9553,-3.9469,-3.9463,-3.9553,-3.9514,-3.9783,-4.0472,-4.11,-4.1662,-4.2246,-4.2851,-4.323,-4.32,-4.306,-4.3095,-4.329,-4.3305,-4.363,-4.4343,-4.5582,-4.6365,-4.7358,-4.8222,-4.8162,-4.846,-4.8159,-4.7956,-4.8142,-4.8054,-4.7547,-4.7428,-4.6616,-4.5585,-4.5229,-4.4852,-4.4598,-4.4598,-4.4598,-4.4598,-4.4598,-4.4598,-4.4598,-4.4598,-4.4598,-4.4598,-4.4598,-4.4598,-4.4598,-4.4598,-4.4598,-4.4598,-4.4598,-4.4598,-4.4598,-4.4598,-4.4598,-4.4598,-4.4598,-4.4598,-4.4598,-4.4598,-4.4598,-4.4598,-4.4598,-4.4598,-4.4598,-4.4598,-4.4598,-4.4598,-4.4598,-4.4598,-4.4598,-4.4598,-4.4598,-4.4598,-4.4598,-4.4598,-4.4598,-4.4598,-4.4581,-4.4581,-4.4598,-4.4598,-4.4598,-4.4598,-4.4418,-4.4265,-4.413,-4.4005,-4.3328,-4.2574,-4.2439,-4.2049,-4.183,-4.1491,-4.0967,-4.0536,-4.0146,-4.0113,-4.0113,-4.0113,-4.0113,-4.0113,-4.0113,-4.0113,-4.0113,-4.0113,-4.0113,-4.0113,-4.0286,-4.0672]}]]